[[{"header":{"parameterUnit":"m.s-1","parameterCategory":1,"la1":31.0,"la2":29.5877,"lo1":-88.7671,"lo2":-86.6584,"dy":0.0162,"dx":0.0185,"nx":115,"ny":88,"refTime":"2024-08-08T00:00:00:Z","depth":0,"parameterNumber":2,"parameterNumberName":"U-component_of_WINDS"},"data":[0.0,0.0,0.0,0.0,0.0,0.0,0.0,0.0,0.0,0.0,0.0,0.0,0.0,0.0,0.0,0.0,0.0,0.0,0.0,0.0,0.0,0.0,0.0,0.0,0.0,0.0,0.0,0.0,0.0,0.0,0.0,0.0,0.0,0.0,0.0,0.0,0.0,0.0,0.0,0.0,0.0,0.0,0.0,0.0,0.0,0.0,0.0,0.0,0.0,0.0,0.0,0.0,0.0,0.0,0.0,0.0,0.0,0.0,0.0,0.0,0.0,0.0,0.0,0.0,0.0,0.0,0.0,0.0,0.0,0.0,0.0,0.0,0.0,0.0,0.0,0.0,0.0,0.0,0.0,0.0,0.0,0.0,0.0,0.0,0.0,0.0,0.0,0.0,0.0,0.0,0.0,0.0,0.0,0.0,0.0,0.0,0.0,0.0,0.0,0.0,0.0,0.0,0.0,0.0,0.0,0.0,0.0,0.0,0.0,0.0,0.0,0.0,0.0,0.0,0.0,0.0,0.0,0.0,0.0,0.0,0.0,0.0,0.0,0.0,0.0,0.0,0.0,0.0,0.0,0.0,0.0,0.0,0.0,0.0,0.0,0.0,0.0,0.0,0.0,0.0,0.0,0.0,0.0,0.0,0.0,0.0,0.0,0.0,0.0,0.0,0.0,0.0,0.0,0.0,0.0,0.0,0.0,0.0,0.0,0.0,0.0,0.0,0.0,0.0,0.0,0.0,0.0,0.0,0.0,0.0,0.0,0.0,0.0,0.0,0.0,0.0,0.0,0.0,0.0,0.0,0.0,0.0,0.0,0.0,0.0,0.0,0.0,0.0,0.0,0.0,0.0,0.0,0.0,0.0,0.0,0.0,0.0,0.0,0.0,0.0,0.0,0.0,0.0,0.0,0.0,0.0,0.0,0.0,0.0,0.0,0.0,0.0,0.0,0.0,0.0,0.0,0.0,0.0,0.0,0.0,0.0,0.0,0.0,0.0,0.0,0.0,0.0,0.0,0.0,0.0,0.0,0.0,0.0,0.0,0.0,0.0,0.0,0.0,0.0,0.0,0.0,0.0,0.0,0.0,0.0,0.0,0.0,0.0,0.0,0.0,0.0,0.0,0.0,0.0,0.0,0.0,0.0,0.0,0.0,0.0,0.0,0.0,0.0,0.0,0.0,0.0,0.0,0.0,0.0,0.0,0.0,0.0,0.0,0.0,0.0,0.0,0.0,0.0,0.0,0.0,0.0,0.0,0.0,0.0,0.0,0.0,0.0,0.0,0.0,0.0,0.0,0.0,0.0,0.0,0.0,0.0,0.0,0.0,0.0,0.0,0.0,0.0,0.0,0.0,0.0,0.0,0.0,0.0,0.0,0.0,0.0,0.0,0.0,0.0,0.0,0.0,0.0,0.0,0.0,0.0,0.0,0.0,0.0,0.0,0.0,0.0,0.0,0.0,0.0,0.0,0.0,0.0,0.0,0.0,0.0,0.0,0.0,0.0,0.0,0.0,0.0,0.0,0.0,0.0,0.0,0.0,0.0,0.0,0.0,0.0,0.0,0.0,0.0,0.0,0.0,0.0,0.0,0.0,0.0,0.0,0.0,0.0,0.0,0.0,0.0,0.0,0.0,0.0,0.0,0.0,0.0,0.0,0.0,0.0,0.0,0.0,0.0,0.0,0.0,0.0,0.0,0.0,0.0,0.0,0.0,0.0,0.0,0.0,0.0,0.0,0.0,0.0,0.0,0.0,0.0,0.0,0.0,0.0,0.0,0.0,0.0,0.0,0.0,0.0,0.0,0.0,0.0,0.0,0.0,0.0,0.0,0.0,0.0,0.0,0.0,0.0,0.0,0.0,0.0,0.0,0.0,0.0,0.0,0.0,0.0,0.0,0.0,0.0,0.0,0.0,0.0,0.0,0.0,0.0,0.0,0.0,0.0,0.0,0.0,0.0,0.0,0.0,0.0,0.0,0.0,0.0,0.0,0.0,0.0,0.0,0.0,0.0,0.0,0.0,0.0,0.0,0.0,0.0,0.0,0.0,0.0,0.0,0.0,0.0,0.0,0.0,0.0,0.0,0.0,0.0,0.0,0.0,0.0,0.0,0.0,0.0,0.0,0.0,0.0,0.0,0.0,0.0,0.0,0.0,0.0,0.0,0.0,0.0,0.0,0.0,0.0,0.0,0.0,0.0,0.0,0.0,0.0,0.0,0.0,0.0,0.0,0.0,0.0,0.0,0.0,0.0,0.0,0.0,0.0,0.0,0.0,0.0,0.0,0.0,0.0,0.0,0.0,0.0,0.0,0.0,0.0,0.0,0.0,0.0,0.0,0.0,0.0,0.0,0.0,0.0,0.0,0.0,0.0,0.0,0.0,0.0,0.0,0.0,0.0,0.0,0.0,0.0,0.0,0.0,0.0,0.0,0.0,0.0,0.0,0.0,0.0,0.0,0.0,0.0,0.0,0.0,0.0,0.0,0.0,0.0,0.0,0.0,0.0,0.0,0.0,0.0,0.0,0.0,0.0,0.0,0.0,0.0,0.0,0.0,0.0,0.0,0.0,0.0,0.0,0.0,0.0,0.0,0.0,0.0,0.0,0.0,0.0,0.0,0.0,0.0,0.0,0.0,0.0,0.0,0.0,0.0,0.0,0.0,0.0,0.0,0.0,0.0,0.0,0.0,0.0,0.0,0.0,0.0,0.0,0.0,0.0,0.0,0.0,0.0,0.0,0.0,0.0,0.0,0.0,0.0,0.0,0.0,0.0,0.0,0.0,0.0,0.0,0.0,0.0,0.0,0.0,0.0,0.0,0.0,0.0,0.0,0.0,0.0,0.0,0.0,0.0,0.0,0.0,0.0,0.0,0.0,0.0,0.0,0.0,0.0,0.0,0.0,0.0,0.0,0.0,0.0,0.0,0.0,0.0,0.0,0.0,0.0,0.0,0.0,0.0,0.0,0.0,0.0,0.0,0.0,0.0,0.0,0.0,0.0,0.0,0.0,0.0,0.0,0.0,0.0,0.0,0.0,0.0,0.0,0.0,0.0,0.0,0.0,0.0,0.0,0.0,0.0,0.0,0.0,0.0,0.0,0.0,0.0,0.0,0.0,0.0,0.0,0.0,0.0,0.0,0.0,0.0,0.0,0.0,0.0,0.0,0.0,0.0,0.0,0.0,0.0,0.0,0.0,0.0,0.0,0.0,0.0,0.0,0.0,0.0,0.0,0.0,0.0,0.0,0.0,0.0,0.0,0.0,0.0,0.0,0.0,0.0,0.0,0.0,0.0,0.0,0.0,0.0,0.0,0.0,0.0,0.0,0.0,0.0,0.0,0.0,0.0,0.0,0.0,0.0,0.0,0.0,0.0,0.0,0.0,0.0,0.0,0.0,0.0,0.0,0.0,0.0,0.0,0.0,0.0,0.0,0.0,0.0,0.0,0.0,0.0,0.0,0.0,0.0,0.0,0.0,0.0,0.0,0.0,0.0,0.0,0.0,0.0,0.0,0.0,0.0,0.0,0.0,0.0,0.0,0.0,0.0,0.0,0.0,0.0,0.0,0.0,0.0,0.0,0.0,0.0,0.0,0.0,0.0,0.0,0.0,0.0,0.0,0.0,0.0,0.0,0.0,0.0,0.0,0.0,0.0,0.0,0.0,0.0,0.0,0.0,0.0,0.0,0.0,0.0,0.0,0.0,0.0,0.0,0.0,0.0,0.0,0.0,0.0,0.0,0.0,0.0,0.0,0.0,0.0,0.0,0.0,0.0,0.0,0.0,0.0,0.0,0.0,0.0,0.0,0.0,0.0,0.0,0.0,0.0,0.0,0.0,0.0,0.0,0.0,0.0,0.0,0.0,0.0,0.0,0.0,0.0,0.0,0.0,0.0,0.0,0.0,0.0,0.0,0.0,0.0,0.0,0.0,0.0,0.0,0.0,0.0,0.0,0.0,0.0,0.0,0.0,0.0,0.0,0.0,0.0,0.0,0.0,0.0,0.0,0.0,0.0,0.0,0.0,0.0,0.0,0.0,0.0,0.0,0.0,0.0,0.0,0.0,0.0,0.0,0.0,0.0,0.0,0.0,0.0,0.0,0.0,0.0,0.0,0.0,0.0,0.0,0.0,0.0,0.0,0.0,0.0,0.0,0.0,0.0,0.0,0.0,0.0,0.0,0.0,0.0,0.0,0.0,0.0,0.0,0.0,0.0,0.0,0.0,0.0,0.0,0.0,0.0,0.0,0.0,0.0,0.0,0.0,0.0,0.0,0.0,0.0,0.0,0.0,0.0,0.0,1.6071,0.0,0.0,0.0,0.0,0.0,0.0,0.0,0.0,0.0,0.0,0.0,0.0,0.0,0.0,0.0,0.0,0.0,0.0,0.0,0.0,0.0,0.0,0.0,0.0,0.0,0.0,0.0,0.0,0.0,0.0,0.0,0.0,0.0,0.0,0.0,0.0,0.0,0.0,0.0,0.0,0.0,0.0,0.0,0.0,0.0,0.0,0.0,0.0,0.0,0.0,0.0,0.0,0.0,0.0,0.0,0.0,0.0,0.0,0.0,0.0,0.0,0.0,0.0,0.0,0.0,0.0,0.0,0.0,0.0,0.0,0.0,0.0,0.0,0.0,0.0,0.0,0.0,0.0,0.0,0.0,0.0,0.0,0.0,0.0,0.0,0.0,0.0,0.0,0.0,0.0,0.0,0.0,0.0,0.0,0.0,0.0,0.0,0.0,0.0,0.0,0.0,0.0,0.0,0.0,0.0,0.0,0.0,0.0,0.0,0.0,1.6219,1.6382,1.6517,1.6412,1.5988,0.0,0.0,0.0,0.0,0.0,0.0,0.0,0.0,0.0,0.0,0.0,0.0,0.0,0.0,0.0,0.0,0.0,0.0,0.0,0.0,0.0,0.0,0.0,0.0,0.0,0.0,0.0,0.0,0.0,0.0,0.0,0.0,0.0,0.0,0.0,0.0,0.0,0.0,0.0,0.0,0.0,0.0,0.0,0.0,0.0,0.0,0.0,0.0,0.0,0.0,0.0,0.0,0.0,0.0,0.0,0.0,0.0,0.0,0.0,0.0,0.0,0.0,0.0,0.0,0.0,0.0,0.0,0.0,0.0,0.0,0.0,0.0,0.0,0.0,0.0,0.0,0.0,0.0,0.0,0.0,0.0,0.0,0.0,0.0,0.0,0.0,0.0,0.0,0.0,0.0,0.0,0.0,0.0,0.0,0.0,0.0,0.0,0.0,0.0,0.0,0.0,0.0,0.0,0.0,0.0,0.0,0.0,0.0,0.0,0.0,0.0,0.0,1.6681,1.662,1.6325,0.0,0.0,0.0,0.0,0.0,0.0,0.0,0.0,0.0,0.0,0.0,0.0,0.0,0.0,0.0,0.0,0.0,0.0,0.0,0.0,0.0,0.0,0.0,0.0,0.0,0.0,0.0,0.0,0.0,0.0,0.0,0.0,0.0,0.0,0.0,0.0,0.0,0.0,0.0,0.0,0.0,0.0,0.0,0.0,0.0,0.0,0.0,0.0,0.0,0.0,0.0,0.0,0.0,0.0,0.0,0.0,0.0,0.0,0.0,0.0,0.0,0.0,0.0,0.0,0.0,0.0,0.0,0.0,0.0,0.0,0.0,0.0,0.0,0.0,0.0,0.0,0.0,0.0,0.0,0.0,0.0,0.0,0.0,0.0,0.0,0.0,0.0,0.0,0.0,0.0,0.0,0.0,0.0,0.0,0.0,0.0,0.0,0.0,0.0,0.0,0.0,0.0,0.0,0.0,0.0,0.0,0.0,0.0,0.0,0.0,1.6546,1.7852,1.7914,0.0,1.7028,0.0,0.0,0.0,0.0,0.0,0.0,0.0,0.0,0.0,0.0,0.0,0.0,0.0,0.0,0.0,0.0,0.0,0.0,0.0,0.0,0.0,0.0,0.0,0.0,0.0,0.0,0.0,0.0,0.0,0.0,0.0,0.0,0.0,0.0,0.0,0.0,0.0,0.0,0.0,0.0,0.0,0.0,0.0,0.0,0.0,0.0,0.0,0.0,0.0,0.0,0.0,0.0,0.0,0.0,0.0,0.0,0.0,0.0,0.0,0.0,0.0,0.0,0.0,0.0,0.0,0.0,0.0,0.0,0.0,0.0,0.0,0.0,0.0,0.0,0.0,0.0,0.0,0.0,0.0,0.0,0.0,0.0,0.0,0.0,0.0,0.0,0.0,0.0,0.0,0.0,0.0,0.0,0.0,0.0,0.0,0.0,0.0,0.0,0.0,0.0,0.0,0.0,0.0,0.0,0.0,0.0,0.0,0.0,0.0,0.0,0.0,1.7519,1.7584,1.7322,0.0,0.0,0.0,0.0,0.0,0.0,0.0,0.0,0.0,0.0,0.0,0.0,0.0,0.0,0.0,0.0,0.0,0.0,0.0,0.0,0.0,0.0,0.0,0.0,0.0,0.0,0.0,0.0,0.0,0.0,0.0,0.0,0.0,0.0,0.0,0.0,0.0,0.0,0.0,0.0,0.0,0.0,0.0,0.0,0.0,0.0,0.0,0.0,0.0,0.0,0.0,0.0,0.0,0.0,0.0,0.0,0.0,0.0,0.0,0.0,0.0,0.0,0.0,0.0,0.0,0.0,0.0,0.0,0.0,0.0,0.0,0.0,0.0,0.0,0.0,0.0,0.0,0.0,0.0,0.0,0.0,0.0,0.0,0.0,0.0,0.0,0.0,0.0,0.0,0.0,0.0,0.0,0.0,0.0,0.0,0.0,0.0,0.0,0.0,0.0,0.0,0.0,0.0,0.0,0.0,0.0,0.0,0.0,0.0,0.0,1.6123,0.0,1.758,1.7427,1.7086,1.6681,0.0,0.0,0.0,0.0,0.0,0.0,0.0,0.0,0.0,0.0,0.0,0.0,0.0,0.0,0.0,0.0,0.0,0.0,0.0,0.0,0.0,0.0,0.0,0.0,0.0,0.0,0.0,0.0,0.0,0.0,0.0,0.0,0.0,0.0,0.0,0.0,0.0,0.0,0.0,0.0,0.0,0.0,0.0,0.0,0.0,0.0,0.0,0.0,0.0,0.0,0.0,0.0,0.0,0.0,0.0,0.0,0.0,0.0,0.0,0.0,0.0,0.0,0.0,0.0,0.0,0.0,0.0,0.0,0.0,0.0,0.0,0.0,0.0,0.0,0.0,0.0,0.0,0.0,0.0,0.0,0.0,0.0,0.0,0.0,0.0,0.0,0.0,0.0,0.0,0.0,0.0,0.0,0.0,0.0,0.0,0.0,0.0,0.0,0.0,0.0,0.0,0.0,0.0,0.0,0.0,0.0,0.0,0.0,0.0,1.7925,1.7833,1.8674,1.7789,1.732,0.0,0.0,0.0,0.0,0.0,0.0,0.0,0.0,0.0,0.0,0.0,0.0,0.0,0.0,0.0,0.0,0.0,0.0,0.0,0.0,0.0,0.0,0.0,0.0,0.0,0.0,0.0,0.0,0.0,0.0,0.0,0.0,0.0,0.0,0.0,0.0,0.0,0.0,0.0,0.0,0.0,0.0,0.0,0.0,0.0,0.0,0.0,0.0,0.0,0.0,0.0,0.0,0.0,0.0,0.0,0.0,0.0,0.0,0.0,0.0,0.0,0.0,0.0,0.0,0.0,0.0,0.0,0.0,0.0,0.0,0.0,0.0,0.0,0.0,0.0,0.0,0.0,0.0,0.0,0.0,0.0,0.0,0.0,0.0,0.0,0.0,0.0,0.0,0.0,0.0,0.0,0.0,0.0,0.0,0.0,0.0,0.0,0.0,0.0,0.0,0.0,0.0,0.0,0.0,0.0,0.0,0.0,0.0,0.0,1.7014,1.7688,1.8355,1.8927,1.8133,1.7683,0.0,0.0,0.0,0.0,0.0,0.0,0.0,0.0,0.0,0.0,0.0,0.0,0.0,0.0,0.0,0.0,0.0,0.0,0.0,0.0,0.0,0.0,0.0,0.0,0.0,0.0,0.0,0.0,0.0,0.0,0.0,0.0,0.0,0.0,0.0,0.0,0.0,0.0,0.0,0.0,0.0,0.0,0.0,0.0,0.0,0.0,0.0,0.0,0.0,0.0,0.0,0.0,0.0,0.0,0.0,0.0,0.0,0.0,0.0,0.0,0.0,0.0,0.0,0.0,0.0,0.0,0.0,0.0,0.0,0.0,0.0,0.0,0.0,0.0,0.0,0.0,0.0,0.0,0.0,0.0,0.0,0.0,0.0,0.0,0.0,0.0,0.0,0.0,0.0,0.0,0.0,0.0,0.0,0.0,0.0,0.0,0.0,0.0,0.0,0.0,0.0,0.0,0.0,0.0,0.0,0.0,0.0,0.0,0.0,1.6956,0.0,1.8797,0.0,1.8208,1.7612,0.0,0.0,0.0,0.0,0.0,0.0,0.0,0.0,0.0,0.0,0.0,0.0,0.0,0.0,0.0,0.0,0.0,0.0,0.0,0.0,0.0,0.0,0.0,0.0,0.0,0.0,0.0,0.0,0.0,0.0,0.0,0.0,0.0,0.0,0.0,0.0,0.0,0.0,0.0,0.0,0.0,0.0,0.0,0.0,0.0,0.0,0.0,0.0,0.0,0.0,0.0,0.0,0.0,0.0,0.0,0.0,0.0,0.0,0.0,0.0,0.0,0.0,0.0,0.0,0.0,0.0,0.0,0.0,0.0,0.0,0.0,0.0,0.0,0.0,0.0,0.0,0.0,0.0,0.0,0.0,0.0,0.0,0.0,0.0,0.0,0.0,0.0,0.0,0.0,0.0,0.0,0.0,0.0,0.0,0.0,0.0,0.0,0.0,0.0,0.0,0.0,0.0,0.0,0.0,0.0,0.0,0.0,0.0,1.8185,1.9163,1.9234,1.9154,1.8877,1.8021,1.702,0.0,0.0,0.0,0.0,0.0,0.0,0.0,0.0,0.0,0.0,0.0,0.0,0.0,0.0,0.0,0.0,0.0,0.0,0.0,0.0,0.0,0.0,0.0,0.0,0.0,0.0,0.0,0.0,0.0,0.0,0.0,0.0,0.0,0.0,0.0,0.0,0.0,0.0,0.0,0.0,0.0,0.0,0.0,0.0,0.0,0.0,0.0,0.0,0.0,0.0,0.0,0.0,0.0,0.0,0.0,0.0,0.0,0.0,0.0,0.0,0.0,0.0,0.0,0.0,0.0,0.0,0.0,0.0,0.0,0.0,0.0,0.0,0.0,0.0,0.0,0.0,0.0,0.0,0.0,0.0,0.0,0.0,0.0,0.0,0.0,0.0,0.0,0.0,0.0,0.0,0.0,0.0,0.0,0.0,0.0,0.0,0.0,0.0,0.0,0.0,0.0,0.0,0.0,0.0,0.0,0.0,0.0,0.0,0.0,1.827,1.8734,1.9409,2.0208,1.8149,1.729,0.0,0.0,0.0,0.0,0.0,0.0,0.0,0.0,0.0,0.0,0.0,0.0,0.0,0.0,0.0,0.0,0.0,0.0,0.0,0.0,0.0,0.0,0.0,0.0,0.0,0.0,0.0,0.0,0.0,0.0,0.0,0.0,0.0,0.0,0.0,0.0,0.0,0.0,0.0,0.0,0.0,0.0,0.0,0.0,0.0,0.0,0.0,0.0,0.0,0.0,0.0,0.0,0.0,0.0,0.0,0.0,0.0,0.0,0.0,0.0,0.0,0.0,0.0,0.0,0.0,0.0,0.0,0.0,0.0,0.0,0.0,0.0,0.0,0.0,0.0,0.0,0.0,0.0,0.0,0.0,0.0,0.0,0.0,0.0,0.0,0.0,0.0,0.0,0.0,0.0,0.0,0.0,0.0,0.0,0.0,0.0,0.0,0.0,0.0,0.0,0.0,0.0,0.0,0.0,0.0,0.0,0.0,0.0,0.0,1.8773,1.9227,1.9872,2.0811,1.8435,1.7448,1.794,0.0,0.0,0.0,0.0,0.0,0.0,0.0,0.0,0.0,0.0,0.0,0.0,0.0,0.0,0.0,0.0,0.0,0.0,0.0,0.0,0.0,0.0,0.0,0.0,0.0,0.0,0.0,0.0,0.0,0.0,0.0,0.0,0.0,0.0,0.0,0.0,0.0,0.0,0.0,0.0,0.0,0.0,0.0,0.0,0.0,0.0,0.0,0.0,0.0,0.0,0.0,0.0,0.0,0.0,0.0,0.0,0.0,0.0,0.0,0.0,0.0,0.0,0.0,0.0,0.0,0.0,0.0,0.0,0.0,0.0,0.0,0.0,0.0,0.0,0.0,0.0,0.0,0.0,0.0,0.0,0.0,0.0,0.0,0.0,0.0,0.0,0.0,0.0,0.0,0.0,0.0,0.0,0.0,0.0,0.0,0.0,0.0,0.0,0.0,0.0,0.0,0.0,0.0,0.0,0.0,0.0,0.0,0.0,2.0461,2.0567,2.0591,2.0577,1.881,1.7436,0.0,0.0,0.0,0.0,0.0,0.0,0.0,0.0,0.0,0.0,0.0,0.0,0.0,0.0,0.0,0.0,0.0,0.0,0.0,0.0,0.0,0.0,0.0,0.0,0.0,0.0,0.0,0.0,0.0,0.0,0.0,0.0,0.0,0.0,0.0,0.0,0.0,0.0,0.0,0.0,0.0,0.0,0.0,0.0,0.0,0.0,0.0,0.0,0.0,0.0,0.0,0.0,0.0,0.0,0.0,0.0,0.0,0.0,0.0,0.0,0.0,0.0,0.0,0.0,0.0,0.0,0.0,0.0,0.0,0.0,0.0,0.0,0.0,0.0,0.0,0.0,0.0,0.0,0.0,0.0,0.0,0.0,0.0,0.0,0.0,0.0,0.0,0.0,0.0,0.0,0.0,0.0,0.0,0.0,0.0,0.0,0.0,0.0,0.0,0.0,0.0,0.0,0.0,0.0,0.0,0.0,0.0,0.0,0.0,2.1497,2.1619,2.1554,2.1279,1.9114,1.7697,0.0,0.0,0.0,0.0,0.0,0.0,0.0,0.0,0.0,0.0,0.0,0.0,0.0,0.0,0.0,0.0,0.0,0.0,0.0,0.0,0.0,0.0,0.0,0.0,0.0,0.0,0.0,0.0,0.0,0.0,0.0,0.0,0.0,0.0,0.0,0.0,0.0,0.0,0.0,0.0,0.0,0.0,0.0,0.0,0.0,0.0,0.0,0.0,0.0,0.0,0.0,0.0,0.0,0.0,0.0,0.0,0.0,0.0,0.0,0.0,0.0,0.0,0.0,0.0,0.0,0.0,0.0,0.0,0.0,0.0,0.0,0.0,0.0,0.0,0.0,0.0,0.0,0.0,0.0,0.0,0.0,0.0,0.0,0.0,0.0,0.0,0.0,0.0,0.0,0.0,0.0,0.0,0.0,0.0,0.0,0.0,0.0,0.0,0.0,0.0,0.0,0.0,0.0,0.0,0.0,0.0,0.0,0.0,2.0373,2.202,2.2453,2.2622,2.2433,2.0172,1.8486,0.0,0.0,0.0,0.0,0.0,0.0,0.0,0.0,0.0,0.0,0.0,0.0,0.0,0.0,0.0,0.0,0.0,0.0,0.0,0.0,0.0,0.0,0.0,0.0,0.0,0.0,0.0,0.0,0.0,0.0,0.0,0.0,0.0,0.0,0.0,0.0,0.0,0.0,0.0,0.0,0.0,0.0,0.0,0.0,0.0,0.0,0.0,0.0,0.0,0.0,0.0,0.0,0.0,0.0,0.0,0.0,0.0,0.0,0.0,0.0,0.0,0.0,0.0,0.0,0.0,0.0,0.0,0.0,0.0,0.0,0.0,0.0,0.0,0.0,0.0,0.0,0.0,0.0,0.0,0.0,0.0,0.0,0.0,0.0,0.0,0.0,0.0,0.0,0.0,0.0,0.0,0.0,0.0,0.0,0.0,0.0,0.0,0.0,0.0,0.0,0.0,0.0,0.0,0.0,0.0,0.0,0.0,0.0,2.0583,2.2124,2.3044,2.3564,2.3584,2.1464,1.9515,0.0,0.0,0.0,0.0,0.0,0.0,0.0,0.0,0.0,0.0,0.0,0.0,0.0,0.0,0.0,0.0,0.0,0.0,0.0,0.0,0.0,0.0,0.0,0.0,0.0,0.0,0.0,0.0,0.0,0.0,0.0,0.0,0.0,0.0,0.0,0.0,0.0,0.0,0.0,0.0,0.0,0.0,0.0,0.0,0.0,0.0,0.0,0.0,0.0,0.0,0.0,0.0,0.0,0.0,0.0,0.0,0.0,0.0,0.0,0.0,0.0,0.0,0.0,0.0,0.0,0.0,0.0,0.0,0.0,0.0,0.0,0.0,0.0,0.0,0.0,0.0,0.0,0.0,0.0,0.0,0.0,0.0,0.0,0.0,0.0,0.0,0.0,0.0,0.0,0.0,0.0,0.0,0.0,0.0,0.0,0.0,0.0,0.0,0.0,0.0,0.0,0.0,0.0,0.0,0.0,0.0,0.0,0.0,2.0753,2.2455,2.2867,2.3492,2.4255,2.2213,2.0099,0.0,0.0,0.0,0.0,0.0,0.0,0.0,0.0,0.0,0.0,0.0,0.0,0.0,0.0,0.0,0.0,0.0,0.0,0.0,0.0,0.0,0.0,0.0,0.0,0.0,0.0,0.0,0.0,0.0,0.0,0.0,0.0,0.0,0.0,0.0,0.0,0.0,0.0,0.0,0.0,0.0,0.0,0.0,0.0,0.0,0.0,0.0,0.0,0.2247,0.0,0.0,0.0,0.0,0.0,0.0,0.0,0.0,0.0,0.0,0.0,0.0,0.0,0.0,0.0,0.0,0.0,0.0,0.0,0.0,0.0,0.0,0.0,0.0,0.0,0.0,0.0,0.0,0.0,0.0,0.0,0.0,0.0,0.0,0.0,0.0,0.0,0.0,0.0,0.0,0.0,0.0,0.0,0.0,0.0,0.0,0.0,0.0,0.0,0.0,0.0,0.0,0.0,0.0,0.0,0.0,0.0,0.0,0.0,2.0904,2.2265,2.2827,2.3604,2.4542,2.3109,2.123,0.0,0.0,0.0,0.0,0.0,0.0,0.0,0.0,0.0,0.0,0.0,0.0,0.0,0.0,0.0,0.0,0.0,0.0,0.0,0.0,0.0,0.0,0.0,0.0,0.0,0.0,0.0,0.0,0.0,0.0,0.0,0.0,0.0,0.0,0.0,0.0,0.0,0.0,0.0,0.0,0.0,0.0,0.0,0.0,0.0,0.0,0.0,0.0,0.0,0.0,0.0,0.0,0.0,0.0,0.0,0.0,0.0,0.0,0.0,0.0,0.0,0.0,0.0,0.0,0.0,0.0,0.0,0.0,0.0,0.0,0.0,0.0,0.0,0.0,0.0,0.0,0.0,0.0,0.0,0.0,0.0,0.0,0.0,0.0,0.0,0.0,0.0,0.0,0.0,0.0,0.0,0.0,0.0,0.0,0.0,0.0,0.0,0.0,0.0,0.0,0.0,0.0,0.0,0.0,0.0,0.0,0.0,1.9253,2.0887,2.2013,2.2783,2.3666,2.4706,2.3722,2.2221,2.0193,0.0,0.0,0.0,0.0,0.0,0.0,0.0,0.0,0.0,0.0,0.0,0.0,0.0,0.0,0.0,0.0,0.0,0.0,0.0,0.0,0.0,0.0,0.0,0.0,0.0,0.0,0.0,0.0,0.0,0.0,0.0,0.0,0.0,0.0,0.0,0.0,0.0,0.0,0.1524,0.2194,0.0,0.0,0.0,0.0,0.0,0.0,0.0,0.0,0.1506,0.0,0.0,0.0,0.0,0.0,0.0,0.0,0.0,0.0,0.0,0.0,0.0,0.0,0.0,0.0,0.0,0.0,0.0,0.0,0.0,0.0,0.0,0.0,0.0,0.0,0.0,0.0,0.0,0.0,0.0,0.0,0.0,0.0,0.0,0.0,0.0,0.0,0.0,0.0,0.0,0.0,0.0,0.0,0.0,0.0,0.0,0.0,0.0,0.0,0.0,0.0,0.0,0.0,0.0,0.0,0.0,1.8112,1.8553,1.9885,2.2264,2.2489,2.3224,2.4683,2.3352,2.1861,2.0259,0.0,0.0,0.0,0.0,0.0,0.0,0.0,0.0,0.0,0.0,0.0,0.0,0.0,0.0,0.0,0.0,0.0,0.0,0.0,0.0,0.0,0.0,0.0,0.0,0.0,0.0,0.0,0.0,0.0,0.0,0.0,0.0,0.0,0.0,0.0,0.0,0.0,0.0,0.0,0.2631,0.2942,0.0,0.0,0.0,0.0,0.0,0.0,0.0,0.0,-0.0075,0.0,0.0,0.0,0.0,0.0,0.0,0.0,0.0,0.0,0.0,0.0,0.0,0.0,0.0,0.0,0.0,0.0,0.0,0.0,0.0,0.0,0.0,0.0,0.0,0.0,0.0,0.0,0.0,0.0,0.0,0.0,0.0,0.0,0.0,0.0,0.0,0.0,0.0,0.0,0.0,0.0,0.0,0.0,0.0,0.0,0.0,0.0,0.0,0.0,0.0,0.0,0.0,0.0,0.0,0.0,1.7988,1.863,2.0053,2.2167,2.2381,2.2979,2.425,2.3143,2.1753,0.0,0.0,0.0,0.0,0.0,0.0,0.0,0.0,0.0,0.0,0.0,0.0,0.0,0.0,0.0,0.0,0.0,0.0,0.0,0.0,0.0,0.0,0.0,0.0,0.0,0.0,0.0,0.0,0.0,0.0,0.0,0.0,0.0,0.0,0.0,0.0,0.0,0.0,0.0,0.0,0.2314,0.2566,0.2401,0.0,0.0,0.0,0.0,0.0,0.0,-0.0158,-0.1026,0.0,0.0,0.0,0.0,0.0,0.0,0.0,0.0,0.0,0.0,0.0,0.0,0.0,0.0,0.0,0.0,0.0,0.0,0.0,0.0,0.0,0.0,0.0,0.0,0.0,0.0,0.0,0.0,0.0,0.0,0.0,0.0,0.0,0.0,0.0,0.0,0.0,0.0,0.0,0.0,0.0,0.0,0.0,0.0,0.0,0.0,0.0,0.0,0.0,0.0,0.0,0.0,0.0,0.0,0.0,1.7491,1.8596,2.0032,2.1659,2.2155,2.2756,2.3644,2.2958,2.1642,0.0,0.0,0.0,0.0,0.0,0.0,0.0,0.0,0.0,0.0,0.0,0.0,0.0,0.0,0.0,0.0,0.0,0.0,0.0,0.0,0.0,0.0,0.0,0.0,0.0,0.0,0.0,0.0,0.0,0.0,0.0,0.0,0.0,0.0,0.0,0.0,0.0,0.0,0.0,0.0,0.0,0.2252,0.2624,0.217,0.0,0.0,0.0,0.0,0.041,-0.0422,0.0,0.0,0.0,0.0,0.0,0.0,0.0,0.0,0.0,0.0,0.0,0.0,0.0,0.0,0.0,0.0,0.0,0.0,0.0,0.0,0.0,0.0,0.0,0.0,0.0,0.0,0.0,0.0,0.0,0.0,0.0,0.0,0.0,0.0,0.0,0.0,0.0,0.0,0.0,0.0,0.0,0.0,0.0,0.0,0.0,0.0,0.0,0.0,0.0,0.0,0.0,0.0,0.0,0.0,0.0,0.0,1.6782,1.7636,1.8877,2.0623,2.1451,2.2155,2.283,2.2542,2.1472,0.0,0.0,0.0,0.0,0.0,0.0,0.0,0.0,0.0,0.0,0.0,0.0,0.0,0.0,0.0,0.0,0.0,0.0,0.0,0.0,0.0,0.0,0.0,0.0,0.0,0.0,0.0,0.0,0.0,0.0,0.0,0.0,0.0,0.0,0.0,0.0,0.0,0.0,0.0,0.0,0.0,0.2228,0.3057,0.2575,0.2052,0.0,0.0,0.0825,0.1585,0.0844,0.0,0.0,0.0,0.0,0.0,0.0,0.0,0.0,0.0,0.0,0.0,0.0,0.0,0.0,0.0,0.0,0.0,0.0,0.0,0.0,0.0,0.0,0.0,0.0,0.0,0.0,0.0,0.0,0.0,0.0,0.0,0.0,0.0,0.0,0.0,0.0,0.0,0.0,0.0,0.0,0.0,0.0,0.0,0.0,0.0,0.0,0.0,0.0,0.0,0.0,0.0,0.0,0.0,0.0,0.0,1.5838,1.6567,1.7562,1.8863,2.0275,2.0857,2.1375,2.2004,2.1197,2.0074,0.0,0.0,0.0,0.0,0.0,0.0,0.0,0.0,0.0,0.0,0.0,0.0,0.0,0.0,0.0,0.0,0.0,0.0,0.0,0.0,0.0,0.0,0.0,0.0,0.0,0.0,0.0,0.0,0.0,0.0,0.0,0.0,0.0,0.0,0.0,0.0,0.0,0.0,0.0,0.0,0.0,0.0,0.2511,0.2116,0.0,0.0,0.0,0.0388,-0.0478,0.0,0.0,0.0,0.0,0.0,0.0,0.0,0.0,0.0,0.0,0.0,0.0,0.0,0.0,0.0,0.0,0.0,0.0,0.0,0.0,0.0,0.0,0.0,0.0,0.0,0.0,0.0,0.0,0.0,0.0,0.0,0.0,0.0,0.0,0.0,0.0,0.0,0.0,0.0,0.0,0.0,0.0,0.0,0.0,0.0,0.0,0.0,0.0,0.0,0.0,0.0,0.0,0.0,0.0,0.0,0.0,0.0,1.6376,1.7533,1.8738,1.9747,2.0157,2.0527,2.0971,2.0123,0.0,0.0,0.0,0.0,0.0,0.0,0.0,0.0,0.0,0.0,0.0,0.0,0.0,0.0,0.0,0.0,0.0,0.0,0.0,0.0,0.0,0.0,0.0,0.0,0.0,0.0,0.0,0.1695,0.0,0.0,0.0,0.0,0.0,0.0,0.0,0.0,0.0,0.0,0.0,0.0,0.0,0.0,0.0755,0.1919,0.1296,0.0513,0.0,0.0,-0.0609,-0.2084,-0.1421,-0.1113,0.0,0.0,0.0,0.0,0.0,0.0,0.0,0.0,0.0,0.0,0.0,0.0,0.0,0.0,0.0,0.0,0.0,0.0,0.0,0.0,0.0,0.0,0.0,0.0,0.0,0.0,0.0,0.0,0.0,0.0,0.0,0.0,0.0,0.0,0.0,0.0,0.0,0.0,0.0,0.0,0.0,0.0,0.0,0.0,0.0,0.0,0.0,0.0,0.0,0.0,0.0,0.0,0.0,0.0,0.0,1.5864,1.6974,1.7947,1.8816,1.9529,1.9904,1.9747,1.9993,1.9103,0.0,0.0,0.0,0.0,0.0,0.0,0.0,0.0,0.0,0.0,0.0,0.0,0.0,0.0,0.0,0.0,0.0,0.0,0.0,0.0,0.0,0.0,0.0,0.0,0.0,0.0,0.0,0.0,0.0,0.0,0.0,0.0,0.0,0.0,0.0,0.0,0.0,0.0,0.0,0.0,0.0,-0.0783,0.147,0.0103,-0.0854,0.0,0.0,-0.192,-0.1835,-0.1428,-0.1637,-0.3308,0.0,0.0,0.0,0.0,0.0,0.0,0.0,0.0,0.0,0.0,0.0,0.0,0.0,0.0,0.0,0.0,0.0,0.0,0.0,0.0,0.0,0.0,0.0,0.0,0.0,0.0,0.0,0.0,0.0,0.0,0.0,0.0,0.0,0.0,0.0,0.0,0.0,0.0,0.0,0.0,0.0,0.0,0.0,0.0,0.0,0.0,0.0,0.0,0.0,0.0,0.0,0.0,0.0,1.5383,1.6131,1.7151,1.7986,1.8674,1.9152,1.95,1.9758,1.9099,1.8193,0.0,0.0,0.0,0.0,0.0,0.0,0.0,0.0,0.0,0.0,0.0,0.0,0.0,0.0,0.0,0.0,0.0,0.0,0.0,0.0,0.0,0.0,0.0,0.0,0.0,0.0,0.0,0.0,0.1324,0.1402,0.0201,0.0,0.0,0.0,0.0,0.0,0.0,0.0,0.0,0.0,0.0,-0.1511,-0.0824,-0.0964,0.0,0.0,-0.2227,-0.2678,-0.3556,-0.3461,-0.3647,-0.4665,-0.5364,0.0,0.0,0.0,0.0,0.0,0.0,0.0,0.0,0.0,0.0,0.0,0.0,0.0,0.0,0.0,0.0,0.0,0.0,0.0,0.0,0.0,0.0,0.0,0.0,0.0,0.0,0.0,0.0,0.0,0.0,0.0,0.0,0.0,0.0,0.0,0.0,0.0,0.0,0.0,0.0,0.0,0.0,0.0,0.0,0.0,0.0,0.0,0.0,0.0,0.0,0.0,0.0,1.5679,1.6738,1.7692,1.8461,1.903,1.93,1.9426,1.9488,1.8753,1.7943,0.0,0.0,0.0,0.0,0.0,0.0,0.0,0.0,0.0,0.0,0.0,0.0,0.0,0.0,0.0,0.0,0.0,0.0,0.0,0.0,0.0,0.0,0.0,0.0,0.0,0.0,0.0,0.0,0.0398,0.0466,-0.0337,0.0,0.0,0.0,0.0,0.0,0.0,0.0,0.0,0.0,0.0,-0.2572,-0.2759,-0.2304,-0.2358,-0.3498,-0.3423,-0.367,-0.49,-0.5009,-0.5073,-0.5582,0.0,0.0,0.0,0.0,0.0,0.0,0.0,0.0,0.0,0.0,0.0,0.0,0.0,0.0,0.0,0.0,0.0,0.0,0.0,0.0,0.0,0.0,0.0,0.0,0.0,0.0,0.0,0.0,0.0,0.0,1.7535,0.0,0.0,0.0,0.0,0.0,0.0,0.0,0.0,0.0,0.0,0.0,0.0,0.0,0.0,0.0,0.0,0.0,0.0,0.0,0.0,0.0,0.0,1.6109,1.7716,1.86,1.9236,1.9652,2.0199,1.9883,1.8797,1.9175,1.8579,1.6743,0.0,0.0,0.0,0.0,0.0,0.0,0.0,0.0,0.0,0.0,0.0,0.0,0.0,0.0,0.0,0.0,0.0,0.0,0.0,0.0,0.0,0.0,0.0,0.0,0.0,0.0,-0.0195,-0.0068,-0.0069,0.0,0.0,0.0,0.0,0.0,0.0,0.0,0.0,0.0,0.0,-0.3807,-0.3975,-0.3621,-0.4063,-0.4402,-0.4929,-0.4943,-0.5199,-0.5506,-0.5635,-0.561,0.0,0.0,0.0,0.0,0.0,0.0,0.0,0.0,0.0,0.0,0.0,0.0,0.0,0.0,0.0,0.0,0.0,0.0,0.0,0.0,0.0,0.0,0.0,0.0,0.0,0.0,0.0,2.0959,2.0636,0.0,0.0,0.0,0.0,0.0,0.0,0.0,0.0,0.0,0.0,0.0,2.0856,2.0527,0.0,0.0,0.0,0.0,0.0,0.0,0.0,0.0,0.0,0.0,0.0,0.0,1.6553,1.7765,1.907,1.9893,2.0242,2.0384,2.0407,2.0278,1.9556,1.8196,1.6078,0.0,0.0,0.0,0.0,0.0,0.0,0.0,0.0,0.0,0.0,0.0,0.0,0.0,0.0,0.0,0.0,0.0,0.0,0.0,0.0,0.0,0.0,0.0,0.0,0.0,-0.1774,0.0,0.0,0.0,0.0,0.0,0.0,0.0,0.0,0.0,0.0,0.0,-0.3167,-0.3407,-0.374,-0.4012,-0.4484,-0.4495,-0.4578,0.0,0.0,0.0,0.0,0.0,0.0,0.0,0.0,0.0,0.0,0.0,0.0,0.0,0.0,-1.0667,-1.0611,-1.0676,-1.0943,-1.1582,0.0,0.0,0.0,0.0,0.0,0.0,0.0,0.0,0.0,0.0,0.0,0.0,0.0,0.0,2.3465,0.0,2.191,0.0,0.0,0.0,0.0,0.0,0.0,0.0,0.0,2.2612,2.3194,2.347,2.3255,2.2756,0.0,2.1204,1.9543,0.0,0.0,0.0,0.0,0.0,0.0,0.0,0.0,1.756,1.9054,2.0275,2.1043,2.1414,2.1147,2.0979,2.0829,1.9644,1.8189,1.6531,1.5339,1.3492,0.0,0.0,0.0,0.0,0.0,0.0,0.0,0.0,0.0,0.0,0.0,0.0,0.0,0.0,0.0,0.0,0.0,0.0,0.0,0.0,0.0,0.0,0.0,-0.1882,0.0,0.0,0.0,0.0,0.0,0.0,0.0,0.0,0.0,-0.2867,-0.3142,-0.342,-0.3668,-0.3948,-0.418,-0.4787,0.0,0.0,0.0,0.0,0.0,0.0,0.0,-0.7637,-0.848,-0.92,-0.9847,-1.0487,-1.1433,-1.2065,-1.225,0.0,0.0,-1.1916,-1.2,-1.2318,-1.2966,-1.2616,-1.2562,-1.3354,-1.4097,-1.474,0.0,0.0,0.0,0.0,0.0,0.0,0.0,0.0,2.7569,2.7203,0.0,2.4989,0.0,0.0,0.0,0.0,0.0,0.0,0.0,0.0,2.7251,2.7412,2.538,2.5444,2.5179,2.4564,2.3191,2.2113,2.1155,1.8869,0.0,0.0,0.0,0.0,0.0,0.0,1.9213,2.1335,2.215,2.2735,2.2819,2.237,2.1618,2.0447,1.9301,1.8443,1.7866,1.6163,1.4422,1.287,1.0545,0.0,0.0,0.0,0.0,0.0,0.0,0.0,0.0,0.0,0.0,0.0,0.0,0.0,0.0,0.0,0.0,0.0,0.0,0.0,0.0,-0.1573,0.0,0.0,0.0,0.0,0.0,0.0,0.0,0.0,0.0,0.0,-0.4226,-0.3677,-0.3458,-0.4199,0.0,0.0,0.0,0.0,-0.6055,-0.5906,-0.6399,-0.6924,-0.7271,-0.7456,-0.7842,-0.8869,0.0,0.0,-1.1942,-1.3611,-1.4345,-1.3636,-1.387,-1.3904,-1.2457,-1.3066,-1.382,-1.4013,-1.3917,-1.3996,-1.4411,-1.4861,-1.5558,3.4239,0.0,0.0,0.0,0.0,2.9848,3.0401,3.1491,3.0863,3.0147,2.9415,2.8168,0.0,0.0,0.0,0.0,0.0,0.0,2.6112,2.6516,2.7721,2.8536,2.8852,2.8812,2.8392,2.7677,2.6987,2.59,2.4557,2.31,2.0565,1.6943,0.0,0.0,0.0,0.0,1.9998,2.1404,2.2534,2.3092,2.3112,2.3027,2.2261,2.0789,1.9363,1.8253,1.7714,1.6979,1.5677,1.3579,1.2147,0.0,0.0,0.0,0.0,0.0,0.0,0.0,0.0,0.0,0.0,0.0,0.0,0.0,0.0,0.0,0.0,0.0,0.0,0.0,-0.169,-0.1836,-0.2034,0.0,0.0,0.0,0.0,0.0,0.0,0.0,0.0,0.0,-0.4466,-0.4254,-0.4438,0.0,0.0,-0.546,-0.6026,-0.6166,-0.616,-0.6063,-0.6484,0.0,0.0,-0.8598,-0.9645,-1.0038,-1.1408,-1.2861,-1.413,-1.492,-1.5271,-1.4939,-1.5072,-1.5044,-1.4695,-1.4134,-1.4032,-1.4307,-1.4168,-1.4043,-1.4622,-1.5414,-1.6285,3.7792,3.4626,3.3177,3.2674,3.2722,3.2546,3.3128,3.4143,3.3547,3.2961,3.2373,3.1228,3.0022,2.8921,2.773,0.0,0.0,0.0,2.8911,2.9501,2.9794,3.0278,3.0746,3.0608,3.0157,2.9588,2.8898,2.8027,2.6792,2.5355,2.2821,1.9285,0.0,0.0,1.8932,2.0078,2.108,2.1964,2.2855,2.3373,2.3288,2.2625,2.1699,2.0525,1.9124,1.818,1.7979,1.7387,1.6221,1.4414,1.2954,1.1079,0.0,0.0,0.0,0.0,0.0,0.0,0.0,0.0,0.0,0.0,0.0,0.1535,0.0708,0.0,0.0,0.0,-0.0864,-0.1386,-0.2125,-0.2181,0.0,0.0,0.0,0.0,0.0,0.0,0.0,-0.4515,-0.4314,-0.4279,-0.4548,-0.4736,-0.5033,-0.5218,-0.532,-0.5636,-0.6247,0.0,-0.6438,-0.6438,-0.7093,-0.7806,-0.8217,-0.972,-1.1157,-1.1976,-1.3279,-1.4437,-1.5465,-1.5659,-1.5678,-1.5668,-1.5611,-1.5564,-1.5564,-1.5006,-1.4605,-1.5073,-1.4883,-1.4709,-1.5045,-1.6059,-1.6746,4.0951,3.9372,3.6573,3.5388,3.5324,3.5324,3.5764,3.6453,3.5772,3.5594,3.5577,3.4121,3.3091,3.2475,3.1297,0.0,3.1395,3.1947,3.2465,3.3018,3.2758,3.2263,3.1461,3.1225,3.0913,3.0481,2.9568,2.8774,2.8068,2.623,2.4443,2.2757,2.183,2.1246,2.1036,2.1643,2.2251,2.2757,2.3202,2.3485,2.3418,2.1571,2.0382,1.9887,1.8719,1.8164,1.8381,1.74,1.6401,1.5101,1.3081,1.1197,0.9506,0.0,0.0,0.0,0.0,0.0,0.0,0.0,0.0,0.0,0.0,0.0,0.0,0.0,0.0,0.0,-0.2487,0.0,-0.2396,-0.2505,0.0,0.0,0.0,-0.3373,-0.3433,-0.3588,-0.3886,-0.4125,0.0,0.0,-0.4858,-0.5335,-0.5616,-0.5129,-0.5209,-0.544,-0.5915,-0.6515,-0.6855,-0.6895,-0.8108,-0.9154,-0.9563,-1.0887,-1.2429,-1.4032,-1.4745,-1.5113,-1.5953,-1.6046,-1.5923,-1.5923,-1.5772,-1.5687,-1.5668,-1.5687,-1.5715,-1.5895,-1.5753,-1.5668,-1.5857,-1.6501,-1.696,4.133,4.0786,3.9567,3.8635,3.8089,3.8269,3.8368,3.8351,3.8187,3.7622,3.6685,3.6198,3.5219,3.3979,3.3754,3.3383,3.2855,3.3789,3.3749,3.2984,3.3186,3.2863,3.2191,3.2027,3.1675,3.1309,3.0782,2.9758,2.8323,2.8028,2.6348,2.3515,2.3743,2.29,2.0878,2.1345,2.2129,2.3071,2.3183,2.3157,2.3055,2.1675,2.0517,1.9865,1.8776,1.7995,1.7606,1.7294,1.6501,1.5106,1.3525,1.1958,1.0346,0.7808,0.0,0.0,0.0,0.0,0.0,0.0,0.0,0.0,0.0,-0.1352,-0.1525,0.0,-0.1626,0.0,-0.1984,-0.1886,-0.2277,-0.2313,0.0,0.0,-0.3337,-0.3616,-0.402,-0.4124,-0.4272,-0.4515,-0.5251,-0.5934,-0.6131,-0.7093,-0.7755,-0.7964,-0.7057,-0.6472,-0.6828,-0.768,-0.8302,-0.8439,-0.9297,-1.0149,-1.0657,-1.1952,-1.3467,-1.5008,-1.5416,-1.5557,-1.6178,-1.6273,-1.6339,-1.6339,-1.6443,-1.65,-1.6481,-1.6509,-1.6509,-1.6547,-1.6292,-1.6093,-1.6292,-1.6702,-1.6923,4.2272,4.1435,4.1214,4.0456,3.9413,3.9729,3.9749,3.9525,3.9473,3.8851,3.7737,3.7399,3.6717,3.5845,3.5931,3.5577,3.4973,3.5615,3.5241,3.4178,3.3965,3.3492,3.2889,3.23,3.1963,3.1743,3.1149,3.019,2.8978,2.845,2.7116,2.5104,2.4932,2.3892,2.2213,2.1844,2.1839,2.1964,2.2404,2.2612,2.268,2.1216,2.0008,1.9191,1.7751,1.6733,1.6258,1.5965,1.5127,1.398,1.2768,1.1493,1.0094,0.7606,0.5745,0.0,0.0,0.0,0.0,0.0,0.0,0.0,0.0,0.0,0.0,0.0,-0.1741,-0.272,-0.26,-0.2586,-0.2921,-0.2959,-0.3118,-0.3544,-0.3722,-0.3902,-0.4206,-0.4302,-0.4455,-0.4481,-0.5485,-0.6239,-0.6498,-0.7702,-0.8552,-0.9088,-0.8508,-0.8223,-0.8419,-0.889,-0.9267,-0.9452,-1.0509,-1.1812,-1.2813,-1.3523,-1.4398,-1.5685,-1.5809,-1.5772,-1.6301,-1.6405,-1.6481,-1.649,-1.6585,-1.6698,-1.6783,-1.6802,-1.6821,-1.6887,-1.6755,-1.6623,-1.6623,-1.6717,-1.6802,4.3219,4.1764,4.215,4.1445,4.0117,4.0561,4.0368,3.9783,3.9799,3.9254,3.827,3.7886,3.7567,3.748,3.7539,3.7421,3.7089,3.7181,3.6693,3.5785,3.4883,3.4148,3.3422,3.2444,3.189,3.1817,3.1075,3.0266,2.9549,2.8259,2.7273,2.6474,2.5476,2.4525,2.3582,2.2617,2.1606,2.0554,2.1369,2.1901,2.2013,2.0367,1.8989,1.8039,1.6281,1.5193,1.4836,1.4135,1.3297,1.2215,1.1273,1.0323,0.9308,0.6885,0.522,0.0,0.3298,0.0,0.0,0.0,0.0,0.0,0.0,0.0,0.0,-0.1391,-0.2177,-0.329,-0.3535,-0.3601,-0.3891,-0.3786,-0.3828,-0.3931,-0.3989,-0.4039,-0.4224,-0.4275,-0.4305,-0.4305,-0.5379,-0.6176,-0.6698,-0.8041,-0.9105,-0.9643,-1.0143,-1.0354,-1.0399,-1.0289,-1.0228,-1.0493,-1.1795,-1.3448,-1.4938,-1.5176,-1.5352,-1.6224,-1.6205,-1.6007,-1.649,-1.6556,-1.6575,-1.6575,-1.6632,-1.6698,-1.6859,-1.6897,-1.6953,-1.7114,-1.7123,-1.7067,-1.6944,-1.6906,-1.6878,4.3403,4.2411,4.2526,4.2289,4.1868,4.2125,4.0696,3.8137,3.8157,3.7622,3.6915,3.743,3.7508,3.7298,3.777,3.7886,3.7679,3.8197,3.7732,3.6569,3.5793,3.4728,3.3422,3.2417,3.1817,3.1596,3.0823,2.9806,2.8664,2.8778,2.7326,2.4567,2.5248,2.4247,2.1878,0.0,0.0,0.0,2.0912,2.0671,1.9713,1.8349,1.7063,1.6069,1.5136,0.0,1.3778,1.3051,1.2194,1.1182,1.001,0.0,0.0,0.0,0.0,0.0,0.0,0.0,0.0,0.0,0.0,0.0,-0.2233,-0.2109,-0.1892,-0.2207,-0.2692,-0.2995,-0.3109,-0.3255,-0.3747,-0.3502,-0.3528,-0.3848,-0.3863,-0.4008,-0.4289,-0.43,-0.4305,-0.4308,-0.6046,-0.7507,-0.8163,-0.9896,-1.138,-1.1931,-1.2311,-1.2601,-1.2612,-1.2037,-1.1622,-1.1917,-1.3365,-1.4673,-1.5434,-1.5717,-1.5942,-1.6415,-1.6462,-1.6509,-1.6708,-1.6878,-1.6982,-1.6972,-1.7123,-1.7237,-1.7294,-1.7303,-1.7294,-1.736,-1.736,-1.736,-1.7312,-1.7606,-1.7757,4.4297,0.0,4.3141,4.269,0.0,4.2088,4.079,3.8511,3.9487,3.915,3.7886,3.8034,3.7796,3.7329,3.7128,3.688,3.6672,3.6236,3.5672,3.5085,3.4257,3.36,3.3101,3.2155,3.1803,3.1947,3.1189,3.036,2.9464,2.9154,2.7901,2.568,2.5776,2.4961,2.3486,2.2925,2.2355,2.1582,2.0966,2.0332,1.9765,1.8696,1.7485,1.6077,0.0,0.0,0.0,0.0,0.0,0.0,0.0,0.0,0.0,0.0,0.0,0.4601,0.3674,0.2433,0.1076,-0.0329,-0.1234,-0.1507,-0.2006,-0.2326,-0.2198,-0.2476,-0.2762,-0.3013,-0.325,-0.3512,-0.3983,-0.3863,-0.3875,-0.4034,-0.4037,-0.4171,-0.4305,-0.4305,-0.4577,-0.5121,-0.6757,-0.8262,-0.9355,-1.1028,-1.2419,-1.2974,-1.3254,-1.3392,-1.3758,-1.3424,-1.3271,-1.3904,-1.4576,-1.5363,-1.602,-1.6337,-1.6556,-1.6736,-1.6793,-1.6831,-1.6934,-1.7038,-1.7105,-1.7114,-1.7199,-1.7294,-1.7407,-1.7426,-1.7426,-1.7426,-1.7426,-1.7426,-1.7426,-1.7578,-1.7731,4.5146,4.3687,4.3654,4.2719,4.1308,4.1558,4.082,3.9546,0.0,0.0,0.0,3.8861,3.8365,3.7736,3.6773,3.6253,3.6013,3.4698,3.4074,3.401,3.3146,3.2835,3.2935,3.2186,3.2053,3.2429,3.1759,3.1095,3.0514,2.9518,2.8562,2.7415,2.6361,2.5734,2.5275,2.3719,2.2564,2.2073,2.07,2.0039,1.9937,1.8964,1.7764,1.639,1.4483,1.3247,1.2756,1.1487,1.0697,1.0484,0.9229,0.8385,0.8143,0.592,0.4593,0.4508,0.3754,0.2871,0.2092,-0.0,-0.0968,-0.0496,-0.1275,-0.2008,-0.2206,-0.2483,-0.2748,-0.3222,-0.3461,-0.3853,-0.4303,-0.4305,-0.4305,-0.4305,-0.4305,-0.4311,-0.4322,-0.4591,-0.514,-0.6103,-0.765,-0.9206,-1.0346,-1.1783,-1.2956,-1.3247,-1.3498,-1.3817,-1.4131,-1.4271,-1.4613,-1.5524,-1.5516,-1.584,-1.6527,-1.6812,-1.6897,-1.7029,-1.7086,-1.7114,-1.7152,-1.7161,-1.7161,-1.718,-1.7161,-1.7246,-1.7388,-1.7426,-1.7426,-1.7426,-1.7426,-1.7426,-1.7426,-1.7454,-1.7636,4.5179,4.3686,4.3427,4.2359,4.0978,4.1072,4.0876,4.0431,3.9895,3.9242,3.8674,3.9154,3.9251,3.8999,3.8028,3.7873,3.8435,3.7406,3.6804,0.0,3.5689,3.488,3.4101,3.3188,3.2725,3.2647,3.2171,3.1417,3.042,2.9612,2.8634,2.7409,2.6479,2.545,2.4313,2.3138,2.208,2.1103,1.9502,1.8409,1.766,1.633,1.545,1.4908,1.3111,1.2064,1.1952,1.0509,0.9646,0.9701,0.8621,0.7985,0.7797,0.6012,0.4925,0.4671,0.4082,0.3415,0.2565,0.2131,0.1275,-0.0256,-0.0651,-0.1173,-0.2059,-0.2475,-0.2778,-0.3222,-0.349,-0.3895,-0.4305,-0.4305,-0.4305,-0.4308,-0.4308,-0.4327,-0.4513,-0.5607,-0.6445,-0.6794,-0.8894,-1.0429,-1.1145,-1.2131,-1.2988,-1.3271,-1.3702,-1.3891,-1.4534,-1.4819,-1.5195,-1.5703,-1.583,-1.6131,-1.6655,-1.6861,-1.6953,-1.7067,-1.7123,-1.718,-1.7331,-1.735,-1.735,-1.7369,-1.736,-1.7379,-1.7426,-1.7426,-1.7426,-1.7426,-1.7426,-1.7426,-1.7445,-1.7568,-1.8154,4.5688,4.4413,4.4281,4.3295,4.1852,4.1572,4.1279,4.1048,4.0313,3.9723,3.9376,3.9754,3.9532,3.8741,3.7643,3.7136,3.705,3.5666,3.5224,3.5478,3.4478,3.4038,3.4044,3.3378,3.3014,3.2982,3.2495,3.1797,3.0903,2.9866,2.8719,2.7471,2.6184,2.4922,2.3935,2.2837,2.181,2.0877,1.9493,1.8358,1.7463,1.6599,1.6014,1.5399,1.3667,1.2664,1.2346,1.0974,1.0202,1.0052,0.9245,0.8363,0.7746,0.6287,0.5286,0.4642,0.4247,0.3794,0.3413,0.2707,0.156,-0.0,-0.0527,-0.1062,-0.1841,-0.2388,-0.2942,-0.3495,-0.3765,-0.3902,-0.4305,-0.4305,-0.4305,-0.4305,-0.447,-0.4907,-0.5618,-0.6485,-0.7507,-0.8831,-1.0132,-1.144,-1.2078,-1.2943,-1.352,-1.3949,-1.4305,-1.4742,-1.5,-1.5552,-1.5739,-1.5988,-1.6131,-1.6359,-1.6706,-1.6972,-1.719,-1.7265,-1.7275,-1.7322,-1.7416,-1.7426,-1.7426,-1.7426,-1.7426,-1.7426,-1.7426,-1.7426,-1.7426,-1.7426,-1.7426,-1.7454,-1.7577,-1.829,-1.925,4.5885,4.4717,4.4543,4.3635,4.223,4.1637,4.1188,4.0861,4.0527,4.0086,3.9739,3.9977,3.9601,3.858,3.7241,3.6379,3.5851,3.424,3.3817,3.4372,3.3522,3.3456,3.3909,3.3463,3.33,3.3307,3.281,3.2276,3.1488,3.0147,2.8588,2.7125,2.5411,2.4233,2.3456,2.2316,2.1232,2.0147,1.9226,1.8254,1.7252,1.6842,1.6242,1.5325,1.3909,1.3059,1.2569,1.15,1.0705,1.0524,0.9708,0.8791,0.7758,0.6512,0.5361,0.4687,0.4243,0.4153,0.3906,0.2894,0.1581,0.013,-0.0664,-0.134,-0.1993,-0.2541,-0.3232,-0.3633,-0.3902,-0.4037,-0.4305,-0.4305,-0.4305,-0.4311,-0.5036,-0.5765,-0.6607,-0.7654,-0.8868,-1.0633,-1.1537,-1.2462,-1.3128,-1.3603,-1.4047,-1.4508,-1.5105,-1.548,-1.554,-1.604,-1.6267,-1.614,-1.6398,-1.6701,-1.6904,-1.7093,-1.7407,-1.7426,-1.7416,-1.7416,-1.7426,-1.7426,-1.7426,-1.7426,-1.7426,-1.7426,-1.7426,-1.7426,-1.7426,-1.7426,-1.7426,-1.7501,-1.7766,-1.8632,-1.9661,4.5173,4.3704,4.3271,4.2198,4.0956,4.0451,3.9945,3.9478,3.953,3.9194,3.8679,3.9403,3.9556,3.9223,3.7463,3.6876,3.7336,3.5746,3.4998,3.5197,3.4982,3.4682,3.4327,3.4048,3.385,3.3623,3.3224,3.271,3.2001,3.0237,2.8121,2.5703,2.4332,2.3356,2.2249,2.142,1.9881,1.7822,1.7391,1.6845,1.6086,1.5553,1.4581,1.3377,1.2488,1.1898,1.1705,1.0847,1.0469,1.0377,0.9334,0.8497,0.7846,0.6402,0.5192,0.4628,0.4305,0.4097,0.3746,0.3086,0.1876,0.0134,-0.0671,-0.1748,-0.336,-0.3631,-0.3768,-0.3902,-0.4037,-0.4305,-0.4305,-0.4305,-0.4308,-0.4585,-0.5719,-0.6602,-0.7243,-0.9439,-1.1261,-1.1395,-1.2731,-1.3745,-1.3785,-1.3928,-1.4121,-1.4703,-1.5272,-1.5686,-1.5869,-1.6238,-1.646,-1.6409,-1.6615,-1.7049,-1.7217,-1.7416,-1.7435,-1.7435,-1.7435,-1.7464,-1.7483,-1.7483,-1.7435,-1.7549,-1.7473,-1.7492,-1.7473,-1.7426,-1.7454,-1.752,-1.753,-1.7568,-1.7898,-1.8227,-1.863,4.4847,4.3579,4.3395,4.2574,4.1463,4.0412,3.9772,3.9272,3.8875,3.8337,3.7827,3.8188,3.8551,3.8694,3.7659,3.711,3.6872,3.5916,3.5412,3.5223,3.4812,3.4481,3.4256,3.3979,3.3641,3.3326,3.2982,3.2376,3.1092,2.912,2.69,2.4827,2.3943,2.2826,2.1133,2.0104,1.8644,1.6894,1.5923,1.4866,1.4013,1.4002,1.3608,1.2683,1.2012,1.1486,1.1109,1.0623,1.0009,0.9123,0.8914,0.8033,0.658,0.5859,0.5165,0.4134,0.3689,0.3343,0.2823,0.2422,0.1346,-0.0134,-0.0942,-0.1884,-0.2961,-0.3499,-0.3902,-0.4037,-0.4171,-0.4305,-0.4308,-0.444,-0.4723,-0.5444,-0.6602,-0.7798,-0.9165,-1.0921,-1.2244,-1.3032,-1.3712,-1.4205,-1.4196,-1.4558,-1.472,-1.5147,-1.5567,-1.6077,-1.6283,-1.6655,-1.6898,-1.6894,-1.7189,-1.718,-1.7093,-1.7264,-1.7473,-1.7568,-1.7605,-1.7624,-1.7747,-1.7794,-1.7794,-1.7785,-1.7766,-1.7766,-1.7813,-1.7794,-1.7794,-1.7785,-1.7908,-1.8012,-1.805,-1.8144,-1.8615,4.4595,4.3648,4.312,4.2386,4.1478,4.0238,3.9423,3.8889,3.8279,3.759,3.6905,3.7071,3.7123,3.7282,3.7113,3.6744,3.6138,3.5629,3.5223,3.4895,3.4481,3.4147,3.3894,3.3641,3.33,3.2982,3.2351,3.1116,2.939,2.7799,2.5819,2.3976,2.3065,2.173,2.0026,1.8631,1.7117,1.5716,1.4489,1.327,1.2267,1.2043,1.1902,1.176,1.1405,1.0973,1.0435,1.0073,0.942,0.8216,0.8022,0.7242,0.5621,0.5272,0.4574,0.3658,0.3191,0.2689,0.1881,0.121,0.0269,-0.0947,-0.1755,-0.2426,-0.3109,-0.3654,-0.4062,-0.4335,-0.4346,-0.4354,-0.4468,-0.475,-0.5328,-0.6206,-0.753,-0.9159,-1.0665,-1.2072,-1.3275,-1.4043,-1.4302,-1.4408,-1.4359,-1.4683,-1.5095,-1.5103,-1.5802,-1.6424,-1.6637,-1.6907,-1.7256,-1.7398,-1.7426,-1.7264,-1.7102,-1.733,-1.7577,-1.7672,-1.7747,-1.7861,-1.8021,-1.8031,-1.804,-1.7927,-1.8012,-1.8031,-1.7965,-1.8002,-1.805,-1.8078,-1.8163,-1.8408,-1.8172,-1.8427,-1.9374,4.4449,4.346,4.1849,4.0916,4.0287,3.9414,3.8647,3.8075,3.7528,3.692,3.6358,3.6131,3.5618,3.5103,3.5599,3.5656,3.5386,3.4895,3.4564,3.4314,3.4147,3.381,3.3411,3.324,3.2896,3.2351,3.127,2.9205,2.6605,2.6172,2.4914,2.2699,2.1079,1.9699,1.8574,1.6806,1.5091,1.4023,1.3227,1.2124,1.0846,0.9654,0.9466,0.9961,1.0066,1.001,0.9768,0.8952,0.8465,0.8343,0.6662,0.5624,0.55,0.438,0.3528,0.3208,0.2553,0.1882,0.1076,-0.0135,-0.1352,-0.2458,-0.3119,-0.3789,-0.4098,-0.424,-0.4379,-0.4392,-0.4431,-0.458,-0.4962,-0.4986,-0.5577,-0.6852,-0.8464,-0.9936,-1.0959,-1.2805,-1.4011,-1.4213,-1.4367,-1.4432,-1.4261,-1.4463,-1.4863,-1.5302,-1.5771,-1.6323,-1.6802,-1.7084,-1.7407,-1.7416,-1.7435,-1.7426,-1.7435,-1.7501,-1.7634,-1.7785,-1.7898,-1.804,-1.804,-1.805,-1.8068,-1.8078,-1.8135,-1.8135,-1.8078,-1.8068,-1.8097,-1.8125,-1.8303,-1.835,-1.8736,-1.9573,-2.0506,4.2675,4.1531,4.0664,4.0035,3.9435,3.9111,3.837,3.7404,3.7227,3.659,3.5669,3.5723,3.5302,3.4413,3.4502,3.4168,3.3641,3.3784,3.3615,3.3079,3.2846,3.2587,3.2239,3.1424,3.0866,3.0508,2.9875,2.8258,2.582,2.3925,2.2199,2.0986,1.9444,1.8069,1.6771,1.5544,1.4192,1.2839,1.2132,1.1086,0.968,0.8842,0.8453,0.8049,0.8418,0.8441,0.7989,0.7994,0.7664,0.6616,0.5922,0.5093,0.4377,0.3512,0.2769,0.2146,0.1479,0.054,-0.0544,-0.1362,-0.232,-0.3428,-0.3693,-0.3947,-0.4208,-0.4341,-0.4354,-0.4401,-0.445,-0.4759,-0.5207,-0.5481,-0.6185,-0.8053,-0.8938,-1.0272,-1.1952,-1.3442,-1.4067,-1.4351,-1.4578,-1.4741,-1.4769,-1.5083,-1.5354,-1.5754,-1.6229,-1.6731,-1.7,-1.7273,-1.7435,-1.7454,-1.753,-1.7568,-1.7426,-1.7473,-1.7587,-1.7842,-1.8031,-1.822,-1.8295,-1.8371,-1.8418,-1.839,-1.839,-1.838,-1.8361,-1.8371,-1.8352,-1.8267,-1.8606,-1.8955,-1.9634,-2.0463,-2.1667,4.1579,4.034,3.9826,3.9336,3.8754,3.8512,3.7855,3.7006,3.6674,3.6061,3.5255,3.508,3.4499,3.3712,3.3359,3.2787,3.2154,3.2754,3.2843,3.2285,3.2106,3.177,3.1407,3.0537,2.9982,2.9564,2.8567,2.6693,2.3971,2.1876,2.0342,1.9125,1.797,1.6774,1.5311,1.4143,1.2946,1.1752,1.0785,0.9687,0.8599,0.7867,0.7276,0.6566,0.6575,0.6803,0.6893,0.705,0.6731,0.5674,0.511,0.4389,0.3377,0.3027,0.2265,0.1343,0.0538,-0.0405,-0.1771,-0.2464,-0.3164,-0.4008,-0.4146,-0.4134,-0.4392,-0.4529,-0.4555,-0.4597,-0.4788,-0.5273,-0.573,-0.6155,-0.7287,-0.9166,-0.9877,-1.0902,-1.3024,-1.3672,-1.4203,-1.4578,-1.4741,-1.4854,-1.5151,-1.536,-1.565,-1.6072,-1.6505,-1.7002,-1.7046,-1.7339,-1.752,-1.7539,-1.7634,-1.769,-1.7681,-1.7728,-1.7662,-1.7851,-1.8201,-1.8399,-1.8494,-1.8607,-1.8673,-1.8673,-1.8673,-1.8673,-1.8673,-1.8673,-1.8598,-1.8646,-1.8817,-1.917,-2.0107,-2.1337,-2.2556,4.1045,3.9997,3.9303,3.8697,3.8159,3.7693,3.7167,3.6573,3.5933,3.527,3.4662,3.3983,3.3076,3.246,3.2075,3.151,3.1031,3.178,3.2277,3.209,3.1808,3.1453,3.0976,3.0452,2.985,2.9342,2.7279,2.4164,2.0803,2.012,1.9125,1.7542,1.6328,1.5171,1.4391,1.2346,1.1148,1.0543,0.9329,0.836,0.775,0.6775,0.5961,0.5408,0.4665,0.5011,0.6667,0.6006,0.5552,0.5315,0.4354,0.3377,0.2771,0.2673,0.2289,0.054,-0.027,-0.1213,-0.2569,-0.3422,-0.4023,-0.4332,-0.4482,-0.4499,-0.4662,-0.4961,-0.497,-0.4843,-0.532,-0.5812,-0.6119,-0.7327,-0.8649,-0.9902,-1.1025,-1.2208,-1.3259,-1.3929,-1.4554,-1.4814,-1.483,-1.4875,-1.5127,-1.5334,-1.5475,-1.609,-1.6491,-1.6867,-1.695,-1.7232,-1.7672,-1.769,-1.77,-1.7728,-1.7889,-1.8031,-1.7898,-1.7879,-1.8276,-1.856,-1.8532,-1.8588,-1.8664,-1.8673,-1.8673,-1.8673,-1.8673,-1.8673,-1.8673,-1.877,-1.899,-1.9795,-2.0867,-2.2099,-2.3413,3.9367,3.8941,3.8442,3.8041,3.7642,3.7697,3.6892,3.5402,3.4988,3.3994,3.2769,3.1936,3.1374,3.096,3.053,3.0158,2.9848,2.9989,3.0478,3.1009,3.063,2.9927,2.9141,2.8145,2.6672,2.4954,2.3408,2.1506,1.9509,1.794,1.6448,1.5078,1.3708,1.2577,1.1736,1.0528,0.9808,0.9451,0.872,0.7905,0.674,0.6251,0.5545,0.46,0.4226,0.4339,0.4959,0.4725,0.4503,0.4544,0.4047,0.3041,0.1755,0.1362,0.0274,-0.152,-0.2076,-0.2642,-0.3785,-0.4221,-0.4379,-0.454,-0.4829,-0.4955,-0.4938,-0.5222,-0.5386,-0.5279,-0.5594,-0.5781,-0.6612,-0.8269,-0.9719,-1.0179,-1.1332,-1.2582,-1.3712,-1.4252,-1.4635,-1.4765,-1.4838,-1.5031,-1.5455,-1.5479,-1.5887,-1.6339,-1.6821,-1.6972,-1.7255,-1.7358,-1.752,-1.752,-1.7615,-1.7785,-1.7936,-1.8106,-1.8125,-1.8078,-1.8361,-1.855,-1.8541,-1.8579,-1.8645,-1.8673,-1.8673,-1.8673,-1.8673,-1.8673,-1.8673,-1.9316,-2.012,-2.092,-2.1889,-2.3015,-2.4295,3.8736,3.8403,3.8221,3.7922,3.7472,3.7522,3.6685,3.519,3.4396,3.3254,3.1884,3.0978,3.0475,3.0037,2.9618,2.9303,2.9217,2.8794,2.877,2.9063,2.9042,2.8411,2.7673,2.6237,2.4225,2.196,2.0982,1.9555,1.7565,1.6035,1.4549,1.324,1.1927,1.102,1.0044,0.9195,0.8593,0.8227,0.7622,0.6694,0.5773,0.5416,0.4849,0.4302,0.4172,0.3932,0.3581,0.3426,0.341,0.343,0.2924,0.1754,0.0274,-0.0,-0.0833,-0.2237,-0.2805,-0.3375,-0.4254,-0.4409,-0.4572,-0.4718,-0.4884,-0.5027,-0.4988,-0.5402,-0.5713,-0.546,-0.5935,-0.6272,-0.6802,-0.8969,-1.0287,-1.062,-1.2065,-1.3208,-1.4252,-1.457,-1.4732,-1.4797,-1.499,-1.5362,-1.5684,-1.6037,-1.6304,-1.6885,-1.7227,-1.736,-1.7501,-1.7549,-1.7558,-1.7587,-1.769,-1.7842,-1.7983,-1.8144,-1.8314,-1.8352,-1.8437,-1.8494,-1.8494,-1.8588,-1.8673,-1.8673,-1.8673,-1.8673,-1.8673,-1.8673,-1.8837,-1.9805,-2.0931,-2.1728,-2.2533,-2.3816,-2.4945,3.8816,3.8315,3.8291,3.8031,3.769,3.7012,3.614,3.5482,3.412,3.2878,3.1846,3.0694,3.0003,2.957,2.8866,2.8437,2.832,2.7783,2.6881,2.6426,2.6389,2.6461,2.5992,2.4648,2.2514,2.0215,1.9738,1.8045,1.5214,1.4539,1.3447,1.1711,1.0884,1.0286,0.9323,0.8349,0.7638,0.7158,0.6179,0.5489,0.5063,0.456,0.4134,0.416,0.3996,0.3495,0.2617,0.2176,0.2136,0.2254,0.1217,0.0137,-0.0963,-0.0974,-0.1403,-0.253,-0.281,-0.3381,-0.3951,-0.4419,-0.4586,-0.4591,-0.4774,-0.481,-0.4939,-0.5509,-0.5801,-0.5673,-0.6308,-0.6806,-0.7137,-0.9195,-1.0769,-1.1333,-1.2962,-1.4231,-1.4692,-1.4732,-1.4806,-1.504,-1.5286,-1.553,-1.6177,-1.6348,-1.6821,-1.7227,-1.7539,-1.7596,-1.7662,-1.7681,-1.7813,-1.7832,-1.7813,-1.7936,-1.8078,-1.8201,-1.8361,-1.8503,-1.8541,-1.8522,-1.8522,-1.8617,-1.8673,-1.8673,-1.8673,-1.8673,-1.8837,-1.9,-1.9316,-2.0282,-2.1254,-2.205,-2.3336,-2.4627,-2.5422,3.7501,3.6231,3.6688,3.6796,3.6688,3.6036,3.5154,3.4186,3.2844,3.1552,3.0238,2.9545,2.8611,2.7492,2.6911,2.625,2.5577,2.4805,2.4251,2.3731,2.3054,2.2958,2.2702,2.1684,1.98,1.7749,1.7158,1.5664,1.3095,1.261,1.1687,1.0286,0.9451,0.8604,0.7633,0.6974,0.6509,0.6398,0.5831,0.5383,0.5059,0.4556,0.397,0.3127,0.2993,0.2469,0.1397,0.0413,0.0136,0.094,0.0412,-0.0554,-0.1793,-0.2245,-0.284,-0.3701,-0.4016,-0.4181,-0.4472,-0.463,-0.4638,-0.464,-0.4956,-0.5247,-0.5538,-0.5683,-0.5974,-0.6268,-0.6727,-0.6771,-0.7273,-0.9473,-1.1521,-1.3416,-1.4176,-1.47,-1.483,-1.4903,-1.5072,-1.5412,-1.5531,-1.5845,-1.6312,-1.6761,-1.6885,-1.7264,-1.7492,-1.7605,-1.77,-1.7653,-1.77,-1.787,-1.7927,-1.805,-1.8172,-1.8286,-1.8418,-1.8588,-1.8636,-1.8607,-1.8607,-1.8654,-1.8673,-1.8673,-1.8673,-1.8673,-1.9153,-1.9316,-1.9957,-2.0444,-2.205,-2.3175,-2.4148,-2.5263,-2.5753,3.7073,3.6449,3.5904,3.5927,3.6036,3.4914,3.3982,3.321,3.1932,3.0443,2.9089,2.8214,2.7186,2.5908,2.5294,2.4343,2.3371,2.2731,2.1803,2.0447,1.914,1.8946,1.9229,1.8468,1.6938,1.5063,1.4718,1.3398,1.1607,1.0899,1.0086,0.9038,0.806,0.7351,0.6916,0.6328,0.6108,0.5986,0.5266,0.4671,0.447,0.3446,0.2699,0.1928,0.1662,0.0974,-0.014,-0.1265,-0.1536,-0.0965,-0.1382,-0.2225,-0.3077,-0.3539,-0.3868,-0.4464,-0.4501,-0.4662,-0.4525,-0.4684,-0.4994,-0.5443,-0.575,-0.6216,-0.6798,-0.7068,-0.7478,-0.7925,-0.792,-0.8117,-0.881,-1.0601,-1.2712,-1.4334,-1.4814,-1.483,-1.4862,-1.4838,-1.5048,-1.5242,-1.5735,-1.605,-1.6501,-1.6806,-1.7111,-1.7273,-1.7426,-1.7615,-1.7785,-1.7653,-1.7681,-1.7955,-1.805,-1.8125,-1.8239,-1.8352,-1.839,-1.856,-1.8569,-1.8569,-1.8645,-1.8645,-1.8588,-1.8579,-1.8636,-1.8818,-1.9095,-1.942,-1.9805,-2.0607,-2.2533,-2.3816,-2.4467,-2.5581,-2.607,3.7203,3.7227,3.5466,3.5135,3.5356,3.3797,3.2871,3.2436,3.1129,2.9773,2.8327,2.7217,2.5982,2.459,2.3754,2.2946,2.1626,2.1208,1.9663,1.7678,1.6038,1.5645,1.6436,1.5926,1.461,1.3054,1.2647,1.1704,1.04,0.9522,0.8829,0.8171,0.719,0.6733,0.666,0.631,0.6194,0.5941,0.4544,0.3539,0.3051,0.1745,0.1093,0.0839,-0.0,-0.0705,-0.1701,-0.2718,-0.3013,-0.2674,-0.3477,-0.3923,-0.4416,-0.4422,-0.4597,-0.4635,-0.4942,-0.4953,-0.4668,-0.5143,-0.5628,-0.6522,-0.7033,-0.7398,-0.8258,-0.8493,-0.8582,-0.916,-0.9759,-0.9787,-1.0828,-1.2126,-1.3465,-1.4573,-1.4911,-1.4854,-1.4757,-1.4724,-1.4797,-1.5089,-1.5735,-1.6203,-1.651,-1.6815,-1.7426,-1.7435,-1.7483,-1.7681,-1.7842,-1.7842,-1.7993,-1.8295,-1.8286,-1.8182,-1.8295,-1.8409,-1.8428,-1.8484,-1.8437,-1.8456,-1.8588,-1.8588,-1.8475,-1.8437,-1.8475,-1.8475,-1.8608,-1.8979,-1.9592,-2.0769,-2.2372,-2.3496,-2.4295,-2.5581,-2.6386,3.5201,3.3459,3.3459,3.3459,3.3346,3.2436,3.2092,3.1747,2.9884,2.8646,2.786,2.6747,2.4971,2.2921,2.2153,2.1257,1.9839,1.8638,1.7202,1.6011,1.4519,1.3751,1.3775,1.3642,1.3146,1.2017,1.1658,1.0656,0.94,0.8884,0.8419,0.7679,0.7179,0.6933,0.6713,0.6398,0.6296,0.5912,0.4369,0.2811,0.1621,0.0953,0.0277,-0.0425,-0.1578,-0.2311,-0.2885,-0.4313,-0.5027,-0.4895,-0.4459,-0.4427,-0.4548,-0.4737,-0.5198,-0.5764,-0.5942,-0.6402,-0.6986,-0.6716,-0.6893,-0.7855,-0.8642,-0.9128,-0.89,-0.8845,-0.8933,-0.9329,-0.9243,-1.0181,-1.1735,-1.2519,-1.355,-1.4509,-1.4797,-1.4781,-1.4749,-1.5126,-1.5362,-1.5565,-1.6195,-1.6653,-1.6653,-1.6968,-1.7435,-1.7445,-1.7587,-1.7766,-1.7879,-1.7974,-1.822,-1.8494,-1.8456,-1.8352,-1.8418,-1.8484,-1.8437,-1.8409,-1.8352,-1.8615,-1.876,-1.8769,-1.8625,-1.8436,-1.8305,-1.8314,-1.838,-1.9312,-1.9957,-2.1082,-2.2211,-2.3336,-2.4467,-2.5594,-2.64,3.5245,3.4022,3.3027,3.2457,3.2322,3.1516,3.082,3.0119,2.8938,2.7504,2.6261,2.4778,2.3032,2.1294,2.0284,1.8908,1.6969,1.4919,1.35,1.2644,1.1615,1.097,1.0582,1.0555,1.0399,1.0424,1.0129,0.9246,0.8486,0.7986,0.774,0.7284,0.69,0.6675,0.6575,0.6366,0.5723,0.466,0.3348,0.189,0.0815,-0.0274,-0.1252,-0.1996,-0.2895,-0.35,-0.4366,-0.4918,-0.5788,-0.6242,-0.6108,-0.5791,-0.5862,-0.603,-0.6622,-0.6929,-0.7234,-0.7417,-0.7851,-0.7892,-0.7943,-0.9171,-0.9678,-1.0231,-1.0439,-1.041,-1.0679,-1.1101,-1.1482,-1.1898,-1.3177,-1.3657,-1.4357,-1.4525,-1.4822,-1.483,-1.4982,-1.5151,-1.5497,-1.5701,-1.6348,-1.6653,-1.6959,-1.7121,-1.7273,-1.7435,-1.7596,-1.7785,-1.7993,-1.8116,-1.8333,-1.8532,-1.8541,-1.8541,-1.8579,-1.856,-1.8456,-1.838,-1.8286,-1.8857,-1.9354,-1.9145,-1.8897,-1.8818,-1.8765,-1.8361,-1.8608,-1.9543,-2.0272,-2.0931,-2.205,-2.3336,-2.4627,-2.5594,-2.6228,3.5685,3.5245,3.2799,3.1767,3.1496,3.0587,2.9431,2.8224,2.7486,2.5896,2.4178,2.2409,2.079,1.9419,1.8011,1.6063,1.3569,1.1461,1.0103,0.9977,0.9318,0.8795,0.827,0.7985,0.7934,0.8676,0.843,0.7791,0.7403,0.7135,0.6805,0.6596,0.6345,0.5973,0.6038,0.6333,0.5389,0.3373,0.1756,0.068,-0.0137,-0.1658,-0.2811,-0.3439,-0.3622,-0.4226,-0.5244,-0.5815,-0.6398,-0.7851,-0.8145,-0.8285,-0.8405,-0.8069,-0.8183,-0.8275,-0.8425,-0.8574,-0.9018,-0.8936,-0.9286,-1.0346,-1.0441,-1.1021,-1.1854,-1.2189,-1.247,-1.2907,-1.3162,-1.3611,-1.4541,-1.4686,-1.4774,-1.4952,-1.496,-1.4968,-1.5097,-1.5134,-1.5472,-1.5693,-1.6195,-1.6797,-1.6959,-1.7111,-1.7273,-1.7454,-1.7624,-1.7794,-1.8002,-1.822,-1.8418,-1.8569,-1.8598,-1.8598,-1.8645,-1.8645,-1.8532,-1.8465,-1.8333,-1.8765,-1.9502,-1.9712,-1.9573,-1.9523,-1.9444,-1.9354,-1.9423,-2.033,-2.0878,-2.0909,-2.205,-2.3656,-2.4786,-2.5594,-2.607,3.409,3.2113,3.1556,3.0587,2.9512,2.8938,2.8104,2.6641,2.4917,2.3544,2.2659,2.0537,1.864,1.7109,1.5664,1.3308,1.0941,0.9082,0.8424,0.8435,0.8041,0.7641,0.7107,0.6439,0.6415,0.6406,0.6382,0.6109,0.5984,0.5738,0.5856,0.5889,0.5759,0.5238,0.4973,0.5124,0.4338,0.2045,0.0274,-0.0828,-0.1541,-0.2401,-0.3134,-0.3763,-0.3925,-0.4805,-0.5822,-0.6978,-0.814,-0.9446,-1.0462,-1.075,-1.0455,-0.9125,-0.8837,-0.943,-0.959,-0.9879,-1.0468,-1.0913,-1.1134,-1.1504,-1.1557,-1.1643,-1.2101,-1.2574,-1.3022,-1.3258,-1.3725,-1.4223,-1.4247,-1.4718,-1.4952,-1.4968,-1.4968,-1.4968,-1.5113,-1.5242,-1.5523,-1.588,-1.6339,-1.6797,-1.6959,-1.7111,-1.7273,-1.7473,-1.7615,-1.7766,-1.7946,-1.8182,-1.8418,-1.855,-1.8664,-1.8664,-1.8673,-1.8673,-1.8626,-1.8617,-1.8541,-1.8703,-1.9483,-2.0008,-2.033,-2.0516,-2.092,-2.1112,-2.1359,-2.1296,-2.1673,-2.22,-2.3175,-2.4148,-2.4945,-2.5753,-2.607,3.3845,3.1265,3.0587,2.9394,2.7966,2.7607,2.6641,2.5162,2.3544,2.2173,2.079,1.8896,1.6969,1.5414,1.411,1.1739,0.9094,0.7498,0.6836,0.6706,0.6439,0.6042,0.5637,0.497,0.4568,0.43,0.4166,0.4571,0.4973,0.5104,0.5111,0.5111,0.4842,0.444,0.4047,0.2713,0.1636,-0.0275,-0.1108,-0.1958,-0.241,-0.2851,-0.3449,-0.4037,-0.4649,-0.5531,-0.6692,-0.7706,-0.9013,-1.0173,-1.0894,-1.1332,-1.1188,-1.0756,-1.0173,-1.0606,-1.075,-1.0894,-1.1619,-1.1763,-1.1942,-1.199,-1.2156,-1.2422,-1.2755,-1.3079,-1.3491,-1.3839,-1.4143,-1.4533,-1.4541,-1.4766,-1.496,-1.4968,-1.4968,-1.5122,-1.5275,-1.5429,-1.5735,-1.6042,-1.6492,-1.695,-1.7111,-1.7273,-1.7426,-1.7501,-1.7624,-1.7757,-1.7908,-1.8322,-1.8579,-1.8846,-1.9124,-1.901,-1.8846,-1.8846,-1.8673,-1.8673,-1.8673,-1.8837,-1.9479,-2.011,-2.1018,-2.1712,-2.2157,-2.2611,-2.2373,-2.2006,-2.2671,-2.3336,-2.3976,-2.4627,-2.5422,-2.5911,-2.6228,3.3106,3.0393,2.9356,2.8068,2.6658,2.6277,2.504,2.3559,2.2298,2.079,1.9291,1.7496,1.5674,1.397,1.2274,1.0167,0.7512,0.618,0.551,0.4973,0.4839,0.4303,0.3768,0.324,0.3111,0.2982,0.2709,0.2969,0.3902,0.4168,0.4305,0.4037,0.3365,0.3236,0.3253,0.0273,-0.1924,-0.2225,-0.224,-0.2396,-0.2694,-0.3426,-0.4162,-0.5021,-0.5791,-0.6841,-0.8,-0.8579,-0.9763,-1.0649,-1.1247,-1.1398,-1.1556,-1.1708,-1.1694,-1.1667,-1.164,-1.1619,-1.1763,-1.1907,-1.2201,-1.2223,-1.2624,-1.2924,-1.3133,-1.3595,-1.4192,-1.4887,-1.496,-1.4944,-1.4935,-1.496,-1.4968,-1.4968,-1.5122,-1.5275,-1.5429,-1.5735,-1.6042,-1.6339,-1.6635,-1.6986,-1.7339,-1.7311,-1.7473,-1.7634,-1.7757,-1.7785,-1.7946,-1.8659,-1.9043,-1.9302,-1.941,-1.9326,-1.9182,-1.8846,-1.8846,-1.8673,-1.8673,-1.8837,-1.9479,-2.0282,-2.1028,-2.1789,-2.3093,-2.3253,-2.2992,-2.3164,-2.4136,-2.4786,-2.4786,-2.5104,-2.5911,-2.607,-2.6386,3.0238,2.7949,2.7486,2.652,2.5317,2.4933,2.345,2.1447,2.0043,1.864,1.7496,1.5824,1.4128,1.2274,0.9763,0.7646,0.618,0.5647,0.5111,0.444,0.4176,0.3907,0.3371,0.2866,0.2593,0.2319,0.2187,0.2315,0.2432,0.2426,0.2423,0.2289,0.2023,0.1488,-0.0137,-0.1653,-0.2228,-0.227,-0.2282,-0.2726,-0.3327,-0.4351,-0.5222,-0.6094,-0.7119,-0.814,-0.9157,-0.9596,-1.0354,-1.1477,-1.165,-1.187,-1.1979,-1.2006,-1.1925,-1.1816,-1.1701,-1.1619,-1.1784,-1.21,-1.2395,-1.2402,-1.2661,-1.2872,-1.3382,-1.3791,-1.4454,-1.4927,-1.4968,-1.4968,-1.4968,-1.4968,-1.4968,-1.5122,-1.5275,-1.5429,-1.5735,-1.6042,-1.6348,-1.6653,-1.695,-1.7223,-1.747,-1.7568,-1.7539,-1.7728,-1.787,-1.7879,-1.826,-1.8947,-1.9865,-2.031,-2.0372,-2.0282,-1.9978,-1.9652,-1.9326,-1.899,-1.8837,-1.8837,-1.9316,-1.9805,-2.0282,-2.1071,-2.2533,-2.362,-2.3413,-2.3903,-2.5396,-2.5911,-2.5753,-2.5911,-2.6228,-2.6386,-2.6228,2.7727,2.7107,2.6327,2.4933,2.3325,2.2827,2.1573,1.9916,1.8524,1.7496,1.6333,1.452,1.2421,1.0167,0.7774,0.6313,0.5513,0.5111,0.4842,0.4454,0.4062,0.3794,0.3379,0.2999,0.2742,0.2184,0.1496,0.0818,0.0678,0.027,0.0134,0.0135,0.0136,-0.0273,-0.207,-0.2793,-0.2685,-0.2716,-0.2881,-0.3335,-0.3785,-0.4662,-0.5677,-0.6402,-0.7417,-0.8574,-0.9735,-1.0317,-1.0775,-1.1583,-1.1775,-1.1809,-1.1864,-1.1938,-1.1986,-1.185,-1.187,-1.1983,-1.2067,-1.2408,-1.2575,-1.3182,-1.3482,-1.3714,-1.4011,-1.4366,-1.471,-1.4952,-1.4968,-1.4968,-1.4968,-1.4968,-1.4968,-1.5122,-1.5429,-1.5735,-1.6042,-1.6348,-1.6653,-1.6959,-1.7121,-1.7386,-1.7615,-1.7702,-1.7702,-1.7893,-1.8135,-1.8281,-1.8651,-1.9573,-2.0528,-2.1512,-2.1383,-2.1254,-2.0931,-2.0596,-2.011,-1.9785,-1.8818,-1.8827,-1.8837,-1.9163,-1.9572,-2.0403,-2.1545,-2.2465,-2.3341,-2.4673,-2.6043,-2.6228,-2.6386,-2.64,-2.6386,-2.5581,-2.5263,2.5365,2.5675,2.4595,2.3201,2.142,2.0816,1.9801,1.8384,1.7098,1.6073,1.5033,1.2808,1.0432,0.8573,0.6844,0.5778,0.5379,0.4973,0.4574,0.4462,0.4085,0.3684,0.3279,0.3158,0.2767,0.2187,0.0965,-0.0,-0.0966,-0.1921,-0.2725,-0.2718,-0.3021,-0.2765,-0.2788,-0.367,-0.4147,-0.3597,-0.4204,-0.4511,-0.4808,-0.5677,-0.6547,-0.7417,-0.8145,-0.9157,-1.0173,-1.075,-1.1332,-1.1569,-1.183,-1.1891,-1.1911,-1.2088,-1.2278,-1.2203,-1.2237,-1.255,-1.2763,-1.2896,-1.3245,-1.3706,-1.4199,-1.4364,-1.4554,-1.4949,-1.4968,-1.4968,-1.4968,-1.4968,-1.4968,-1.5122,-1.5275,-1.5429,-1.5735,-1.6042,-1.6357,-1.6653,-1.6959,-1.7111,-1.7283,-1.733,-1.7674,-1.7779,-1.8009,-1.8203,-1.8407,-1.8687,-1.9543,-2.0602,-2.1727,-2.2773,-2.282,-2.2499,-2.2166,-2.1684,-2.12,-2.0554,-1.9592,-1.9047,-1.916,-1.8788,-1.8711,-1.9735,-2.0975,-2.1941,-2.302,-2.4837,-2.636,-2.6293,-2.6253,-2.636,-2.607,-2.5263,-2.4614,2.3091,2.2076,2.1978,2.1308,2.0371,1.9522,1.8396,1.6969,1.5664,1.4241,1.2676,1.03,0.8839,0.7784,0.6585,0.5651,0.5386,0.4977,0.4574,0.4189,0.3679,0.3431,0.3174,0.2796,0.2415,0.1983,0.0703,-0.0564,-0.1985,-0.392,-0.5172,-0.6166,-0.5457,-0.5504,-0.5251,-0.4994,-0.547,-0.5063,-0.5525,-0.5963,-0.6543,-0.7557,-0.8574,-0.9446,-1.0462,-1.1332,-1.1476,-1.1476,-1.1529,-1.1782,-1.1925,-1.2047,-1.2101,-1.2436,-1.2609,-1.2656,-1.2913,-1.3217,-1.3431,-1.3334,-1.3267,-1.3744,-1.4271,-1.4651,-1.4761,-1.4966,-1.4944,-1.4968,-1.4968,-1.5122,-1.5122,-1.5275,-1.5429,-1.5744,-1.6042,-1.6348,-1.6653,-1.6968,-1.7273,-1.7426,-1.7445,-1.7626,-1.7931,-1.8349,-1.8478,-1.8677,-1.9636,-1.9913,-2.1288,-2.2377,-2.3345,-2.4294,-2.4209,-2.3903,-2.3377,-2.2887,-2.1905,-2.1253,-2.045,-2.0144,-1.9999,-1.9323,-1.9314,-1.9712,-2.1228,-2.1962,-2.2949,-2.4777,-2.5923,-2.6079,-2.6132,-2.6082,-2.603,-2.5422,-2.4945,2.1992,2.0869,1.9826,1.8744,1.7908,1.7848,1.6721,1.5033,1.3988,1.2274,1.0167,0.8972,0.7947,0.6905,0.6069,0.5406,0.5027,0.4723,0.4313,0.407,0.3705,0.3454,0.3066,0.2674,0.2564,0.1844,0.0283,-0.0993,-0.1993,-0.4551,-0.572,-0.6436,-0.6705,-0.626,-0.5859,-0.5757,-0.5791,-0.6239,-0.6688,-0.7268,-0.7123,-0.8285,-0.9302,-0.9879,-1.0167,-1.1038,-1.1476,-1.1619,-1.1708,-1.1837,-1.2282,-1.2244,-1.2347,-1.2838,-1.2977,-1.2835,-1.3144,-1.3625,-1.4022,-1.3816,-1.4022,-1.4326,-1.4838,-1.4822,-1.4875,-1.4903,-1.496,-1.4968,-1.5122,-1.5122,-1.5429,-1.5582,-1.5735,-1.605,-1.6357,-1.6653,-1.6959,-1.7273,-1.7426,-1.7426,-1.7578,-1.774,-1.8339,-1.8926,-1.8958,-1.9141,-2.0221,-2.1318,-2.2496,-2.3538,-2.4288,-2.4815,-2.4879,-2.479,-2.4246,-2.3393,-2.2565,-2.1919,-2.143,-2.1173,-2.1064,-2.1304,-2.1392,-2.1386,-2.1525,-2.2709,-2.3785,-2.4959,-2.5515,-2.5905,-2.5856,-2.5832,-2.5622,-2.5409,-2.5104,2.0729,1.9596,1.8291,1.6937,1.5971,1.6312,1.5434,1.3613,1.2684,1.0697,0.8179,0.7942,0.7328,0.6145,0.5583,0.5321,0.494,0.4371,0.4085,0.3847,0.3621,0.3221,0.2811,0.2268,0.1723,0.1136,-0.0568,-0.2142,-0.2445,-0.4757,-0.5953,-0.6559,-0.6849,-0.6825,-0.6478,-0.6368,-0.6402,-0.7268,-0.7702,-0.8599,-0.8469,-0.9173,-1.0064,-1.0498,-1.063,-1.0932,-1.1536,-1.1859,-1.1921,-1.2058,-1.2338,-1.2564,-1.2656,-1.2877,-1.321,-1.3339,-1.3498,-1.3908,-1.4189,-1.4404,-1.4669,-1.4944,-1.4944,-1.4952,-1.4968,-1.5122,-1.5275,-1.4968,-1.5122,-1.5429,-1.5744,-1.5888,-1.6042,-1.6501,-1.6815,-1.7111,-1.7111,-1.7273,-1.7426,-1.7426,-1.7721,-1.8319,-1.9067,-1.9811,-2.0502,-2.0799,-2.1999,-2.2639,-2.3178,-2.3909,-2.4505,-2.4853,-2.5137,-2.498,-2.4822,-2.3841,-2.3116,-2.3285,-2.2659,-2.2437,-2.2291,-2.2658,-2.2805,-2.2525,-2.2853,-2.3655,-2.443,-2.519,-2.5551,-2.5772,-2.5803,-2.5714,-2.5319,-2.5263,-2.5104,1.906,1.8033,1.7249,1.6152,1.5058,1.5414,1.453,1.2684,1.149,0.951,0.7273,0.694,0.6578,0.5906,0.5621,0.5103,0.4724,0.4144,0.3863,0.363,0.3248,0.2847,0.2292,0.1586,0.0872,-0.0,-0.1746,-0.3057,-0.3348,-0.544,-0.6363,-0.6833,-0.7442,-0.7712,-0.7579,-0.829,-0.9018,-0.959,-0.9302,-0.9797,-1.0432,-1.0517,-1.0812,-1.1299,-1.1411,-1.1563,-1.1762,-1.2115,-1.2199,-1.2203,-1.2613,-1.2842,-1.2906,-1.3051,-1.3354,-1.3945,-1.3945,-1.4271,-1.4573,-1.4887,-1.496,-1.4976,-1.4968,-1.4968,-1.5122,-1.5275,-1.5437,-1.5275,-1.559,-1.5897,-1.605,-1.6195,-1.6501,-1.6806,-1.7111,-1.7273,-1.7273,-1.7721,-1.7873,-1.7873,-1.8461,-1.9359,-1.9951,-2.0703,-2.1763,-2.2707,-2.3748,-2.4097,-2.4052,-2.4279,-2.4697,-2.4776,-2.5059,-2.498,-2.475,-2.4087,-2.3637,-2.397,-2.4045,-2.3548,-2.3285,-2.3345,-2.3429,-2.3426,-2.3711,-2.4354,-2.479,-2.5378,-2.5445,-2.5692,-2.574,-2.5793,-2.5225,-2.4945,-2.4945,1.7609,1.6571,1.6165,1.5163,1.4092,1.452,1.3613,1.149,0.951,0.7823,0.6796,0.625,0.6032,0.5663,0.525,0.4851,0.4337,0.4058,0.3781,0.3231,0.2845,0.2141,0.1438,0.0875,0.0147,-0.1027,-0.2655,-0.3856,-0.3981,-0.5823,-0.6904,-0.7527,-0.8154,-0.8527,-0.8582,-0.8836,-0.9108,-0.9752,-1.0035,-1.051,-1.1212,-1.1273,-1.1405,-1.183,-1.1789,-1.1782,-1.1857,-1.2227,-1.2345,-1.2333,-1.2747,-1.3087,-1.313,-1.3268,-1.3793,-1.4096,-1.4255,-1.4613,-1.4838,-1.4952,-1.496,-1.4968,-1.5122,-1.5122,-1.5292,-1.5437,-1.5437,-1.559,-1.5897,-1.605,-1.6203,-1.6501,-1.6806,-1.7111,-1.7426,-1.7426,-1.7569,-1.8319,-1.8623,-1.8481,-1.8774,-2.0586,-2.1637,-2.2073,-2.2992,-2.3005,-2.3761,-2.4341,-2.4258,-2.4407,-2.4621,-2.4621,-2.4661,-2.4783,-2.4525,-2.416,-2.4175,-2.4531,-2.4687,-2.4727,-2.4585,-2.4263,-2.4557,-2.492,-2.4907,-2.4892,-2.4879,-2.4879,-2.5352,-2.5498,-2.5309,-2.5754,-2.5885,-2.5422,-2.5104,1.6461,1.5319,1.4997,1.4024,1.3111,1.3673,1.2684,1.0306,0.7917,0.6757,0.6529,0.6266,0.592,0.5577,0.5311,0.4628,0.3975,0.3817,0.355,0.2842,0.2723,0.2166,0.1312,0.0294,-0.0444,-0.1779,-0.3437,-0.4665,-0.4934,-0.6351,-0.7321,-0.8112,-0.8716,-0.8975,-0.9045,-0.9282,-0.9492,-1.0,-1.0262,-1.0754,-1.125,-1.153,-1.1657,-1.1911,-1.2072,-1.2024,-1.2261,-1.2508,-1.2756,-1.2899,-1.3137,-1.3472,-1.3662,-1.371,-1.4065,-1.4374,-1.4565,-1.4797,-1.5064,-1.5267,-1.5275,-1.5437,-1.5275,-1.5283,-1.5599,-1.5897,-1.5888,-1.6042,-1.6357,-1.6357,-1.651,-1.6806,-1.7111,-1.7426,-1.7873,-1.7873,-1.8339,-1.9098,-1.9714,-1.9563,-2.0027,-2.1845,-2.3216,-2.3625,-2.4071,-2.3935,-2.3799,-2.4071,-2.4475,-2.4475,-2.4488,-2.4649,-2.4649,-2.4515,-2.4555,-2.4499,-2.4657,-2.5064,-2.5113,-2.5032,-2.5317,-2.5009,-2.571,-2.5869,-2.4933,-2.424,-2.4227,-2.438,-2.4827,-2.4752,-2.4481,-2.5074,-2.6162,-2.5911,-2.5263,1.5106,1.4283,1.3713,1.2918,1.2179,1.2594,1.1401,0.9001,0.7263,0.6472,0.6492,0.6517,0.6151,0.5624,0.5534,0.5015,0.4044,0.3586,0.3171,0.2898,0.2468,0.2197,0.1181,-0.0149,-0.1345,-0.2559,-0.4096,-0.5638,-0.6222,-0.7048,-0.8052,-0.8576,-0.9031,-0.9285,-0.9508,-0.9742,-0.9927,-1.0275,-1.0528,-1.1038,-1.1709,-1.1784,-1.1844,-1.2067,-1.2352,-1.2501,-1.2863,-1.3236,-1.3491,-1.377,-1.4037,-1.4207,-1.4267,-1.4049,-1.4334,-1.4509,-1.4708,-1.5142,-1.5548,-1.5582,-1.5744,-1.5897,-1.5888,-1.5744,-1.5897,-1.6203,-1.6348,-1.6501,-1.6662,-1.6806,-1.6959,-1.7111,-1.7426,-1.8025,-1.8623,-1.8936,-1.9422,-2.0189,-2.0815,-2.1291,-2.1916,-2.3167,-2.4155,-2.4741,-2.4661,-2.435,-2.4039,-2.4058,-2.4327,-2.4031,-2.4179,-2.4636,-2.4488,-2.4488,-2.4367,-2.3961,-2.4149,-2.4142,-2.4599,-2.4644,-2.5093,-2.5225,-2.4894,-2.4623,-2.4162,-2.355,-2.3084,-2.3554,-2.4265,-2.4061,-2.3853,-2.4828,-2.5938,-2.5885,-2.5594,1.3213,1.2967,1.2383,1.1516,1.058,0.9555,0.8971,0.8692,0.7265,0.6473,0.6321,0.5964,0.5737,0.526,0.4994,0.4445,0.3889,0.3471,0.3048,0.2624,0.2191,0.1177,0.0148,-0.1049,-0.241,-0.3953,-0.5367,-0.6326,-0.6769,-0.7752,-0.8571,-0.908,-0.9402,-0.9677,-0.9805,-0.9932,-1.0393,-1.0721,-1.0673,-1.1333,-1.1985,-1.2216,-1.2313,-1.2491,-1.295,-1.3108,-1.3151,-1.3543,-1.3793,-1.3861,-1.3898,-1.4083,-1.4509,-1.4228,-1.4382,-1.5002,-1.5261,-1.554,-1.5888,-1.605,-1.605,-1.6357,-1.6357,-1.651,-1.651,-1.6662,-1.6815,-1.6968,-1.6968,-1.7121,-1.7111,-1.7416,-1.7873,-1.8471,-1.9249,-1.9908,-2.0558,-2.1685,-2.2325,-2.2397,-2.3039,-2.3845,-2.4993,-2.509,-2.486,-2.4521,-2.4429,-2.4284,-2.4179,-2.4031,-2.3883,-2.4193,-2.4044,-2.3883,-2.329,-2.2881,-2.3179,-2.3229,-2.353,-2.382,-2.3808,-2.3781,-2.3587,-2.3243,-2.2661,-2.2177,-2.1534,-2.2361,-2.3441,-2.3706,-2.3678,-2.4868,-2.5675,-2.557,-2.5661,1.2114,1.1719,1.1154,1.029,0.9079,0.7955,0.7813,0.8067,0.697,0.6295,0.6222,0.5751,0.535,0.5137,0.4743,0.4328,0.3467,0.3195,0.2915,0.2334,0.176,0.0889,-0.0299,-0.1666,-0.3055,-0.4622,-0.5739,-0.6396,-0.7158,-0.7955,-0.8778,-0.9402,-0.9713,-1.0019,-1.0164,-1.0297,-1.0714,-1.0908,-1.1151,-1.1618,-1.2065,-1.2663,-1.2567,-1.2782,-1.3391,-1.3528,-1.3573,-1.3984,-1.413,-1.4214,-1.4237,-1.4493,-1.4907,-1.4863,-1.4941,-1.5564,-1.5768,-1.6007,-1.6348,-1.6357,-1.651,-1.6662,-1.6815,-1.6968,-1.6968,-1.7121,-1.7121,-1.7121,-1.7273,-1.7426,-1.7416,-1.7711,-1.8319,-1.9067,-2.006,-2.0905,-2.2058,-2.3367,-2.3454,-2.3401,-2.3922,-2.4583,-2.504,-2.5126,-2.4921,-2.4276,-2.3971,-2.3753,-2.3799,-2.4031,-2.36,-2.3612,-2.3451,-2.3141,-2.2545,-2.2097,-2.2247,-2.2271,-2.2169,-2.2301,-2.2561,-2.2293,-2.2036,-2.1696,-2.1334,-2.0905,-2.0536,-2.1754,-2.2778,-2.3052,-2.3643,-2.4687,-2.5436,-2.5555,-2.5674,1.1612,1.0725,1.0173,0.9188,0.7996,0.7697,0.7553,0.7404,0.6386,0.6045,0.5926,0.5827,0.5425,0.5033,0.4643,0.4085,0.3218,0.2789,0.2209,0.2048,0.0888,-0.015,-0.0909,-0.1992,-0.3548,-0.4364,-0.5486,-0.6736,-0.7213,-0.8154,-0.8934,-0.9402,-0.9558,-0.9864,-1.0641,-1.0486,-1.0916,-1.1503,-1.1428,-1.1562,-1.2318,-1.263,-1.2963,-1.3209,-1.3785,-1.4189,-1.4428,-1.4573,-1.4806,-1.4984,-1.5114,-1.5063,-1.5417,-1.5722,-1.5829,-1.5981,-1.616,-1.6474,-1.6653,-1.6806,-1.6959,-1.7121,-1.7426,-1.7273,-1.7273,-1.7273,-1.7273,-1.7273,-1.7426,-1.7426,-1.7416,-1.8168,-1.8916,-1.9833,-2.0944,-2.1976,-2.3329,-2.4186,-2.4441,-2.4366,-2.4557,-2.5219,-2.5219,-2.5277,-2.5046,-2.4201,-2.3896,-2.3629,-2.3689,-2.4044,-2.3896,-2.3464,-2.2992,-2.2682,-2.2247,-2.1798,-2.1487,-2.1337,-2.1383,-2.1268,-2.1697,-2.1197,-2.034,-2.0179,-2.0024,-2.0016,-2.0081,-2.1151,-2.2229,-2.3054,-2.3794,-2.4691,-2.5152,-2.5298,-2.5498,0.9706,0.9157,0.8549,0.7837,0.7276,0.7135,0.7135,0.6986,0.5351,0.5045,0.5623,0.531,0.5039,0.4509,0.4116,0.3401,0.2665,0.1785,0.0899,0.0299,-0.0602,-0.1211,-0.2142,-0.2927,-0.4192,-0.5312,-0.6271,-0.7056,-0.7998,-0.8778,-0.9402,-1.0175,-1.0019,-1.033,-1.1107,-1.0952,-1.1107,-1.1876,-1.1843,-1.1965,-1.2427,-1.3063,-1.3406,-1.3575,-1.3992,-1.446,-1.4661,-1.4806,-1.5017,-1.5163,-1.5204,-1.5466,-1.5906,-1.6397,-1.659,-1.6707,-1.6708,-1.6843,-1.7121,-1.7111,-1.7264,-1.7273,-1.7426,-1.7426,-1.7426,-1.7426,-1.7426,-1.7426,-1.7426,-1.7426,-1.7873,-1.8764,-1.9671,-2.0748,-2.1845,-2.3217,-2.4449,-2.4842,-2.5251,-2.5277,-2.5304,-2.5317,-2.5331,-2.5304,-2.5046,-2.475,-2.4565,-2.4393,-2.4232,-2.4327,-2.4327,-2.3896,-2.2831,-2.2384,-2.1798,-2.1499,-2.1187,-2.1383,-2.1592,-2.1453,-2.1151,-2.0298,-1.9427,-1.9131,-1.8912,-1.9643,-2.0255,-2.0664,-2.1592,-2.2992,-2.3604,-2.4455,-2.4741,-2.482,-2.5237,0.9013,0.8584,0.7856,0.7421,0.699,0.699,0.699,0.6704,0.5535,0.4384,0.3667,0.3358,0.3222,0.3108,0.2688,0.2397,0.15,0.0603,0.0151,-0.0605,-0.1829,-0.2448,-0.3235,-0.3874,-0.4986,-0.6111,-0.674,-0.7525,-0.8622,-0.909,-0.9397,-1.033,-1.033,-1.0641,-1.1417,-1.1417,-1.1417,-1.2192,-1.2192,-1.2347,-1.2811,-1.3274,-1.3583,-1.3737,-1.4199,-1.4692,-1.4927,-1.5098,-1.536,-1.5656,-1.5914,-1.6316,-1.6729,-1.7066,-1.7232,-1.7318,-1.7306,-1.7204,-1.7454,-1.7426,-1.7426,-1.7578,-1.7426,-1.7578,-1.7569,-1.7569,-1.7873,-1.7873,-1.8319,-1.8319,-1.9067,-1.9973,-2.1014,-2.2085,-2.2967,-2.4057,-2.4586,-2.4953,-2.5157,-2.5157,-2.5211,-2.5291,-2.5331,-2.5438,-2.5166,-2.5104,-2.4863,-2.4703,-2.4676,-2.4636,-2.4636,-2.4327,-2.3277,-2.2223,-2.1487,-2.1187,-2.1037,-2.1407,-2.1928,-2.0989,-2.0362,-1.9458,-1.8677,-1.9017,-1.9625,-2.0583,-2.1068,-2.1464,-2.2307,-2.3664,-2.3935,-2.4071,-2.4327,-2.4636,-2.4863,0.9018,0.8584,0.7856,0.7285,0.7007,0.7011,0.6877,0.6451,0.5866,0.369,0.1044,0.0747,0.0751,0.0905,0.0758,0.0455,0.0152,-0.0611,-0.0915,-0.1683,-0.2771,-0.3556,-0.4192,-0.4836,-0.5792,-0.6584,-0.7213,-0.7994,-0.8778,-0.909,-0.9708,-1.0486,-1.0796,-1.0952,-1.1572,-1.1882,-1.2037,-1.2347,-1.2501,-1.2811,-1.312,-1.3428,-1.3744,-1.4045,-1.4523,-1.5065,-1.5179,-1.5582,-1.5822,-1.6324,-1.6808,-1.753,-1.7824,-1.8116,-1.8385,-1.8475,-1.8106,-1.7999,-1.7912,-1.7873,-1.7873,-1.7721,-1.7721,-1.7873,-1.8177,-1.8329,-1.8471,-1.8754,-1.9208,-1.9671,-2.0274,-2.1014,-2.2061,-2.2831,-2.3753,-2.4494,-2.4671,-2.486,-2.501,-2.501,-2.5077,-2.517,-2.5251,-2.5371,-2.5291,-2.509,-2.497,-2.4836,-2.473,-2.4663,-2.4636,-2.4475,-2.3883,-2.2682,-2.1936,-2.1475,-2.1625,-2.2097,-2.2295,-2.0921,-1.9898,-1.9764,-1.9849,-1.997,-2.0702,-2.1615,-2.2325,-2.2867,-2.3702,-2.4367,-2.4354,-2.4179,-2.4327,-2.4636,-2.4636,0.8874,0.815,0.7425,0.7031,0.7092,0.6957,0.6251,0.4951,0.3152,0.1361,-0.0,-0.1223,-0.0916,0.1059,0.0612,0.0154,-0.0769,-0.1547,-0.2646,-0.3437,-0.405,-0.4683,-0.5159,-0.548,-0.6118,-0.6904,-0.7842,-0.8466,-0.8934,-0.9402,-1.0019,-1.0486,-1.0641,-1.1107,-1.1727,-1.2037,-1.2192,-1.2501,-1.2811,-1.2965,-1.3274,-1.3583,-1.3898,-1.4361,-1.4661,-1.5245,-1.5819,-1.6537,-1.6889,-1.7128,-1.7647,-1.8522,-1.9091,-1.9563,-1.9802,-1.9895,-1.9521,-1.9049,-1.8957,-1.8926,-1.8926,-1.8926,-1.9229,-1.9833,-1.9984,-2.0145,-2.0274,-2.0369,-2.0669,-2.0714,-2.1325,-2.2073,-2.2967,-2.3264,-2.3974,-2.4284,-2.4608,-2.477,-2.477,-2.477,-2.4783,-2.4823,-2.4836,-2.4903,-2.4903,-2.4783,-2.4783,-2.4676,-2.4676,-2.4649,-2.4636,-2.4475,-2.4179,-2.4327,-2.3883,-2.2831,-2.267,-2.298,-2.2992,-2.181,-2.1151,-2.1007,-2.1063,-2.0984,-2.1779,-2.2736,-2.3442,-2.3792,-2.4149,-2.4528,-2.4502,-2.4488,-2.4636,-2.4636,-2.4636]},{"header":{"parameterUnit":"m.s-1","parameterCategory":1,"la1":31.0,"la2":29.5877,"lo1":-88.7671,"lo2":-86.6584,"dy":0.0162,"dx":0.0185,"nx":115,"ny":88,"refTime":"2024-08-08T00:00:00:Z","depth":0,"parameterNumber":3,"parameterNumberName":"V-component_of_WINDS"},"data":[0.0,0.0,0.0,0.0,0.0,0.0,0.0,0.0,0.0,0.0,0.0,0.0,0.0,0.0,0.0,0.0,0.0,0.0,0.0,0.0,0.0,0.0,0.0,0.0,0.0,0.0,0.0,0.0,0.0,0.0,0.0,0.0,0.0,0.0,0.0,0.0,0.0,0.0,0.0,0.0,0.0,0.0,0.0,0.0,0.0,0.0,0.0,0.0,0.0,0.0,0.0,0.0,0.0,0.0,0.0,0.0,0.0,0.0,0.0,0.0,0.0,0.0,0.0,0.0,0.0,0.0,0.0,0.0,0.0,0.0,0.0,0.0,0.0,0.0,0.0,0.0,0.0,0.0,0.0,0.0,0.0,0.0,0.0,0.0,0.0,0.0,0.0,0.0,0.0,0.0,0.0,0.0,0.0,0.0,0.0,0.0,0.0,0.0,0.0,0.0,0.0,0.0,0.0,0.0,0.0,0.0,0.0,0.0,0.0,0.0,0.0,0.0,0.0,0.0,0.0,0.0,0.0,0.0,0.0,0.0,0.0,0.0,0.0,0.0,0.0,0.0,0.0,0.0,0.0,0.0,0.0,0.0,0.0,0.0,0.0,0.0,0.0,0.0,0.0,0.0,0.0,0.0,0.0,0.0,0.0,0.0,0.0,0.0,0.0,0.0,0.0,0.0,0.0,0.0,0.0,0.0,0.0,0.0,0.0,0.0,0.0,0.0,0.0,0.0,0.0,0.0,0.0,0.0,0.0,0.0,0.0,0.0,0.0,0.0,0.0,0.0,0.0,0.0,0.0,0.0,0.0,0.0,0.0,0.0,0.0,0.0,0.0,0.0,0.0,0.0,0.0,0.0,0.0,0.0,0.0,0.0,0.0,0.0,0.0,0.0,0.0,0.0,0.0,0.0,0.0,0.0,0.0,0.0,0.0,0.0,0.0,0.0,0.0,0.0,0.0,0.0,0.0,0.0,0.0,0.0,0.0,0.0,0.0,0.0,0.0,0.0,0.0,0.0,0.0,0.0,0.0,0.0,0.0,0.0,0.0,0.0,0.0,0.0,0.0,0.0,0.0,0.0,0.0,0.0,0.0,0.0,0.0,0.0,0.0,0.0,0.0,0.0,0.0,0.0,0.0,0.0,0.0,0.0,0.0,0.0,0.0,0.0,0.0,0.0,0.0,0.0,0.0,0.0,0.0,0.0,0.0,0.0,0.0,0.0,0.0,0.0,0.0,0.0,0.0,0.0,0.0,0.0,0.0,0.0,0.0,0.0,0.0,0.0,0.0,0.0,0.0,0.0,0.0,0.0,0.0,0.0,0.0,0.0,0.0,0.0,0.0,0.0,0.0,0.0,0.0,0.0,0.0,0.0,0.0,0.0,0.0,0.0,0.0,0.0,0.0,0.0,0.0,0.0,0.0,0.0,0.0,0.0,0.0,0.0,0.0,0.0,0.0,0.0,0.0,0.0,0.0,0.0,0.0,0.0,0.0,0.0,0.0,0.0,0.0,0.0,0.0,0.0,0.0,0.0,0.0,0.0,0.0,0.0,0.0,0.0,0.0,0.0,0.0,0.0,0.0,0.0,0.0,0.0,0.0,0.0,0.0,0.0,0.0,0.0,0.0,0.0,0.0,0.0,0.0,0.0,0.0,0.0,0.0,0.0,0.0,0.0,0.0,0.0,0.0,0.0,0.0,0.0,0.0,0.0,0.0,0.0,0.0,0.0,0.0,0.0,0.0,0.0,0.0,0.0,0.0,0.0,0.0,0.0,0.0,0.0,0.0,0.0,0.0,0.0,0.0,0.0,0.0,0.0,0.0,0.0,0.0,0.0,0.0,0.0,0.0,0.0,0.0,0.0,0.0,0.0,0.0,0.0,0.0,0.0,0.0,0.0,0.0,0.0,0.0,0.0,0.0,0.0,0.0,0.0,0.0,0.0,0.0,0.0,0.0,0.0,0.0,0.0,0.0,0.0,0.0,0.0,0.0,0.0,0.0,0.0,0.0,0.0,0.0,0.0,0.0,0.0,0.0,0.0,0.0,0.0,0.0,0.0,0.0,0.0,0.0,0.0,0.0,0.0,0.0,0.0,0.0,0.0,0.0,0.0,0.0,0.0,0.0,0.0,0.0,0.0,0.0,0.0,0.0,0.0,0.0,0.0,0.0,0.0,0.0,0.0,0.0,0.0,0.0,0.0,0.0,0.0,0.0,0.0,0.0,0.0,0.0,0.0,0.0,0.0,0.0,0.0,0.0,0.0,0.0,0.0,0.0,0.0,0.0,0.0,0.0,0.0,0.0,0.0,0.0,0.0,0.0,0.0,0.0,0.0,0.0,0.0,0.0,0.0,0.0,0.0,0.0,0.0,0.0,0.0,0.0,0.0,0.0,0.0,0.0,0.0,0.0,0.0,0.0,0.0,0.0,0.0,0.0,0.0,0.0,0.0,0.0,0.0,0.0,0.0,0.0,0.0,0.0,0.0,0.0,0.0,0.0,0.0,0.0,0.0,0.0,0.0,0.0,0.0,0.0,0.0,0.0,0.0,0.0,0.0,0.0,0.0,0.0,0.0,0.0,0.0,0.0,0.0,0.0,0.0,0.0,0.0,0.0,0.0,0.0,0.0,0.0,0.0,0.0,0.0,0.0,0.0,0.0,0.0,0.0,0.0,0.0,0.0,0.0,0.0,0.0,0.0,0.0,0.0,0.0,0.0,0.0,0.0,0.0,0.0,0.0,0.0,0.0,0.0,0.0,0.0,0.0,0.0,0.0,0.0,0.0,0.0,0.0,0.0,0.0,0.0,0.0,0.0,0.0,0.0,0.0,0.0,0.0,0.0,0.0,0.0,0.0,0.0,0.0,0.0,0.0,0.0,0.0,0.0,0.0,0.0,0.0,0.0,0.0,0.0,0.0,0.0,0.0,0.0,0.0,0.0,0.0,0.0,0.0,0.0,0.0,0.0,0.0,0.0,0.0,0.0,0.0,0.0,0.0,0.0,0.0,0.0,0.0,0.0,0.0,0.0,0.0,0.0,0.0,0.0,0.0,0.0,0.0,0.0,0.0,0.0,0.0,0.0,0.0,0.0,0.0,0.0,0.0,0.0,0.0,0.0,0.0,0.0,0.0,0.0,0.0,0.0,0.0,0.0,0.0,0.0,0.0,0.0,0.0,0.0,0.0,0.0,0.0,0.0,0.0,0.0,0.0,0.0,0.0,0.0,0.0,0.0,0.0,0.0,0.0,0.0,0.0,0.0,0.0,0.0,0.0,0.0,0.0,0.0,0.0,0.0,0.0,0.0,0.0,0.0,0.0,0.0,0.0,0.0,0.0,0.0,0.0,0.0,0.0,0.0,0.0,0.0,0.0,0.0,0.0,0.0,0.0,0.0,0.0,0.0,0.0,0.0,0.0,0.0,0.0,0.0,0.0,0.0,0.0,0.0,0.0,0.0,0.0,0.0,0.0,0.0,0.0,0.0,0.0,0.0,0.0,0.0,0.0,0.0,0.0,0.0,0.0,0.0,0.0,0.0,0.0,0.0,0.0,0.0,0.0,0.0,0.0,0.0,0.0,0.0,0.0,0.0,0.0,0.0,0.0,0.0,0.0,0.0,0.0,0.0,0.0,0.0,0.0,0.0,0.0,0.0,0.0,0.0,0.0,0.0,0.0,0.0,0.0,0.0,0.0,0.0,0.0,0.0,0.0,0.0,0.0,0.0,0.0,0.0,0.0,0.0,0.0,0.0,0.0,0.0,0.0,0.0,0.0,0.0,0.0,0.0,0.0,0.0,0.0,0.0,0.0,0.0,0.0,0.0,0.0,0.0,0.0,0.0,0.0,0.0,0.0,0.0,0.0,0.0,0.0,0.0,0.0,0.0,0.0,0.0,0.0,0.0,0.0,0.0,0.0,0.0,0.0,0.0,0.0,0.0,0.0,0.0,0.0,0.0,0.0,0.0,0.0,0.0,0.0,0.0,0.0,0.0,0.0,0.0,0.0,0.0,0.0,0.0,0.0,0.0,0.0,0.0,0.0,0.0,0.0,0.0,0.0,0.0,0.0,0.0,0.0,0.0,0.0,0.0,0.0,0.0,0.0,0.0,0.0,0.0,0.0,0.0,0.0,0.0,0.0,0.0,0.0,0.0,0.0,0.0,0.0,0.0,0.0,0.0,0.0,0.0,0.0,0.0,0.0,0.0,0.0,0.0,0.0,0.0,0.0,0.0,0.0,0.0,0.0,0.0,0.0,0.0,0.0,0.0,0.0,0.0,0.0,0.0,0.0,0.0,0.0,0.0,-1.0891,0.0,0.0,0.0,0.0,0.0,0.0,0.0,0.0,0.0,0.0,0.0,0.0,0.0,0.0,0.0,0.0,0.0,0.0,0.0,0.0,0.0,0.0,0.0,0.0,0.0,0.0,0.0,0.0,0.0,0.0,0.0,0.0,0.0,0.0,0.0,0.0,0.0,0.0,0.0,0.0,0.0,0.0,0.0,0.0,0.0,0.0,0.0,0.0,0.0,0.0,0.0,0.0,0.0,0.0,0.0,0.0,0.0,0.0,0.0,0.0,0.0,0.0,0.0,0.0,0.0,0.0,0.0,0.0,0.0,0.0,0.0,0.0,0.0,0.0,0.0,0.0,0.0,0.0,0.0,0.0,0.0,0.0,0.0,0.0,0.0,0.0,0.0,0.0,0.0,0.0,0.0,0.0,0.0,0.0,0.0,0.0,0.0,0.0,0.0,0.0,0.0,0.0,0.0,0.0,0.0,0.0,0.0,0.0,0.0,0.0,-1.2615,-1.2401,-1.2222,-1.2034,-1.1885,0.0,0.0,0.0,0.0,0.0,0.0,0.0,0.0,0.0,0.0,0.0,0.0,0.0,0.0,0.0,0.0,0.0,0.0,0.0,0.0,0.0,0.0,0.0,0.0,0.0,0.0,0.0,0.0,0.0,0.0,0.0,0.0,0.0,0.0,0.0,0.0,0.0,0.0,0.0,0.0,0.0,0.0,0.0,0.0,0.0,0.0,0.0,0.0,0.0,0.0,0.0,0.0,0.0,0.0,0.0,0.0,0.0,0.0,0.0,0.0,0.0,0.0,0.0,0.0,0.0,0.0,0.0,0.0,0.0,0.0,0.0,0.0,0.0,0.0,0.0,0.0,0.0,0.0,0.0,0.0,0.0,0.0,0.0,0.0,0.0,0.0,0.0,0.0,0.0,0.0,0.0,0.0,0.0,0.0,0.0,0.0,0.0,0.0,0.0,0.0,0.0,0.0,0.0,0.0,0.0,0.0,0.0,0.0,0.0,0.0,0.0,0.0,-1.2974,-1.2926,-1.2985,0.0,0.0,0.0,0.0,0.0,0.0,0.0,0.0,0.0,0.0,0.0,0.0,0.0,0.0,0.0,0.0,0.0,0.0,0.0,0.0,0.0,0.0,0.0,0.0,0.0,0.0,0.0,0.0,0.0,0.0,0.0,0.0,0.0,0.0,0.0,0.0,0.0,0.0,0.0,0.0,0.0,0.0,0.0,0.0,0.0,0.0,0.0,0.0,0.0,0.0,0.0,0.0,0.0,0.0,0.0,0.0,0.0,0.0,0.0,0.0,0.0,0.0,0.0,0.0,0.0,0.0,0.0,0.0,0.0,0.0,0.0,0.0,0.0,0.0,0.0,0.0,0.0,0.0,0.0,0.0,0.0,0.0,0.0,0.0,0.0,0.0,0.0,0.0,0.0,0.0,0.0,0.0,0.0,0.0,0.0,0.0,0.0,0.0,0.0,0.0,0.0,0.0,0.0,0.0,0.0,0.0,0.0,0.0,0.0,0.0,-1.3458,-1.4328,-1.4313,0.0,-1.3545,0.0,0.0,0.0,0.0,0.0,0.0,0.0,0.0,0.0,0.0,0.0,0.0,0.0,0.0,0.0,0.0,0.0,0.0,0.0,0.0,0.0,0.0,0.0,0.0,0.0,0.0,0.0,0.0,0.0,0.0,0.0,0.0,0.0,0.0,0.0,0.0,0.0,0.0,0.0,0.0,0.0,0.0,0.0,0.0,0.0,0.0,0.0,0.0,0.0,0.0,0.0,0.0,0.0,0.0,0.0,0.0,0.0,0.0,0.0,0.0,0.0,0.0,0.0,0.0,0.0,0.0,0.0,0.0,0.0,0.0,0.0,0.0,0.0,0.0,0.0,0.0,0.0,0.0,0.0,0.0,0.0,0.0,0.0,0.0,0.0,0.0,0.0,0.0,0.0,0.0,0.0,0.0,0.0,0.0,0.0,0.0,0.0,0.0,0.0,0.0,0.0,0.0,0.0,0.0,0.0,0.0,0.0,0.0,0.0,0.0,0.0,-1.5095,-1.5018,-1.4664,0.0,0.0,0.0,0.0,0.0,0.0,0.0,0.0,0.0,0.0,0.0,0.0,0.0,0.0,0.0,0.0,0.0,0.0,0.0,0.0,0.0,0.0,0.0,0.0,0.0,0.0,0.0,0.0,0.0,0.0,0.0,0.0,0.0,0.0,0.0,0.0,0.0,0.0,0.0,0.0,0.0,0.0,0.0,0.0,0.0,0.0,0.0,0.0,0.0,0.0,0.0,0.0,0.0,0.0,0.0,0.0,0.0,0.0,0.0,0.0,0.0,0.0,0.0,0.0,0.0,0.0,0.0,0.0,0.0,0.0,0.0,0.0,0.0,0.0,0.0,0.0,0.0,0.0,0.0,0.0,0.0,0.0,0.0,0.0,0.0,0.0,0.0,0.0,0.0,0.0,0.0,0.0,0.0,0.0,0.0,0.0,0.0,0.0,0.0,0.0,0.0,0.0,0.0,0.0,0.0,0.0,0.0,0.0,0.0,0.0,-1.5638,0.0,-1.5969,-1.5555,-1.5116,-1.4629,0.0,0.0,0.0,0.0,0.0,0.0,0.0,0.0,0.0,0.0,0.0,0.0,0.0,0.0,0.0,0.0,0.0,0.0,0.0,0.0,0.0,0.0,0.0,0.0,0.0,0.0,0.0,0.0,0.0,0.0,0.0,0.0,0.0,0.0,0.0,0.0,0.0,0.0,0.0,0.0,0.0,0.0,0.0,0.0,0.0,0.0,0.0,0.0,0.0,0.0,0.0,0.0,0.0,0.0,0.0,0.0,0.0,0.0,0.0,0.0,0.0,0.0,0.0,0.0,0.0,0.0,0.0,0.0,0.0,0.0,0.0,0.0,0.0,0.0,0.0,0.0,0.0,0.0,0.0,0.0,0.0,0.0,0.0,0.0,0.0,0.0,0.0,0.0,0.0,0.0,0.0,0.0,0.0,0.0,0.0,0.0,0.0,0.0,0.0,0.0,0.0,0.0,0.0,0.0,0.0,0.0,0.0,0.0,0.0,-1.7538,-1.7072,-1.7262,-1.6087,-1.5323,0.0,0.0,0.0,0.0,0.0,0.0,0.0,0.0,0.0,0.0,0.0,0.0,0.0,0.0,0.0,0.0,0.0,0.0,0.0,0.0,0.0,0.0,0.0,0.0,0.0,0.0,0.0,0.0,0.0,0.0,0.0,0.0,0.0,0.0,0.0,0.0,0.0,0.0,0.0,0.0,0.0,0.0,0.0,0.0,0.0,0.0,0.0,0.0,0.0,0.0,0.0,0.0,0.0,0.0,0.0,0.0,0.0,0.0,0.0,0.0,0.0,0.0,0.0,0.0,0.0,0.0,0.0,0.0,0.0,0.0,0.0,0.0,0.0,0.0,0.0,0.0,0.0,0.0,0.0,0.0,0.0,0.0,0.0,0.0,0.0,0.0,0.0,0.0,0.0,0.0,0.0,0.0,0.0,0.0,0.0,0.0,0.0,0.0,0.0,0.0,0.0,0.0,0.0,0.0,0.0,0.0,0.0,0.0,0.0,-1.7618,-1.7611,-1.7881,-1.8357,-1.6983,-1.6204,0.0,0.0,0.0,0.0,0.0,0.0,0.0,0.0,0.0,0.0,0.0,0.0,0.0,0.0,0.0,0.0,0.0,0.0,0.0,0.0,0.0,0.0,0.0,0.0,0.0,0.0,0.0,0.0,0.0,0.0,0.0,0.0,0.0,0.0,0.0,0.0,0.0,0.0,0.0,0.0,0.0,0.0,0.0,0.0,0.0,0.0,0.0,0.0,0.0,0.0,0.0,0.0,0.0,0.0,0.0,0.0,0.0,0.0,0.0,0.0,0.0,0.0,0.0,0.0,0.0,0.0,0.0,0.0,0.0,0.0,0.0,0.0,0.0,0.0,0.0,0.0,0.0,0.0,0.0,0.0,0.0,0.0,0.0,0.0,0.0,0.0,0.0,0.0,0.0,0.0,0.0,0.0,0.0,0.0,0.0,0.0,0.0,0.0,0.0,0.0,0.0,0.0,0.0,0.0,0.0,0.0,0.0,0.0,0.0,-1.8104,0.0,-1.8879,0.0,-1.7583,-1.6567,0.0,0.0,0.0,0.0,0.0,0.0,0.0,0.0,0.0,0.0,0.0,0.0,0.0,0.0,0.0,0.0,0.0,0.0,0.0,0.0,0.0,0.0,0.0,0.0,0.0,0.0,0.0,0.0,0.0,0.0,0.0,0.0,0.0,0.0,0.0,0.0,0.0,0.0,0.0,0.0,0.0,0.0,0.0,0.0,0.0,0.0,0.0,0.0,0.0,0.0,0.0,0.0,0.0,0.0,0.0,0.0,0.0,0.0,0.0,0.0,0.0,0.0,0.0,0.0,0.0,0.0,0.0,0.0,0.0,0.0,0.0,0.0,0.0,0.0,0.0,0.0,0.0,0.0,0.0,0.0,0.0,0.0,0.0,0.0,0.0,0.0,0.0,0.0,0.0,0.0,0.0,0.0,0.0,0.0,0.0,0.0,0.0,0.0,0.0,0.0,0.0,0.0,0.0,0.0,0.0,0.0,0.0,0.0,-1.9415,-2.064,-2.0626,-2.0273,-1.9293,-1.7942,-1.6508,0.0,0.0,0.0,0.0,0.0,0.0,0.0,0.0,0.0,0.0,0.0,0.0,0.0,0.0,0.0,0.0,0.0,0.0,0.0,0.0,0.0,0.0,0.0,0.0,0.0,0.0,0.0,0.0,0.0,0.0,0.0,0.0,0.0,0.0,0.0,0.0,0.0,0.0,0.0,0.0,0.0,0.0,0.0,0.0,0.0,0.0,0.0,0.0,0.0,0.0,0.0,0.0,0.0,0.0,0.0,0.0,0.0,0.0,0.0,0.0,0.0,0.0,0.0,0.0,0.0,0.0,0.0,0.0,0.0,0.0,0.0,0.0,0.0,0.0,0.0,0.0,0.0,0.0,0.0,0.0,0.0,0.0,0.0,0.0,0.0,0.0,0.0,0.0,0.0,0.0,0.0,0.0,0.0,0.0,0.0,0.0,0.0,0.0,0.0,0.0,0.0,0.0,0.0,0.0,0.0,0.0,0.0,0.0,0.0,-2.1486,-2.2525,-2.2927,-2.2542,-1.998,-1.838,0.0,0.0,0.0,0.0,0.0,0.0,0.0,0.0,0.0,0.0,0.0,0.0,0.0,0.0,0.0,0.0,0.0,0.0,0.0,0.0,0.0,0.0,0.0,0.0,0.0,0.0,0.0,0.0,0.0,0.0,0.0,0.0,0.0,0.0,0.0,0.0,0.0,0.0,0.0,0.0,0.0,0.0,0.0,0.0,0.0,0.0,0.0,0.0,0.0,0.0,0.0,0.0,0.0,0.0,0.0,0.0,0.0,0.0,0.0,0.0,0.0,0.0,0.0,0.0,0.0,0.0,0.0,0.0,0.0,0.0,0.0,0.0,0.0,0.0,0.0,0.0,0.0,0.0,0.0,0.0,0.0,0.0,0.0,0.0,0.0,0.0,0.0,0.0,0.0,0.0,0.0,0.0,0.0,0.0,0.0,0.0,0.0,0.0,0.0,0.0,0.0,0.0,0.0,0.0,0.0,0.0,0.0,0.0,0.0,-2.36,-2.4833,-2.5321,-2.4912,-2.2265,-2.0338,-1.9323,0.0,0.0,0.0,0.0,0.0,0.0,0.0,0.0,0.0,0.0,0.0,0.0,0.0,0.0,0.0,0.0,0.0,0.0,0.0,0.0,0.0,0.0,0.0,0.0,0.0,0.0,0.0,0.0,0.0,0.0,0.0,0.0,0.0,0.0,0.0,0.0,0.0,0.0,0.0,0.0,0.0,0.0,0.0,0.0,0.0,0.0,0.0,0.0,0.0,0.0,0.0,0.0,0.0,0.0,0.0,0.0,0.0,0.0,0.0,0.0,0.0,0.0,0.0,0.0,0.0,0.0,0.0,0.0,0.0,0.0,0.0,0.0,0.0,0.0,0.0,0.0,0.0,0.0,0.0,0.0,0.0,0.0,0.0,0.0,0.0,0.0,0.0,0.0,0.0,0.0,0.0,0.0,0.0,0.0,0.0,0.0,0.0,0.0,0.0,0.0,0.0,0.0,0.0,0.0,0.0,0.0,0.0,0.0,-2.6545,-2.7543,-2.7574,-2.6456,-2.4513,-2.2317,0.0,0.0,0.0,0.0,0.0,0.0,0.0,0.0,0.0,0.0,0.0,0.0,0.0,0.0,0.0,0.0,0.0,0.0,0.0,0.0,0.0,0.0,0.0,0.0,0.0,0.0,0.0,0.0,0.0,0.0,0.0,0.0,0.0,0.0,0.0,0.0,0.0,0.0,0.0,0.0,0.0,0.0,0.0,0.0,0.0,0.0,0.0,0.0,0.0,0.0,0.0,0.0,0.0,0.0,0.0,0.0,0.0,0.0,0.0,0.0,0.0,0.0,0.0,0.0,0.0,0.0,0.0,0.0,0.0,0.0,0.0,0.0,0.0,0.0,0.0,0.0,0.0,0.0,0.0,0.0,0.0,0.0,0.0,0.0,0.0,0.0,0.0,0.0,0.0,0.0,0.0,0.0,0.0,0.0,0.0,0.0,0.0,0.0,0.0,0.0,0.0,0.0,0.0,0.0,0.0,0.0,0.0,0.0,0.0,-2.8015,-3.0449,-3.0925,-2.9154,-2.6188,-2.3592,0.0,0.0,0.0,0.0,0.0,0.0,0.0,0.0,0.0,0.0,0.0,0.0,0.0,0.0,0.0,0.0,0.0,0.0,0.0,0.0,0.0,0.0,0.0,0.0,0.0,0.0,0.0,0.0,0.0,0.0,0.0,0.0,0.0,0.0,0.0,0.0,0.0,0.0,0.0,0.0,0.0,0.0,0.0,0.0,0.0,0.0,0.0,0.0,0.0,0.0,0.0,0.0,0.0,0.0,0.0,0.0,0.0,0.0,0.0,0.0,0.0,0.0,0.0,0.0,0.0,0.0,0.0,0.0,0.0,0.0,0.0,0.0,0.0,0.0,0.0,0.0,0.0,0.0,0.0,0.0,0.0,0.0,0.0,0.0,0.0,0.0,0.0,0.0,0.0,0.0,0.0,0.0,0.0,0.0,0.0,0.0,0.0,0.0,0.0,0.0,0.0,0.0,0.0,0.0,0.0,0.0,0.0,0.0,-2.817,-2.909,-3.1917,-3.2609,-3.1019,-2.8411,-2.5679,0.0,0.0,0.0,0.0,0.0,0.0,0.0,0.0,0.0,0.0,0.0,0.0,0.0,0.0,0.0,0.0,0.0,0.0,0.0,0.0,0.0,0.0,0.0,0.0,0.0,0.0,0.0,0.0,0.0,0.0,0.0,0.0,0.0,0.0,0.0,0.0,0.0,0.0,0.0,0.0,0.0,0.0,0.0,0.0,0.0,0.0,0.0,0.0,0.0,0.0,0.0,0.0,0.0,0.0,0.0,0.0,0.0,0.0,0.0,0.0,0.0,0.0,0.0,0.0,0.0,0.0,0.0,0.0,0.0,0.0,0.0,0.0,0.0,0.0,0.0,0.0,0.0,0.0,0.0,0.0,0.0,0.0,0.0,0.0,0.0,0.0,0.0,0.0,0.0,0.0,0.0,0.0,0.0,0.0,0.0,0.0,0.0,0.0,0.0,0.0,0.0,0.0,0.0,0.0,0.0,0.0,0.0,0.0,-2.9125,-3.0036,-3.2456,-3.3188,-3.2017,-3.0511,-2.787,0.0,0.0,0.0,0.0,0.0,0.0,0.0,0.0,0.0,0.0,0.0,0.0,0.0,0.0,0.0,0.0,0.0,0.0,0.0,0.0,0.0,0.0,0.0,0.0,0.0,0.0,0.0,0.0,0.0,0.0,0.0,0.0,0.0,0.0,0.0,0.0,0.0,0.0,0.0,0.0,0.0,0.0,0.0,0.0,0.0,0.0,0.0,0.0,0.0,0.0,0.0,0.0,0.0,0.0,0.0,0.0,0.0,0.0,0.0,0.0,0.0,0.0,0.0,0.0,0.0,0.0,0.0,0.0,0.0,0.0,0.0,0.0,0.0,0.0,0.0,0.0,0.0,0.0,0.0,0.0,0.0,0.0,0.0,0.0,0.0,0.0,0.0,0.0,0.0,0.0,0.0,0.0,0.0,0.0,0.0,0.0,0.0,0.0,0.0,0.0,0.0,0.0,0.0,0.0,0.0,0.0,0.0,0.0,-3.0055,-3.0907,-3.2962,-3.324,-3.161,-3.0019,-2.7791,0.0,0.0,0.0,0.0,0.0,0.0,0.0,0.0,0.0,0.0,0.0,0.0,0.0,0.0,0.0,0.0,0.0,0.0,0.0,0.0,0.0,0.0,0.0,0.0,0.0,0.0,0.0,0.0,0.0,0.0,0.0,0.0,0.0,0.0,0.0,0.0,0.0,0.0,0.0,0.0,0.0,0.0,0.0,0.0,0.0,0.0,0.0,0.0,-3.3166,0.0,0.0,0.0,0.0,0.0,0.0,0.0,0.0,0.0,0.0,0.0,0.0,0.0,0.0,0.0,0.0,0.0,0.0,0.0,0.0,0.0,0.0,0.0,0.0,0.0,0.0,0.0,0.0,0.0,0.0,0.0,0.0,0.0,0.0,0.0,0.0,0.0,0.0,0.0,0.0,0.0,0.0,0.0,0.0,0.0,0.0,0.0,0.0,0.0,0.0,0.0,0.0,0.0,0.0,0.0,0.0,0.0,0.0,0.0,-3.0992,-3.2096,-3.3369,-3.3399,-3.2129,-3.0666,-2.856,0.0,0.0,0.0,0.0,0.0,0.0,0.0,0.0,0.0,0.0,0.0,0.0,0.0,0.0,0.0,0.0,0.0,0.0,0.0,0.0,0.0,0.0,0.0,0.0,0.0,0.0,0.0,0.0,0.0,0.0,0.0,0.0,0.0,0.0,0.0,0.0,0.0,0.0,0.0,0.0,0.0,0.0,0.0,0.0,0.0,0.0,0.0,0.0,0.0,0.0,0.0,0.0,0.0,0.0,0.0,0.0,0.0,0.0,0.0,0.0,0.0,0.0,0.0,0.0,0.0,0.0,0.0,0.0,0.0,0.0,0.0,0.0,0.0,0.0,0.0,0.0,0.0,0.0,0.0,0.0,0.0,0.0,0.0,0.0,0.0,0.0,0.0,0.0,0.0,0.0,0.0,0.0,0.0,0.0,0.0,0.0,0.0,0.0,0.0,0.0,0.0,0.0,0.0,0.0,0.0,0.0,0.0,-2.9789,-3.1707,-3.3258,-3.3777,-3.3642,-3.2935,-3.1623,-2.9623,-2.7042,0.0,0.0,0.0,0.0,0.0,0.0,0.0,0.0,0.0,0.0,0.0,0.0,0.0,0.0,0.0,0.0,0.0,0.0,0.0,0.0,0.0,0.0,0.0,0.0,0.0,0.0,0.0,0.0,0.0,0.0,0.0,0.0,0.0,0.0,0.0,0.0,0.0,0.0,-3.0352,-3.2387,0.0,0.0,0.0,0.0,0.0,0.0,0.0,0.0,-3.4498,0.0,0.0,0.0,0.0,0.0,0.0,0.0,0.0,0.0,0.0,0.0,0.0,0.0,0.0,0.0,0.0,0.0,0.0,0.0,0.0,0.0,0.0,0.0,0.0,0.0,0.0,0.0,0.0,0.0,0.0,0.0,0.0,0.0,0.0,0.0,0.0,0.0,0.0,0.0,0.0,0.0,0.0,0.0,0.0,0.0,0.0,0.0,0.0,0.0,0.0,0.0,0.0,0.0,0.0,0.0,0.0,-2.8986,-3.0275,-3.1978,-3.4121,-3.4301,-3.3949,-3.2904,-3.1848,-3.0228,-2.8012,0.0,0.0,0.0,0.0,0.0,0.0,0.0,0.0,0.0,0.0,0.0,0.0,0.0,0.0,0.0,0.0,0.0,0.0,0.0,0.0,0.0,0.0,0.0,0.0,0.0,0.0,0.0,0.0,0.0,0.0,0.0,0.0,0.0,0.0,0.0,0.0,0.0,0.0,0.0,-3.541,-3.6365,0.0,0.0,0.0,0.0,0.0,0.0,0.0,0.0,-3.4219,0.0,0.0,0.0,0.0,0.0,0.0,0.0,0.0,0.0,0.0,0.0,0.0,0.0,0.0,0.0,0.0,0.0,0.0,0.0,0.0,0.0,0.0,0.0,0.0,0.0,0.0,0.0,0.0,0.0,0.0,0.0,0.0,0.0,0.0,0.0,0.0,0.0,0.0,0.0,0.0,0.0,0.0,0.0,0.0,0.0,0.0,0.0,0.0,0.0,0.0,0.0,0.0,0.0,0.0,0.0,-2.8787,-3.1005,-3.2884,-3.4463,-3.4464,-3.4068,-3.3224,-3.142,-2.9533,0.0,0.0,0.0,0.0,0.0,0.0,0.0,0.0,0.0,0.0,0.0,0.0,0.0,0.0,0.0,0.0,0.0,0.0,0.0,0.0,0.0,0.0,0.0,0.0,0.0,0.0,0.0,0.0,0.0,0.0,0.0,0.0,0.0,0.0,0.0,0.0,0.0,0.0,0.0,0.0,-3.6528,-3.7882,-3.7893,0.0,0.0,0.0,0.0,0.0,0.0,-3.6289,-3.6157,0.0,0.0,0.0,0.0,0.0,0.0,0.0,0.0,0.0,0.0,0.0,0.0,0.0,0.0,0.0,0.0,0.0,0.0,0.0,0.0,0.0,0.0,0.0,0.0,0.0,0.0,0.0,0.0,0.0,0.0,0.0,0.0,0.0,0.0,0.0,0.0,0.0,0.0,0.0,0.0,0.0,0.0,0.0,0.0,0.0,0.0,0.0,0.0,0.0,0.0,0.0,0.0,0.0,0.0,0.0,-2.8543,-3.1571,-3.3671,-3.483,-3.461,-3.4218,-3.361,-3.1168,-2.8983,0.0,0.0,0.0,0.0,0.0,0.0,0.0,0.0,0.0,0.0,0.0,0.0,0.0,0.0,0.0,0.0,0.0,0.0,0.0,0.0,0.0,0.0,0.0,0.0,0.0,0.0,0.0,0.0,0.0,0.0,0.0,0.0,0.0,0.0,0.0,0.0,0.0,0.0,0.0,0.0,0.0,-3.9663,-4.0031,-3.9745,0.0,0.0,0.0,0.0,-3.7615,-3.8669,0.0,0.0,0.0,0.0,0.0,0.0,0.0,0.0,0.0,0.0,0.0,0.0,0.0,0.0,0.0,0.0,0.0,0.0,0.0,0.0,0.0,0.0,0.0,0.0,0.0,0.0,0.0,0.0,0.0,0.0,0.0,0.0,0.0,0.0,0.0,0.0,0.0,0.0,0.0,0.0,0.0,0.0,0.0,0.0,0.0,0.0,0.0,0.0,0.0,0.0,0.0,0.0,0.0,0.0,0.0,0.0,-2.8921,-3.1492,-3.3707,-3.5363,-3.5005,-3.461,-3.4168,-3.2045,-2.969,0.0,0.0,0.0,0.0,0.0,0.0,0.0,0.0,0.0,0.0,0.0,0.0,0.0,0.0,0.0,0.0,0.0,0.0,0.0,0.0,0.0,0.0,0.0,0.0,0.0,0.0,0.0,0.0,0.0,0.0,0.0,0.0,0.0,0.0,0.0,0.0,0.0,0.0,0.0,0.0,0.0,-4.252,-4.1136,-4.2109,-4.2724,0.0,0.0,-4.2023,-4.2705,-4.296,0.0,0.0,0.0,0.0,0.0,0.0,0.0,0.0,0.0,0.0,0.0,0.0,0.0,0.0,0.0,0.0,0.0,0.0,0.0,0.0,0.0,0.0,0.0,0.0,0.0,0.0,0.0,0.0,0.0,0.0,0.0,0.0,0.0,0.0,0.0,0.0,0.0,0.0,0.0,0.0,0.0,0.0,0.0,0.0,0.0,0.0,0.0,0.0,0.0,0.0,0.0,0.0,0.0,0.0,0.0,-2.7571,-2.9134,-3.2513,-3.4741,-3.5654,-3.5407,-3.5052,-3.4706,-3.2485,-3.0185,0.0,0.0,0.0,0.0,0.0,0.0,0.0,0.0,0.0,0.0,0.0,0.0,0.0,0.0,0.0,0.0,0.0,0.0,0.0,0.0,0.0,0.0,0.0,0.0,0.0,0.0,0.0,0.0,0.0,0.0,0.0,0.0,0.0,0.0,0.0,0.0,0.0,0.0,0.0,0.0,0.0,0.0,-4.2582,-4.4051,0.0,0.0,0.0,-4.4412,-4.3786,0.0,0.0,0.0,0.0,0.0,0.0,0.0,0.0,0.0,0.0,0.0,0.0,0.0,0.0,0.0,0.0,0.0,0.0,0.0,0.0,0.0,0.0,0.0,0.0,0.0,0.0,0.0,0.0,0.0,0.0,0.0,0.0,0.0,0.0,0.0,0.0,0.0,0.0,0.0,0.0,0.0,0.0,0.0,0.0,0.0,0.0,0.0,0.0,0.0,0.0,0.0,0.0,0.0,0.0,0.0,0.0,0.0,-2.9242,-3.3149,-3.5428,-3.5994,-3.581,-3.5554,-3.5249,-3.3161,0.0,0.0,0.0,0.0,0.0,0.0,0.0,0.0,0.0,0.0,0.0,0.0,0.0,0.0,0.0,0.0,0.0,0.0,0.0,0.0,0.0,0.0,0.0,0.0,0.0,0.0,0.0,-2.5021,0.0,0.0,0.0,0.0,0.0,0.0,0.0,0.0,0.0,0.0,0.0,0.0,0.0,0.0,-4.3275,-4.3942,-4.5685,-4.6989,0.0,0.0,-4.6519,-4.546,-4.6502,-4.6354,0.0,0.0,0.0,0.0,0.0,0.0,0.0,0.0,0.0,0.0,0.0,0.0,0.0,0.0,0.0,0.0,0.0,0.0,0.0,0.0,0.0,0.0,0.0,0.0,0.0,0.0,0.0,0.0,0.0,0.0,0.0,0.0,0.0,0.0,0.0,0.0,0.0,0.0,0.0,0.0,0.0,0.0,0.0,0.0,0.0,0.0,0.0,0.0,0.0,0.0,0.0,0.0,0.0,0.0,0.0,-2.9524,-3.278,-3.5223,-3.6533,-3.6156,-3.5907,-3.5994,-3.4283,-3.2269,0.0,0.0,0.0,0.0,0.0,0.0,0.0,0.0,0.0,0.0,0.0,0.0,0.0,0.0,0.0,0.0,0.0,0.0,0.0,0.0,0.0,0.0,0.0,0.0,0.0,0.0,0.0,0.0,0.0,0.0,0.0,0.0,0.0,0.0,0.0,0.0,0.0,0.0,0.0,0.0,0.0,-4.4837,-4.4898,-4.7031,-4.8899,0.0,0.0,-4.8868,-4.9458,-5.0331,-5.0012,-4.7306,0.0,0.0,0.0,0.0,0.0,0.0,0.0,0.0,0.0,0.0,0.0,0.0,0.0,0.0,0.0,0.0,0.0,0.0,0.0,0.0,0.0,0.0,0.0,0.0,0.0,0.0,0.0,0.0,0.0,0.0,0.0,0.0,0.0,0.0,0.0,0.0,0.0,0.0,0.0,0.0,0.0,0.0,0.0,0.0,0.0,0.0,0.0,0.0,0.0,0.0,0.0,0.0,0.0,-2.8629,-3.0178,-3.348,-3.5684,-3.665,-3.6402,-3.6483,-3.6965,-3.5545,-3.3859,0.0,0.0,0.0,0.0,0.0,0.0,0.0,0.0,0.0,0.0,0.0,0.0,0.0,0.0,0.0,0.0,0.0,0.0,0.0,0.0,0.0,0.0,0.0,0.0,0.0,0.0,0.0,0.0,-2.8876,-2.9185,-3.0702,0.0,0.0,0.0,0.0,0.0,0.0,0.0,0.0,0.0,0.0,-4.6147,-4.718,-4.9092,0.0,0.0,-5.1006,-5.1102,-5.0852,-5.1094,-5.0572,-4.8448,-4.7078,0.0,0.0,0.0,0.0,0.0,0.0,0.0,0.0,0.0,0.0,0.0,0.0,0.0,0.0,0.0,0.0,0.0,0.0,0.0,0.0,0.0,0.0,0.0,0.0,0.0,0.0,0.0,0.0,0.0,0.0,0.0,0.0,0.0,0.0,0.0,0.0,0.0,0.0,0.0,0.0,0.0,0.0,0.0,0.0,0.0,0.0,0.0,0.0,0.0,0.0,0.0,0.0,-2.9179,-3.0827,-3.4168,-3.6232,-3.695,-3.7074,-3.7317,-3.7637,-3.7004,-3.5793,0.0,0.0,0.0,0.0,0.0,0.0,0.0,0.0,0.0,0.0,0.0,0.0,0.0,0.0,0.0,0.0,0.0,0.0,0.0,0.0,0.0,0.0,0.0,0.0,0.0,0.0,0.0,0.0,-3.0388,-3.0504,-3.0857,0.0,0.0,0.0,0.0,0.0,0.0,0.0,0.0,0.0,0.0,-4.7117,-4.8593,-5.026,-5.143,-5.1639,-5.2232,-5.2489,-5.2075,-5.2025,-5.1508,-4.9962,0.0,0.0,0.0,0.0,0.0,0.0,0.0,0.0,0.0,0.0,0.0,0.0,0.0,0.0,0.0,0.0,0.0,0.0,0.0,0.0,0.0,0.0,0.0,0.0,0.0,0.0,0.0,0.0,0.0,0.0,-1.2682,0.0,0.0,0.0,0.0,0.0,0.0,0.0,0.0,0.0,0.0,0.0,0.0,0.0,0.0,0.0,0.0,0.0,0.0,0.0,0.0,0.0,0.0,-2.9212,-3.1312,-3.4616,-3.6755,-3.7551,-3.819,-3.84,-3.8117,-3.8671,-3.8093,-3.6112,0.0,0.0,0.0,0.0,0.0,0.0,0.0,0.0,0.0,0.0,0.0,0.0,0.0,0.0,0.0,0.0,0.0,0.0,0.0,0.0,0.0,0.0,0.0,0.0,0.0,0.0,-2.9726,-3.1094,-3.1758,0.0,0.0,0.0,0.0,0.0,0.0,0.0,0.0,0.0,0.0,-4.5819,-4.7843,-4.8733,-5.0226,-5.1609,-5.2386,-5.2541,-5.2791,-5.3506,-5.3611,-5.3378,0.0,0.0,0.0,0.0,0.0,0.0,0.0,0.0,0.0,0.0,0.0,0.0,0.0,0.0,0.0,0.0,0.0,0.0,0.0,0.0,0.0,0.0,0.0,0.0,0.0,0.0,0.0,-1.4744,-1.4993,0.0,0.0,0.0,0.0,0.0,0.0,0.0,0.0,0.0,0.0,0.0,-2.4311,-2.5348,0.0,0.0,0.0,0.0,0.0,0.0,0.0,0.0,0.0,0.0,0.0,0.0,-2.8963,-3.124,-3.4404,-3.6448,-3.7281,-3.8136,-3.8787,-3.9163,-3.9223,-3.8364,-3.6541,0.0,0.0,0.0,0.0,0.0,0.0,0.0,0.0,0.0,0.0,0.0,0.0,0.0,0.0,0.0,0.0,0.0,0.0,0.0,0.0,0.0,0.0,0.0,0.0,0.0,-3.1239,0.0,0.0,0.0,0.0,0.0,0.0,0.0,0.0,0.0,0.0,0.0,-4.3909,-4.585,-4.888,-5.0975,-5.1249,-5.2699,-5.3672,0.0,0.0,0.0,0.0,0.0,0.0,0.0,0.0,0.0,0.0,0.0,0.0,0.0,0.0,-5.1285,-4.7861,-4.6244,-4.558,-4.6026,0.0,0.0,0.0,0.0,0.0,0.0,0.0,0.0,0.0,0.0,0.0,0.0,0.0,0.0,-1.6814,0.0,-1.6812,0.0,0.0,0.0,0.0,0.0,0.0,0.0,0.0,-2.3724,-2.5423,-2.6645,-2.7961,-2.8866,0.0,-2.8919,-2.8041,0.0,0.0,0.0,0.0,0.0,0.0,0.0,0.0,-2.996,-3.2026,-3.5294,-3.7194,-3.7657,-3.8745,-3.9457,-3.9801,-3.9834,-3.923,-3.7793,-3.6137,-3.4695,0.0,0.0,0.0,0.0,0.0,0.0,0.0,0.0,0.0,0.0,0.0,0.0,0.0,0.0,0.0,0.0,0.0,0.0,0.0,0.0,0.0,0.0,0.0,-3.315,0.0,0.0,0.0,0.0,0.0,0.0,0.0,0.0,0.0,-4.2325,-4.4929,-4.7416,-4.9356,-5.1607,-5.3117,-5.3379,0.0,0.0,0.0,0.0,0.0,0.0,0.0,-5.5216,-5.5093,-5.4978,-5.5143,-5.59,-5.683,-5.7378,-5.7019,0.0,0.0,-5.2132,-5.0468,-4.9868,-5.0591,-5.0599,-5.0854,-5.2105,-5.1706,-5.1405,0.0,0.0,0.0,0.0,0.0,0.0,0.0,0.0,-1.7648,-1.8348,0.0,-1.8239,0.0,0.0,0.0,0.0,0.0,0.0,0.0,0.0,-2.6663,-2.7774,-2.7818,-2.8759,-2.9351,-2.9666,-2.9816,-3.0576,-3.1811,-2.878,0.0,0.0,0.0,0.0,0.0,0.0,-3.1976,-3.365,-3.7047,-3.8789,-3.874,-3.9944,-4.0444,-4.013,-4.0694,-4.0704,-3.9893,-3.8079,-3.6848,-3.6343,-3.3701,0.0,0.0,0.0,0.0,0.0,0.0,0.0,0.0,0.0,0.0,0.0,0.0,0.0,0.0,0.0,0.0,0.0,0.0,0.0,0.0,-3.43,0.0,0.0,0.0,0.0,0.0,0.0,0.0,0.0,0.0,0.0,-4.4919,-4.8063,-5.1055,-5.3351,0.0,0.0,0.0,0.0,-5.4194,-5.5035,-5.5098,-5.5389,-5.6172,-5.7605,-5.8579,-5.8472,0.0,0.0,-5.9357,-5.8957,-5.8622,-5.7908,-5.7772,-5.7362,-5.6774,-5.4952,-5.3921,-5.4678,-5.43,-5.4118,-5.4736,-5.498,-5.4706,-2.3422,0.0,0.0,0.0,0.0,-1.9662,-2.0313,-2.1141,-2.1711,-2.2105,-2.2367,-2.181,0.0,0.0,0.0,0.0,0.0,0.0,-2.4349,-2.6516,-2.8456,-2.9679,-3.0403,-3.0763,-3.1257,-3.1839,-3.2019,-3.2854,-3.4111,-3.299,-3.1218,-2.9053,0.0,0.0,0.0,0.0,-3.3282,-3.4758,-3.7318,-3.8623,-3.8656,-4.029,-4.1429,-4.1925,-4.2002,-4.1729,-4.0984,-4.049,-3.9545,-3.8081,-3.6838,0.0,0.0,0.0,0.0,0.0,0.0,0.0,0.0,0.0,0.0,0.0,0.0,0.0,0.0,0.0,0.0,0.0,0.0,0.0,-3.5194,-3.6555,-3.7249,0.0,0.0,0.0,0.0,0.0,0.0,0.0,0.0,0.0,-4.98,-5.1191,-5.2038,0.0,0.0,-5.5435,-5.5022,-5.6304,-5.7405,-5.769,-5.8037,0.0,0.0,-5.9302,-5.922,-5.9986,-6.0814,-6.1162,-6.0601,-6.0974,-6.125,-6.105,-6.1017,-6.0904,-6.0627,-5.8311,-5.6808,-5.7384,-5.7901,-5.8494,-5.9197,-5.9601,-5.9734,-2.5491,-2.3687,-2.2484,-2.1832,-2.1761,-2.1953,-2.2556,-2.3356,-2.3599,-2.3948,-2.4284,-2.3854,-2.3562,-2.3315,-2.2859,0.0,0.0,0.0,-2.5918,-2.7873,-2.9536,-3.0543,-3.1015,-3.1696,-3.2339,-3.2861,-3.2952,-3.3848,-3.5716,-3.5221,-3.4315,-3.3069,0.0,0.0,-3.1508,-3.3416,-3.491,-3.6019,-3.8037,-3.9092,-3.9143,-4.0607,-4.1682,-4.2316,-4.2454,-4.2315,-4.1848,-4.1717,-4.1178,-4.0147,-3.8998,-3.7703,0.0,0.0,0.0,0.0,0.0,0.0,0.0,0.0,0.0,0.0,0.0,-3.348,-3.2453,0.0,0.0,0.0,-3.6005,-3.7357,-3.8926,-3.994,0.0,0.0,0.0,0.0,0.0,0.0,0.0,-4.6892,-4.9304,-5.1502,-5.3322,-5.4129,-5.4769,-5.5458,-5.6547,-5.7223,-5.7042,0.0,-5.8789,-5.8789,-5.8832,-5.9293,-6.0381,-6.0513,-6.094,-6.2336,-6.2471,-6.2535,-6.261,-6.2804,-6.288,-6.2842,-6.2614,-6.2425,-6.2425,-6.0752,-5.9684,-6.0454,-6.0823,-6.1267,-6.207,-6.2097,-6.1956,-2.7233,-2.6432,-2.4785,-2.4095,-2.4051,-2.4051,-2.4237,-2.4473,-2.4015,-2.4349,-2.526,-2.4677,-2.4823,-2.5372,-2.4342,0.0,-2.6696,-2.6218,-2.7001,-2.8703,-3.0281,-3.0751,-3.0514,-3.1914,-3.2862,-3.3264,-3.2984,-3.414,-3.6414,-3.5938,-3.6238,-3.7319,-3.5276,-3.4167,-3.416,-3.5666,-3.685,-3.7502,-3.9194,-4.007,-4.0155,-4.1,-4.156,-4.1929,-4.2292,-4.2534,-4.2526,-4.2008,-4.1905,-4.2349,-4.056,-3.9701,-3.9979,0.0,0.0,0.0,0.0,0.0,0.0,0.0,0.0,0.0,0.0,0.0,0.0,0.0,0.0,0.0,-3.9257,0.0,-4.388,-4.4109,0.0,0.0,0.0,-4.8241,-4.9099,-4.9753,-5.0789,-5.2416,0.0,0.0,-5.553,-5.6703,-5.8324,-6.0133,-5.9538,-5.9204,-6.0061,-5.9488,-5.9017,-5.9366,-5.8621,-5.8625,-6.038,-6.1743,-6.3203,-6.4627,-6.4508,-6.4182,-6.4582,-6.4358,-6.3865,-6.3865,-6.3259,-6.2917,-6.2842,-6.2917,-6.3031,-6.3751,-6.3183,-6.2842,-6.36,-6.3234,-6.2748,-2.7226,-2.5983,-2.5207,-2.4851,-2.4617,-2.4263,-2.4326,-2.4787,-2.4681,-2.4902,-2.5449,-2.5464,-2.5824,-2.6428,-2.6017,-2.6554,-2.7814,-2.773,-2.8571,-3.0092,-3.1082,-3.1874,-3.2332,-3.2877,-3.3378,-3.3722,-3.3888,-3.4842,-3.6415,-3.6199,-3.6769,-3.8,-3.7812,-3.7186,-3.6344,-3.7921,-3.8914,-3.9362,-4.0561,-4.1562,-4.2243,-4.231,-4.2537,-4.2845,-4.1925,-4.1884,-4.2768,-4.2009,-4.2159,-4.3258,-4.1935,-4.1027,-4.0738,-3.7955,0.0,0.0,0.0,0.0,0.0,0.0,0.0,0.0,0.0,-3.8726,-3.6765,0.0,-4.1374,0.0,-4.3275,-4.5469,-4.7406,-4.8147,0.0,0.0,-5.0906,-5.171,-5.2542,-5.3905,-5.4285,-5.2933,-5.5808,-5.7664,-5.7133,-5.7769,-5.8906,-6.0493,-5.9623,-5.91,-5.9925,-6.0373,-6.1,-6.2006,-6.1291,-6.1472,-6.3685,-6.4488,-6.4747,-6.5009,-6.4833,-6.4799,-6.4888,-6.5267,-6.5533,-6.5533,-6.595,-6.6177,-6.6101,-6.6215,-6.6215,-6.6367,-6.5343,-6.4547,-6.5343,-6.5764,-6.603,-2.7714,-2.678,-2.6256,-2.5774,-2.523,-2.3754,-2.3414,-2.3867,-2.3953,-2.4513,-2.5574,-2.6065,-2.6554,-2.7011,-2.6831,-2.7299,-2.8069,-2.8077,-2.8793,-3.0106,-3.0987,-3.1783,-3.2461,-3.3157,-3.3536,-3.3744,-3.4293,-3.5037,-3.5946,-3.6415,-3.7322,-3.8657,-3.9325,-3.9373,-3.8865,-3.9611,-4.0014,-4.0035,-4.1263,-4.2305,-4.3108,-4.3022,-4.2908,-4.2852,-4.2073,-4.1941,-4.263,-4.1864,-4.2132,-4.3348,-4.209,-4.1444,-4.1646,-3.9588,-3.844,0.0,0.0,0.0,0.0,0.0,0.0,0.0,0.0,0.0,0.0,0.0,-4.4302,-4.6131,-4.7624,-4.9346,-5.144,-5.2103,-5.2877,-5.4064,-5.4952,-5.5801,-5.6602,-5.7887,-5.8228,-5.6933,-5.8297,-5.936,-5.9333,-5.9503,-5.99,-6.0809,-6.0538,-6.0419,-6.0866,-6.1312,-6.2007,-6.3243,-6.2799,-6.2964,-6.5158,-6.5015,-6.4946,-6.5331,-6.5221,-6.5069,-6.5381,-6.5798,-6.6101,-6.6139,-6.6518,-6.6973,-6.7314,-6.739,-6.7466,-6.7731,-6.72,-6.667,-6.667,-6.7049,-6.739,-2.8336,-2.7774,-2.7112,-2.6403,-2.5434,-2.3183,-2.2492,-2.2969,-2.2862,-2.3937,-2.5692,-2.6528,-2.7044,-2.7231,-2.7149,-2.7313,-2.7696,-2.7638,-2.8155,-2.9238,-3.019,-3.1018,-3.1856,-3.3016,-3.3605,-3.3675,-3.4361,-3.4971,-3.5529,-3.6662,-3.7884,-3.925,-4.0183,-4.0816,-4.1052,-4.1013,-4.0849,-4.0558,-4.194,-4.2984,-4.3672,-4.343,-4.3155,-4.2757,-4.2412,-4.2316,-4.2484,-4.194,-4.2172,-4.331,-4.207,-4.1791,-4.2868,-4.1701,-4.1036,0.0,-4.0765,0.0,0.0,0.0,0.0,0.0,0.0,0.0,0.0,-4.5526,-4.7489,-5.1927,-5.2185,-5.3159,-5.5645,-5.5887,-5.6511,-5.8031,-5.8888,-5.9629,-6.0399,-6.114,-6.1568,-6.1568,-6.1484,-6.133,-6.1158,-6.1074,-6.0925,-6.0882,-6.1434,-6.1874,-6.2144,-6.232,-6.2805,-6.3554,-6.3643,-6.3953,-6.4704,-6.4448,-6.4567,-6.5682,-6.5606,-6.5414,-6.6139,-6.6404,-6.648,-6.648,-6.6708,-6.6973,-6.7617,-6.7769,-6.7996,-6.8641,-6.8679,-6.8451,-6.7958,-6.7807,-6.7693,-2.8052,-2.663,-2.6445,-2.541,-2.3808,-2.335,-2.3496,-2.4179,-2.4075,-2.4902,-2.621,-2.6699,-2.7126,-2.7348,-2.6693,-2.6528,-2.6753,-2.6008,-2.6543,-2.806,-2.8856,-3.0189,-3.1856,-3.2988,-3.3675,-3.3882,-3.4534,-3.5365,-3.6197,-3.7001,-3.8134,-3.9508,-4.0602,-4.1163,-4.1147,0.0,0.0,0.0,-4.4339,-4.5098,-4.5609,-4.4574,-4.4162,-4.445,-4.3041,0.0,-4.37,-4.3025,-4.3235,-4.4435,-4.3792,0.0,0.0,0.0,0.0,0.0,0.0,0.0,0.0,0.0,0.0,0.0,-4.8699,-4.8313,-4.8166,-5.0538,-5.3604,-5.7148,-5.6946,-5.7329,-5.9139,-5.9389,-5.9818,-6.0737,-6.0971,-6.1158,-6.1334,-6.149,-6.1568,-6.1607,-6.1383,-6.1142,-6.0979,-6.0762,-6.066,-6.0674,-6.1196,-6.1934,-6.2689,-6.3399,-6.427,-6.509,-6.4967,-6.4845,-6.4909,-6.4841,-6.5148,-6.5836,-6.6025,-6.6215,-6.7011,-6.7693,-6.811,-6.8072,-6.8679,-6.9133,-6.9361,-6.9399,-6.9361,-6.9626,-6.9626,-6.9626,-6.9437,-6.9323,-6.9284,-2.9042,0.0,-2.7882,-2.7066,0.0,-2.5666,-2.5612,-2.5611,-2.4674,-2.5061,-2.6528,-2.713,-2.7461,-2.7371,-2.6852,-2.6795,-2.7012,-2.6813,-2.7496,-2.8922,-2.9779,-3.0923,-3.2245,-3.3297,-3.3956,-3.4409,-3.5098,-3.6022,-3.7208,-3.7994,-3.9116,-4.0701,-4.1654,-4.2375,-4.2809,-4.4039,-4.4593,-4.4495,-4.522,-4.5936,-4.6564,-4.5698,-4.5255,-4.5401,0.0,0.0,0.0,0.0,0.0,0.0,0.0,0.0,0.0,0.0,0.0,-4.7787,-4.8024,-4.8454,-4.9324,-5.0194,-5.143,-5.3104,-5.4064,-5.3269,-5.0343,-5.4006,-5.7512,-6.0002,-5.9521,-5.9545,-6.0768,-6.0971,-6.1166,-6.1547,-6.1586,-6.1578,-6.1568,-6.1568,-6.1588,-6.1623,-6.1701,-6.1715,-6.1677,-6.1757,-6.1732,-6.1697,-6.2357,-6.3006,-6.3367,-6.3838,-6.4508,-6.5413,-6.5747,-6.5889,-6.6094,-6.6137,-6.6404,-6.7125,-6.7352,-6.7504,-6.7921,-6.8337,-6.8603,-6.8641,-6.8982,-6.9361,-6.9816,-6.9891,-6.9891,-6.9891,-6.9891,-6.9891,-6.9891,-6.9853,-6.9815,-3.0166,-2.9606,-2.9584,-2.936,-2.879,-2.8429,-2.8055,-2.7562,0.0,0.0,0.0,-2.7719,-2.7874,-2.7543,-2.7335,-2.7443,-2.7885,-2.8098,-2.8973,-3.0355,-3.1181,-3.2126,-3.3079,-3.3917,-3.4524,-3.5081,-3.574,-3.673,-3.8019,-3.8994,-4.0227,-4.1814,-4.2808,-4.3687,-4.4674,-4.5563,-4.5754,-4.5256,-4.5685,-4.6362,-4.7255,-4.6644,-4.6278,-4.6285,-4.5935,-4.5819,-4.5998,-4.5647,-4.5879,-4.6809,-4.6396,-4.6952,-4.8659,-4.9097,-4.9985,-5.1522,-5.2052,-5.2578,-5.324,-5.4297,-5.546,-5.6873,-5.8423,-5.7504,-5.3196,-5.686,-5.9937,-6.1478,-6.0956,-6.0815,-6.1529,-6.1568,-6.1568,-6.1568,-6.1568,-6.1646,-6.1802,-6.1783,-6.1857,-6.1966,-6.2305,-6.2529,-6.2667,-6.281,-6.2978,-6.2997,-6.3503,-6.4314,-6.4405,-6.4374,-6.4578,-6.5289,-6.5893,-6.6619,-6.7538,-6.7428,-6.7769,-6.83,-6.8527,-6.8641,-6.8792,-6.883,-6.883,-6.8906,-6.883,-6.9171,-6.974,-6.9891,-6.9891,-6.9891,-6.9891,-6.9891,-6.9891,-7.0005,-7.0081,-3.0187,-2.9745,-2.9986,-3.0215,-3.0322,-3.0392,-3.0524,-3.0467,-2.7676,-2.6971,-2.7713,-2.8317,-2.8648,-2.8727,-2.8397,-2.8539,-2.8831,-2.8573,-2.9407,0.0,-3.1993,-3.31,-3.44,-3.528,-3.587,-3.6099,-3.6523,-3.7276,-3.8244,-3.9656,-4.0894,-4.2005,-4.3423,-4.4529,-4.5249,-4.5905,-4.6293,-4.6575,-4.6506,-4.7034,-4.8194,-4.7093,-4.6854,-4.7644,-4.7278,-4.7072,-4.7061,-4.7404,-4.7945,-4.8771,-4.8894,-4.9714,-5.1404,-5.1761,-5.2347,-5.339,-5.4927,-5.5833,-5.5957,-5.7421,-5.8423,-5.8749,-5.9645,-5.9754,-5.8948,-5.9675,-6.06,-6.1478,-6.1463,-6.1478,-6.1568,-6.1568,-6.1568,-6.1607,-6.1607,-6.188,-6.2572,-6.2522,-6.2638,-6.3308,-6.3284,-6.3168,-6.3205,-6.3142,-6.3131,-6.3112,-6.3779,-6.4657,-6.5557,-6.5493,-6.5166,-6.5407,-6.5939,-6.7192,-6.8713,-6.8261,-6.7996,-6.8451,-6.8679,-6.8906,-6.9512,-6.9588,-6.9588,-6.9664,-6.9626,-6.9702,-6.9891,-6.9891,-6.9891,-6.9891,-6.9891,-6.9891,-6.9967,-7.046,-7.0835,-3.1108,-3.1099,-3.115,-3.1456,-3.1825,-3.1612,-3.1675,-3.1783,-3.0103,-2.9259,-2.9137,-2.9283,-2.9386,-2.9593,-2.9542,-2.9805,-3.0406,-3.0597,-3.1164,-3.2226,-3.3295,-3.4187,-3.4948,-3.5638,-3.6346,-3.6953,-3.7382,-3.8232,-3.9554,-4.0732,-4.1786,-4.2709,-4.4011,-4.4961,-4.5494,-4.6055,-4.6507,-4.689,-4.706,-4.7514,-4.8307,-4.7868,-4.7861,-4.8472,-4.8461,-4.8531,-4.8613,-4.9501,-5.0144,-5.0533,-5.1124,-5.2067,-5.3426,-5.4128,-5.4902,-5.5862,-5.7147,-5.7883,-5.7868,-5.9039,-5.9589,-5.918,-6.0349,-6.085,-6.0245,-6.0773,-6.1257,-6.1541,-6.1564,-6.1595,-6.1568,-6.1568,-6.1568,-6.1568,-6.1987,-6.2346,-6.2639,-6.3026,-6.3424,-6.3845,-6.3968,-6.4064,-6.4385,-6.4336,-6.4297,-6.4245,-6.4527,-6.515,-6.6293,-6.6045,-6.5559,-6.5338,-6.6549,-6.8142,-6.9585,-6.936,-6.8944,-6.9247,-6.9285,-6.9475,-6.9854,-6.9891,-6.9891,-6.9891,-6.9891,-6.9891,-6.9891,-6.9891,-6.9891,-6.9891,-6.9891,-7.0005,-7.0498,-7.1365,-7.1841,-3.2129,-3.2489,-3.2661,-3.303,-3.3441,-3.312,-3.3057,-3.3088,-3.2381,-3.1743,-3.1048,-3.0676,-3.0524,-3.0688,-3.0973,-3.1624,-3.228,-3.2922,-3.3523,-3.4073,-3.5018,-3.5565,-3.5889,-3.6359,-3.6983,-3.7813,-3.8246,-3.9154,-4.0485,-4.1494,-4.2583,-4.3621,-4.4686,-4.5336,-4.5787,-4.6266,-4.686,-4.7463,-4.7886,-4.8181,-4.8383,-4.8569,-4.8896,-4.9355,-4.9732,-5.0043,-5.041,-5.1345,-5.2035,-5.2311,-5.3025,-5.3976,-5.52,-5.6068,-5.6975,-5.7936,-5.8831,-5.9386,-5.9599,-6.0243,-6.037,-5.9765,-6.0895,-6.1391,-6.0866,-6.1275,-6.1673,-6.1612,-6.1595,-6.1586,-6.1568,-6.1568,-6.1568,-6.1646,-6.2257,-6.2743,-6.2857,-6.3485,-6.4116,-6.4401,-6.4603,-6.4868,-6.5255,-6.5397,-6.5383,-6.5442,-6.5427,-6.5741,-6.665,-6.6812,-6.6476,-6.6587,-6.765,-6.8903,-6.9738,-6.9853,-6.9816,-6.9891,-6.9854,-6.9854,-6.9891,-6.9891,-6.9891,-6.9891,-6.9891,-6.9891,-6.9891,-6.9891,-6.9891,-6.9891,-6.9891,-7.0195,-7.1256,-7.2044,-7.2741,-3.3123,-3.3839,-3.4265,-3.4785,-3.529,-3.5631,-3.5496,-3.5081,-3.4667,-3.4221,-3.3623,-3.2771,-3.2463,-3.2621,-3.329,-3.3939,-3.4362,-3.5128,-3.5927,-3.6767,-3.7187,-3.7519,-3.7792,-3.8148,-3.8429,-3.8679,-3.9073,-3.9505,-4.0231,-4.1428,-4.2892,-4.4519,-4.5283,-4.5838,-4.6385,-4.6731,-4.7702,-4.9299,-4.9453,-4.927,-4.8783,-4.8956,-4.9621,-5.0808,-5.1033,-5.1535,-5.226,-5.2724,-5.3238,-5.4012,-5.4321,-5.5209,-5.6725,-5.73,-5.7892,-5.8802,-5.9689,-6.0486,-6.1253,-6.1446,-6.1417,-6.1406,-6.1481,-6.1616,-6.1549,-6.1573,-6.1603,-6.1595,-6.1586,-6.1568,-6.1568,-6.1568,-6.1607,-6.1705,-6.2238,-6.2818,-6.3573,-6.4113,-6.4691,-6.5461,-6.5493,-6.5367,-6.5558,-6.5528,-6.5727,-6.6319,-6.615,-6.6615,-6.8057,-6.8291,-6.856,-6.9013,-6.9205,-6.9019,-6.9702,-6.9854,-6.9929,-6.9929,-6.9929,-7.0043,-7.0119,-7.0119,-6.9929,-7.0384,-7.0081,-7.0157,-7.0081,-6.9891,-7.0005,-7.027,-7.0308,-7.046,-7.1787,-7.2429,-7.269,-3.4724,-3.5132,-3.5297,-3.6042,-3.6845,-3.7193,-3.725,-3.7268,-3.6891,-3.6381,-3.5897,-3.5455,-3.4711,-3.3784,-3.4357,-3.5063,-3.5763,-3.623,-3.6831,-3.7443,-3.7825,-3.8127,-3.8381,-3.8575,-3.887,-3.9192,-3.9481,-3.998,-4.0888,-4.2173,-4.3898,-4.5726,-4.6239,-4.7061,-4.8314,-4.8836,-4.9537,-5.0491,-5.0887,-5.1003,-5.096,-5.0922,-5.1231,-5.183,-5.203,-5.2348,-5.2829,-5.3407,-5.4002,-5.4515,-5.5499,-5.6265,-5.665,-5.8182,-5.9032,-5.9113,-6.0317,-6.1237,-6.1576,-6.1632,-6.1665,-6.164,-6.1672,-6.1651,-6.1648,-6.1619,-6.1595,-6.1586,-6.1578,-6.1568,-6.1607,-6.1559,-6.1734,-6.2223,-6.2818,-6.3507,-6.4193,-6.5264,-6.6062,-6.627,-6.6651,-6.6827,-6.6789,-6.6351,-6.6396,-6.694,-6.6764,-6.6964,-6.8481,-6.8713,-6.9056,-6.97,-6.9588,-6.955,-6.9853,-6.9891,-7.0081,-7.046,-7.0612,-7.0687,-7.118,-7.137,-7.137,-7.1332,-7.1256,-7.1256,-7.1445,-7.137,-7.137,-7.1332,-7.1824,-7.2241,-7.2393,-7.2772,-7.3298,-3.6112,-3.6463,-3.6666,-3.7335,-3.8342,-3.8688,-3.891,-3.9059,-3.8783,-3.8419,-3.805,-3.7889,-3.7123,-3.5846,-3.5683,-3.5951,-3.6615,-3.7056,-3.7443,-3.7749,-3.8127,-3.8427,-3.8649,-3.887,-3.9162,-3.9481,-3.995,-4.0919,-4.2366,-4.3427,-4.5173,-4.7056,-4.7553,-4.852,-4.988,-5.0501,-5.1157,-5.1809,-5.2247,-5.2731,-5.3133,-5.3225,-5.3136,-5.3048,-5.3085,-5.3336,-5.3683,-5.4348,-5.4821,-5.4975,-5.6188,-5.6924,-5.7067,-5.8787,-5.9786,-5.981,-6.0893,-6.1582,-6.1573,-6.1629,-6.1757,-6.1985,-6.185,-6.1749,-6.1914,-6.1963,-6.1976,-6.1997,-6.2153,-6.227,-6.1948,-6.2084,-6.2468,-6.3015,-6.3618,-6.4154,-6.4594,-6.5935,-6.6739,-6.6782,-6.7286,-6.7782,-6.7553,-6.6924,-6.6712,-6.7431,-6.711,-6.7121,-6.8637,-6.9094,-6.9209,-6.9778,-6.9891,-6.9891,-6.9891,-7.0157,-7.0498,-7.0877,-7.118,-7.1635,-7.2279,-7.2317,-7.2355,-7.19,-7.2241,-7.2317,-7.2052,-7.2203,-7.2393,-7.2507,-7.2848,-7.3149,-7.2886,-7.3225,-7.3586,-3.6967,-3.7946,-3.8515,-3.8997,-3.959,-4.046,-4.0548,-4.0122,-4.0421,-4.0291,-3.9852,-3.9952,-3.9731,-3.8986,-3.7678,-3.7084,-3.7289,-3.7749,-3.8052,-3.8277,-3.8427,-3.8723,-3.9119,-3.9265,-3.9553,-3.995,-4.0752,-4.2494,-4.4942,-4.5331,-4.6611,-4.8679,-4.9359,-5.001,-5.0688,-5.1343,-5.2198,-5.3263,-5.3547,-5.4127,-5.5155,-5.5455,-5.5091,-5.4408,-5.4309,-5.4677,-5.5395,-5.5731,-5.5807,-5.5825,-5.6287,-5.7106,-5.8453,-5.8939,-5.9818,-6.1205,-6.1549,-6.1612,-6.1631,-6.1679,-6.1977,-6.2569,-6.2109,-6.1954,-6.2522,-6.2591,-6.262,-6.2815,-6.3361,-6.3507,-6.3047,-6.3359,-6.3741,-6.3852,-6.4289,-6.4552,-6.4624,-6.5876,-6.6629,-6.6865,-6.7591,-6.7897,-6.7095,-6.6612,-6.7044,-6.7626,-6.7639,-6.799,-6.9321,-6.9815,-6.9816,-6.9854,-6.9929,-6.9891,-6.9929,-7.0195,-7.0725,-7.1332,-7.1787,-7.2355,-7.2355,-7.2393,-7.2469,-7.2507,-7.2734,-7.2734,-7.2507,-7.2469,-7.2583,-7.2696,-7.2732,-7.2922,-7.3106,-7.3048,-7.3319,-4.0321,-4.0106,-4.0487,-4.0562,-4.0658,-4.231,-4.2615,-4.1907,-4.2637,-4.2465,-4.1763,-4.1459,-4.1151,-4.083,-4.0396,-3.9654,-3.887,-3.8694,-3.8841,-3.9247,-3.9493,-3.9707,-3.999,-4.0585,-4.0961,-4.1229,-4.169,-4.2896,-4.4722,-4.6204,-4.7877,-4.9441,-5.0654,-5.174,-5.279,-5.3328,-5.3905,-5.4524,-5.4726,-5.5107,-5.5609,-5.5827,-5.573,-5.5513,-5.5498,-5.5652,-5.5956,-5.5995,-5.6317,-5.6961,-5.7548,-5.8215,-5.89,-5.9545,-6.0405,-6.1447,-6.1623,-6.1872,-6.2341,-6.2407,-6.2535,-6.2797,-6.2625,-6.2297,-6.2123,-6.2075,-6.227,-6.2932,-6.3634,-6.4042,-6.436,-6.4259,-6.4234,-6.442,-6.4619,-6.4855,-6.5282,-6.6068,-6.6896,-6.7515,-6.8585,-6.9349,-6.8744,-6.8035,-6.7855,-6.8925,-6.8253,-6.8373,-6.9474,-6.9929,-6.9929,-7.0005,-7.0308,-7.046,-6.9891,-7.0081,-7.0536,-7.1559,-7.2317,-7.3075,-7.3378,-7.3682,-7.3871,-7.3757,-7.3757,-7.372,-7.3644,-7.3682,-7.3606,-7.3265,-7.326,-7.3292,-7.3274,-7.3169,-7.3147,-4.2496,-4.1956,-4.2336,-4.2367,-4.2478,-4.4108,-4.4519,-4.3907,-4.4489,-4.4334,-4.3731,-4.332,-4.2985,-4.2763,-4.289,-4.2345,-4.1155,-4.0629,-4.0557,-4.0953,-4.1093,-4.1403,-4.1679,-4.2224,-4.262,-4.2816,-4.316,-4.4206,-4.6048,-4.7725,-4.9414,-5.1151,-5.2188,-5.3199,-5.4288,-5.4685,-5.4981,-5.5288,-5.5485,-5.5647,-5.5865,-5.5973,-5.6211,-5.6534,-5.6611,-5.6427,-5.6141,-5.6397,-5.6869,-5.7612,-5.841,-5.9056,-5.9474,-6.0275,-6.1052,-6.1548,-6.1677,-6.1913,-6.2436,-6.2725,-6.3006,-6.3271,-6.3263,-6.3068,-6.2815,-6.2805,-6.3156,-6.3741,-6.4432,-6.5178,-6.5492,-6.5414,-6.5219,-6.5218,-6.5114,-6.5149,-6.5475,-6.646,-6.7546,-6.8585,-6.9349,-6.9884,-6.978,-6.8574,-6.8468,-6.9614,-6.8749,-6.883,-6.9663,-7.0195,-7.027,-7.0346,-7.0725,-7.0953,-7.0915,-7.1104,-7.0839,-7.1597,-7.2999,-7.3795,-7.4174,-7.4629,-7.4895,-7.4895,-7.4895,-7.4895,-7.4895,-7.4895,-7.4591,-7.4096,-7.4093,-7.4124,-7.3753,-7.3204,-7.3205,-4.3442,-4.3458,-4.4035,-4.4516,-4.4876,-4.5725,-4.6103,-4.5978,-4.5786,-4.5758,-4.5583,-4.5509,-4.511,-4.4883,-4.4967,-4.4793,-4.4317,-4.3542,-4.3028,-4.2973,-4.3183,-4.349,-4.3831,-4.4102,-4.4464,-4.4754,-4.5176,-4.6916,-4.9307,-4.98,-5.1151,-5.3198,-5.3828,-5.4246,-5.4661,-5.5119,-5.5413,-5.5531,-5.5748,-5.5941,-5.6029,-5.6194,-5.6719,-5.748,-5.7663,-5.7281,-5.6325,-5.7146,-5.7663,-5.7842,-5.8588,-5.9474,-6.0444,-6.1231,-6.1676,-6.1872,-6.1835,-6.1785,-6.1939,-6.268,-6.3505,-6.3955,-6.4101,-6.4335,-6.4637,-6.4849,-6.4966,-6.5172,-6.5762,-6.6426,-6.6594,-6.6904,-6.6825,-6.6256,-6.5881,-6.587,-6.5906,-6.6965,-6.847,-6.9693,-6.9769,-6.924,-6.8946,-6.846,-6.8388,-6.9008,-6.9355,-6.9586,-6.9928,-7.0422,-7.0877,-7.0953,-7.0991,-7.1104,-7.1749,-7.2317,-7.1787,-7.1711,-7.3303,-7.444,-7.4326,-7.4553,-7.4857,-7.4895,-7.4895,-7.4895,-7.4895,-7.4895,-7.4895,-7.4588,-7.4774,-7.4525,-7.3989,-7.3426,-7.3141,-4.5486,-4.5595,-4.6017,-4.5943,-4.5867,-4.718,-4.7219,-4.6346,-4.6854,-4.7003,-4.6582,-4.6684,-4.6734,-4.6776,-4.7011,-4.7111,-4.7078,-4.6848,-4.583,-4.4285,-4.4359,-4.4789,-4.5304,-4.5929,-4.6666,-4.743,-4.7994,-4.8876,-5.0168,-5.1372,-5.2565,-5.3461,-5.4473,-5.5026,-5.5212,-5.5455,-5.5626,-5.5728,-5.5847,-5.6244,-5.6946,-5.708,-5.7585,-5.8452,-5.8598,-5.8394,-5.8148,-5.8403,-5.8851,-5.9397,-5.9746,-6.0549,-6.185,-6.2407,-6.2812,-6.3341,-6.3403,-6.3695,-6.4185,-6.4393,-6.4656,-6.4919,-6.4977,-6.4771,-6.4538,-6.4555,-6.4816,-6.5255,-6.5582,-6.6076,-6.7136,-6.7346,-6.7033,-6.6135,-6.6819,-6.7072,-6.6651,-6.7775,-6.8852,-6.9464,-6.9807,-6.9966,-6.9713,-6.9108,-6.8815,-6.9391,-6.9397,-6.936,-6.9853,-7.0271,-7.027,-7.027,-7.0649,-7.1332,-7.1938,-7.262,-7.2696,-7.2507,-7.3644,-7.4402,-7.4364,-7.4516,-7.4781,-7.4895,-7.4895,-7.4895,-7.4895,-7.4895,-7.4895,-7.4691,-7.4438,-7.4177,-7.3896,-7.3553,-7.3141,-4.6991,-4.7213,-4.741,-4.725,-4.7109,-4.8461,-4.8462,-4.7774,-4.8445,-4.8385,-4.7944,-4.7931,-4.7836,-4.7836,-4.8096,-4.8289,-4.8386,-4.8639,-4.7881,-4.651,-4.6477,-4.682,-4.7214,-4.8072,-4.8855,-4.9615,-5.0036,-5.0611,-5.1377,-5.2447,-5.3365,-5.4107,-5.4931,-5.5399,-5.5544,-5.5691,-5.5827,-5.5882,-5.6007,-5.6558,-5.7327,-5.7558,-5.8353,-5.965,-5.9659,-5.9988,-6.0715,-6.0332,-6.0059,-6.041,-6.0867,-6.1811,-6.2812,-6.3203,-6.3666,-6.4062,-6.4236,-6.4404,-6.49,-6.5085,-6.5387,-6.5416,-6.5717,-6.5706,-6.52,-6.501,-6.5297,-6.5711,-6.618,-6.6659,-6.7549,-6.8123,-6.7818,-6.7055,-6.7564,-6.7947,-6.7775,-6.8547,-6.9311,-6.9616,-6.9775,-7.0014,-7.0023,-6.9462,-6.9239,-6.9662,-6.974,-6.9626,-7.0195,-7.0384,-7.0422,-7.0536,-7.0953,-7.1559,-7.2128,-7.2772,-7.3454,-7.3606,-7.3947,-7.4174,-7.4174,-7.4553,-7.4895,-7.4895,-7.4895,-7.4895,-7.4895,-7.4895,-7.4854,-7.4563,-7.4214,-7.3944,-7.3703,-7.3298,-7.2963,-4.7934,-4.8385,-4.8355,-4.846,-4.8677,-4.934,-4.9742,-4.9974,-5.0112,-4.9909,-4.9509,-4.936,-4.896,-4.8492,-4.9005,-4.9255,-4.9052,-4.9358,-4.9767,-4.97,-4.9631,-4.9505,-4.9664,-5.0258,-5.0865,-5.1318,-5.142,-5.2038,-5.3057,-5.3327,-5.3935,-5.5097,-5.5346,-5.55,-5.571,-5.5864,-5.6123,-5.6265,-5.642,-5.7002,-5.7865,-5.7946,-5.9113,-6.1422,-6.0963,-6.1541,-6.311,-6.2306,-6.1174,-6.0739,-6.198,-6.2851,-6.3078,-6.3742,-6.4281,-6.4403,-6.4353,-6.4521,-6.4606,-6.5241,-6.5582,-6.566,-6.6195,-6.6702,-6.6457,-6.6295,-6.6309,-6.6516,-6.7047,-6.7588,-6.7907,-6.8684,-6.8969,-6.8641,-6.8272,-6.8418,-6.912,-6.9311,-6.9655,-7.0004,-6.9671,-6.9337,-7.0071,-6.9429,-6.9397,-6.974,-7.0346,-7.0574,-7.0839,-7.0915,-7.1445,-7.1521,-7.1445,-7.1938,-7.2507,-7.2999,-7.3644,-7.4212,-7.4364,-7.4288,-7.4288,-7.4667,-7.4895,-7.4895,-7.4895,-7.4895,-7.4854,-7.4812,-7.4691,-7.4394,-7.4122,-7.3848,-7.3452,-7.3071,-7.2798,-4.8872,-4.9868,-4.9582,-4.9501,-4.9582,-5.0058,-5.0205,-5.0209,-5.0818,-5.0988,-5.0826,-5.0916,-5.1089,-5.1434,-5.1696,-5.2079,-5.2151,-5.2004,-5.2006,-5.2074,-5.1779,-5.1565,-5.1593,-5.2029,-5.2608,-5.3047,-5.32,-5.374,-5.4544,-5.4618,-5.4982,-5.55,-5.5728,-5.5904,-5.6084,-5.68,-5.713,-5.7261,-5.791,-5.8581,-5.9316,-5.9552,-6.0573,-6.2265,-6.2311,-6.2842,-6.4008,-6.3163,-6.2187,-6.1555,-6.2928,-6.3513,-6.3217,-6.4297,-6.5055,-6.5168,-6.5658,-6.6,-6.602,-6.6205,-6.6322,-6.6361,-6.6691,-6.6669,-6.6645,-6.6633,-6.6607,-6.662,-6.681,-6.7238,-6.7775,-6.8488,-6.8847,-6.9021,-6.8908,-6.9158,-6.9769,-7.0113,-7.0157,-7.0243,-7.0057,-7.0026,-6.9959,-6.9813,-6.9662,-6.9891,-7.0157,-7.0612,-7.0991,-7.0801,-7.0991,-7.1673,-7.19,-7.2393,-7.2886,-7.3341,-7.3871,-7.4553,-7.4743,-7.4629,-7.4629,-7.4819,-7.4895,-7.4895,-7.4895,-7.4895,-7.4733,-7.4691,-7.4482,-7.435,-7.3848,-7.3503,-7.3231,-7.2853,-7.2723,-4.9197,-4.971,-5.0104,-5.0136,-5.0058,-5.08,-5.1099,-5.1139,-5.1855,-5.2201,-5.2209,-5.2509,-5.2785,-5.312,-5.3329,-5.3727,-5.4072,-5.3878,-5.3965,-5.4326,-5.4428,-5.3875,-5.3193,-5.3256,-5.3721,-5.4317,-5.4452,-5.4752,-5.5199,-5.5423,-5.5775,-5.6271,-5.6459,-5.6792,-5.7358,-5.7779,-5.8117,-5.8169,-5.871,-5.9348,-6.0147,-6.0683,-6.1816,-6.3095,-6.3455,-6.3742,-6.414,-6.4401,-6.4005,-6.3196,-6.3344,-6.3711,-6.4067,-6.4825,-6.5589,-6.5904,-6.6449,-6.6673,-6.68,-6.6985,-6.7197,-6.728,-6.7411,-6.7645,-6.751,-6.7247,-6.6927,-6.6954,-6.6916,-6.7325,-6.8065,-6.8876,-6.9432,-6.9674,-6.9693,-6.9769,-6.9922,-6.9807,-7.0042,-7.02,-7.0251,-7.022,-7.0076,-7.0003,-6.9929,-6.9929,-6.9891,-7.0649,-7.1332,-7.0801,-7.0915,-7.2014,-7.2393,-7.2696,-7.3151,-7.3606,-7.3757,-7.444,-7.4478,-7.4478,-7.4781,-7.4781,-7.4553,-7.4516,-7.4743,-7.4778,-7.4506,-7.4422,-7.4563,-7.4305,-7.3703,-7.3298,-7.3124,-7.2742,-7.261,-4.9147,-4.9178,-5.0416,-5.0647,-5.0493,-5.1549,-5.2098,-5.2416,-5.3112,-5.3437,-5.3556,-5.3997,-5.4169,-5.3958,-5.4629,-5.472,-5.5254,-5.5249,-5.5527,-5.6068,-5.6396,-5.5939,-5.4611,-5.464,-5.5007,-5.5437,-5.5331,-5.5658,-5.6115,-5.6151,-5.6541,-5.7232,-5.7521,-5.797,-5.845,-5.8803,-5.8933,-5.8998,-5.9397,-6.0013,-6.0744,-6.1499,-6.2647,-6.4057,-6.457,-6.4605,-6.4978,-6.5529,-6.5712,-6.4476,-6.3694,-6.4138,-6.5202,-6.528,-6.5738,-6.6283,-6.6496,-6.6652,-6.6751,-6.7225,-6.7735,-6.7733,-6.835,-6.894,-6.8488,-6.7948,-6.7464,-6.7309,-6.7304,-6.7497,-6.8366,-6.9655,-7.0085,-7.0063,-7.0151,-6.9884,-6.9425,-6.9273,-6.9616,-7.0233,-7.0251,-7.0185,-7.0114,-7.0041,-6.9891,-6.9929,-7.0119,-7.0915,-7.1559,-7.1559,-7.2166,-7.3378,-7.3341,-7.2924,-7.3378,-7.3833,-7.3909,-7.4136,-7.3947,-7.4023,-7.4553,-7.4553,-7.4099,-7.3947,-7.4099,-7.4099,-7.3944,-7.4052,-7.4417,-7.426,-7.3752,-7.3401,-7.3141,-7.2742,-7.2496,-5.0506,-5.1769,-5.1769,-5.1769,-5.1842,-5.2416,-5.2627,-5.2836,-5.3912,-5.4447,-5.4678,-5.5145,-5.5757,-5.6378,-5.66,-5.7235,-5.7617,-5.736,-5.7155,-5.677,-5.7169,-5.7279,-5.6831,-5.6823,-5.694,-5.7149,-5.7302,-5.7497,-5.7716,-5.7719,-5.8065,-5.8325,-5.8467,-5.8575,-5.8916,-5.9619,-5.9904,-6.0022,-6.0585,-6.1303,-6.1893,-6.2375,-6.3398,-6.4998,-6.5762,-6.617,-6.607,-6.5796,-6.5706,-6.5873,-6.5826,-6.5358,-6.5036,-6.5689,-6.6046,-6.5881,-6.6257,-6.6489,-6.647,-6.6694,-6.699,-6.7631,-6.7929,-6.8181,-6.8762,-6.8336,-6.7852,-6.7444,-6.6825,-6.7123,-6.8296,-6.9229,-6.9711,-6.9757,-6.9616,-6.954,-6.9387,-6.9666,-7.0014,-7.0209,-7.0147,-7.0039,-7.0039,-7.0004,-6.9929,-6.9967,-7.0536,-7.1256,-7.1711,-7.209,-7.3075,-7.4174,-7.4023,-7.3606,-7.3871,-7.4136,-7.3947,-7.3833,-7.3606,-7.3298,-7.3866,-7.3904,-7.3336,-7.3263,-7.3416,-7.3454,-7.372,-7.4006,-7.4482,-7.4131,-7.38,-7.3452,-7.3124,-7.2779,-7.2532,-5.057,-5.1401,-5.2092,-5.2449,-5.2487,-5.2974,-5.3382,-5.3781,-5.4425,-5.5164,-5.568,-5.6313,-5.7007,-5.7721,-5.8083,-5.8628,-5.9178,-5.9284,-5.9063,-5.8852,-5.9064,-5.9187,-5.9258,-5.9104,-5.8973,-5.8373,-5.8187,-5.8374,-5.8528,-5.8678,-5.8789,-5.932,-5.9405,-5.9745,-6.0032,-6.0565,-6.0825,-6.0916,-6.1315,-6.1846,-6.226,-6.2773,-6.3738,-6.5321,-6.6304,-6.6783,-6.6615,-6.6185,-6.6153,-6.6347,-6.6478,-6.6192,-6.5362,-6.5622,-6.5761,-6.5926,-6.605,-6.6384,-6.6334,-6.6683,-6.711,-6.7386,-6.7789,-6.8458,-6.8822,-6.8629,-6.839,-6.8164,-6.7705,-6.7475,-6.8589,-6.9451,-6.9788,-6.9833,-6.9731,-6.9769,-6.9737,-6.978,-6.9904,-7.0099,-7.0111,-7.0039,-6.9966,-6.9967,-6.9929,-6.9929,-7.0574,-7.1332,-7.2166,-7.2658,-7.353,-7.4326,-7.4364,-7.4364,-7.4516,-7.444,-7.4023,-7.372,-7.3341,-7.2913,-7.2864,-7.2717,-7.2419,-7.2762,-7.3219,-7.3644,-7.3944,-7.4228,-7.4356,-7.4214,-7.3848,-7.3452,-7.3071,-7.2779,-7.2553,-5.026,-5.057,-5.2236,-5.287,-5.2941,-5.3516,-5.4205,-5.4799,-5.5129,-5.5851,-5.6616,-5.7255,-5.7904,-5.8461,-5.891,-5.943,-5.9968,-6.0367,-6.0371,-6.0432,-6.0537,-6.0655,-6.0768,-6.0648,-6.0261,-5.8935,-5.905,-5.9177,-5.9226,-5.9181,-5.9731,-6.0226,-6.037,-6.0644,-6.1305,-6.155,-6.16,-6.1783,-6.1889,-6.2301,-6.2617,-6.3298,-6.4392,-6.5613,-6.6346,-6.6702,-6.663,-6.6465,-6.645,-6.6334,-6.6338,-6.6281,-6.6069,-6.5717,-6.5467,-6.6203,-6.6224,-6.6244,-6.6264,-6.6748,-6.7134,-6.7216,-6.7834,-6.8613,-6.8989,-6.9129,-6.896,-6.88,-6.8513,-6.8425,-6.9152,-6.984,-7.026,-7.0342,-7.0381,-7.0419,-7.0271,-6.9704,-6.979,-7.0061,-7.0147,-6.9965,-6.9966,-6.9929,-6.9929,-7.0005,-7.0687,-7.137,-7.2203,-7.3075,-7.3871,-7.4478,-7.4591,-7.4591,-7.4781,-7.4781,-7.4326,-7.4061,-7.353,-7.3219,-7.2784,-7.293,-7.3048,-7.2859,-7.3204,-7.351,-7.3775,-7.3935,-7.4026,-7.4139,-7.3848,-7.335,-7.3017,-7.2779,-7.261,-5.1262,-5.2661,-5.3041,-5.3516,-5.4072,-5.4425,-5.4861,-5.5543,-5.6295,-5.684,-5.7157,-5.7994,-5.8673,-5.9178,-5.9496,-6.0027,-6.0503,-6.077,-6.0904,-6.0982,-6.1074,-6.1126,-6.119,-6.1264,-6.1031,-6.0953,-6.072,-6.067,-6.0761,-6.0981,-6.0812,-6.1162,-6.1214,-6.1417,-6.1479,-6.1662,-6.2036,-6.2466,-6.2695,-6.3276,-6.42,-6.4721,-6.5237,-6.626,-6.6564,-6.6624,-6.6543,-6.6392,-6.6299,-6.6165,-6.6052,-6.6005,-6.6013,-6.5973,-6.6013,-6.6049,-6.6144,-6.6102,-6.609,-6.6097,-6.6536,-6.6948,-6.7256,-6.7757,-6.8629,-6.9536,-6.9414,-6.9011,-6.9,-6.9138,-6.9253,-6.9993,-7.0342,-7.0419,-7.0419,-7.0419,-7.0348,-7.02,-7.0019,-7.0179,-7.0073,-6.9965,-6.9966,-6.9929,-6.9929,-7.0081,-7.0649,-7.1256,-7.1976,-7.2924,-7.3871,-7.4402,-7.4857,-7.4857,-7.4895,-7.4895,-7.4705,-7.4667,-7.4364,-7.4323,-7.4002,-7.4023,-7.3935,-7.3357,-7.2958,-7.3025,-7.3279,-7.3663,-7.3757,-7.3763,-7.3503,-7.3231,-7.2963,-7.2723,-7.261,-5.1377,-5.3078,-5.3516,-5.4136,-5.4887,-5.5069,-5.5543,-5.6185,-5.684,-5.7389,-5.7904,-5.8591,-5.9178,-5.9601,-5.9924,-6.0393,-6.0848,-6.1065,-6.1182,-6.1235,-6.1264,-6.1344,-6.1343,-6.144,-6.1471,-6.149,-6.15,-6.151,-6.1479,-6.1429,-6.1507,-6.1507,-6.1528,-6.1559,-6.1742,-6.2128,-6.2478,-6.3007,-6.3467,-6.4072,-6.4955,-6.5289,-6.5808,-6.6009,-6.6478,-6.6567,-6.6461,-6.6351,-6.6225,-6.6097,-6.5982,-6.5947,-6.5972,-6.6044,-6.6097,-6.6029,-6.6005,-6.5982,-6.5897,-6.5872,-6.6038,-6.6307,-6.6396,-6.7022,-6.7993,-6.8887,-6.9404,-6.9574,-6.9513,-6.9872,-6.991,-7.0222,-7.0381,-7.0419,-7.0419,-7.0386,-7.0353,-7.0319,-7.0251,-7.0182,-7.0038,-6.9928,-6.9929,-6.9929,-6.9891,-7.0195,-7.0687,-7.1218,-7.1824,-7.2808,-7.3831,-7.4207,-7.4619,-7.485,-7.4891,-7.4891,-7.4895,-7.4895,-7.4895,-7.4854,-7.4649,-7.44,-7.3905,-7.3297,-7.3041,-7.282,-7.318,-7.3699,-7.3579,-7.3452,-7.3246,-7.3071,-7.2798,-7.2667,-7.2553,-5.1717,-5.3447,-5.4068,-5.4791,-5.5578,-5.5716,-5.624,-5.6876,-5.734,-5.7904,-5.8503,-5.9065,-5.9534,-5.9916,-6.0326,-6.0757,-6.1181,-6.1369,-6.1433,-6.1479,-6.1489,-6.1529,-6.1603,-6.1829,-6.1953,-6.2077,-6.205,-6.1804,-6.1595,-6.1539,-6.1568,-6.1586,-6.1627,-6.1751,-6.2063,-6.2577,-6.2978,-6.3711,-6.414,-6.4565,-6.4944,-6.5379,-6.5688,-6.5628,-6.6192,-6.6485,-6.6355,-6.6283,-6.6316,-6.6298,-6.6319,-6.6332,-6.6384,-6.6397,-6.632,-6.6167,-6.6013,-6.5897,-6.5872,-6.5846,-6.5832,-6.5947,-6.5712,-6.649,-6.7563,-6.8348,-6.8985,-7.0037,-7.0381,-7.0304,-7.0266,-7.0381,-7.0419,-7.0419,-7.0386,-7.0353,-7.0319,-7.0251,-7.0182,-7.0073,-6.9963,-7.008,-7.0195,-7.0081,-7.0081,-7.0725,-7.1218,-7.1332,-7.1976,-7.2803,-7.3632,-7.3968,-7.4384,-7.4729,-7.4846,-7.4891,-7.4891,-7.4895,-7.4895,-7.4854,-7.4649,-7.4394,-7.3943,-7.3559,-7.3242,-7.3192,-7.3479,-7.3466,-7.3193,-7.3017,-7.3017,-7.2908,-7.2667,-7.261,-7.2496,-5.3445,-5.4852,-5.5129,-5.5601,-5.6201,-5.633,-5.6964,-5.7747,-5.8208,-5.8673,-5.9065,-5.9575,-6.0,-6.0326,-6.0783,-6.1164,-6.1369,-6.146,-6.1507,-6.1559,-6.1655,-6.1673,-6.1744,-6.2512,-6.2524,-6.2496,-6.2618,-6.2379,-6.1905,-6.1749,-6.1671,-6.1676,-6.1803,-6.2013,-6.2617,-6.3142,-6.3789,-6.4999,-6.5351,-6.5725,-6.6244,-6.6381,-6.6357,-6.6322,-6.6338,-6.6299,-6.6205,-6.6183,-6.6306,-6.6794,-6.6923,-6.7321,-6.7936,-6.809,-6.7628,-6.7013,-6.6359,-6.5897,-6.5987,-6.6089,-6.6074,-6.6112,-6.5904,-6.6221,-6.7276,-6.8548,-6.9489,-7.0228,-7.0419,-7.0419,-7.0419,-7.0419,-7.0419,-7.0386,-7.0353,-7.0319,-7.0251,-7.0182,-7.0111,-7.0039,-6.9928,-7.0384,-7.0726,-7.046,-7.0346,-7.1104,-7.1673,-7.1711,-7.1897,-7.2608,-7.3495,-7.386,-7.4086,-7.4394,-7.4557,-7.4644,-7.4729,-7.4774,-7.4854,-7.4854,-7.4691,-7.4563,-7.4394,-7.4093,-7.3703,-7.3238,-7.3141,-7.3023,-7.2724,-7.2667,-7.2723,-7.2667,-7.2553,-7.2496,-7.2553,-5.5009,-5.5578,-5.5822,-5.633,-5.7015,-5.7216,-5.77,-5.8252,-5.875,-5.9065,-5.9397,-5.9906,-6.0376,-6.0757,-6.1109,-6.1356,-6.1472,-6.1507,-6.1528,-6.1754,-6.1976,-6.2032,-6.19,-6.2428,-6.2792,-6.254,-6.2326,-6.2455,-6.2184,-6.1952,-6.164,-6.1758,-6.2109,-6.2499,-6.3247,-6.3962,-6.4749,-6.549,-6.5992,-6.6401,-6.665,-6.6673,-6.6555,-6.6489,-6.6384,-6.6244,-6.6123,-6.6074,-6.6159,-6.6538,-6.6782,-6.6974,-6.7282,-6.7705,-6.7975,-6.7205,-6.7321,-6.7102,-6.673,-6.6946,-6.7034,-6.7036,-6.7016,-6.7408,-6.8105,-6.9068,-6.9954,-7.0342,-7.0419,-7.0419,-7.0419,-7.0419,-7.0419,-7.0386,-7.0319,-7.0251,-7.0182,-7.0111,-7.0039,-6.9966,-6.9967,-7.0384,-7.0649,-7.0346,-7.0346,-7.1103,-7.1405,-7.1327,-7.1474,-7.1794,-7.2786,-7.3804,-7.3963,-7.4122,-7.4214,-7.4267,-7.44,-7.4487,-7.4778,-7.4816,-7.4854,-7.4771,-7.4341,-7.4199,-7.3916,-7.3478,-7.2918,-7.2684,-7.2537,-7.2553,-7.2496,-7.2532,-7.2496,-7.2742,-7.2853,-5.6308,-5.6339,-5.6564,-5.7065,-5.7674,-5.7978,-5.8332,-5.8753,-5.914,-5.9467,-5.9739,-6.0255,-6.0712,-6.1002,-6.1259,-6.1408,-6.1484,-6.1479,-6.1549,-6.187,-6.2327,-6.2469,-6.257,-6.2889,-6.3377,-6.2618,-6.3157,-6.3281,-6.3235,-6.2861,-6.2401,-6.2245,-6.2896,-6.3338,-6.3845,-6.4622,-6.5455,-6.5878,-6.6351,-6.6605,-6.6663,-6.6555,-6.6475,-6.6384,-6.6338,-6.6205,-6.6097,-6.6005,-6.5947,-6.6461,-6.709,-6.7436,-6.7552,-6.8552,-6.8756,-6.8333,-6.8525,-6.8548,-6.8032,-6.7927,-6.8139,-6.8127,-6.8265,-6.8311,-6.847,-6.9584,-7.0419,-7.0419,-7.0419,-7.0419,-7.0419,-7.0386,-7.0353,-7.0319,-7.0251,-7.0182,-7.0149,-7.0039,-6.9966,-6.9929,-6.9967,-7.0157,-7.0232,-7.0004,-7.0268,-7.1025,-7.1174,-7.0979,-7.1073,-7.1261,-7.2192,-7.3342,-7.3492,-7.359,-7.3651,-7.3794,-7.3934,-7.4117,-7.4417,-7.4317,-7.4086,-7.3979,-7.3677,-7.3652,-7.3755,-7.2902,-7.1913,-7.2133,-7.2422,-7.2239,-7.2129,-7.2422,-7.261,-7.2853,-7.3034,-5.7152,-5.751,-5.7631,-5.7757,-5.7929,-5.8344,-5.8791,-5.9178,-5.9496,-5.9893,-6.0283,-6.0734,-6.0964,-6.1186,-6.1366,-6.1499,-6.1562,-6.1518,-6.1549,-6.185,-6.2391,-6.2836,-6.3201,-6.404,-6.5072,-6.4891,-6.4488,-6.4607,-6.497,-6.4099,-6.3932,-6.404,-6.3986,-6.4531,-6.4905,-6.5278,-6.5828,-6.6174,-6.6489,-6.6491,-6.6436,-6.6329,-6.6244,-6.6165,-6.6052,-6.5947,-6.5923,-6.5923,-6.623,-6.6821,-6.7628,-6.8321,-6.8629,-6.964,-6.9728,-6.9124,-6.9673,-6.9616,-6.9097,-6.8599,-6.8254,-6.8318,-6.861,-6.8929,-6.8706,-6.966,-7.0304,-7.0419,-7.0419,-7.0386,-7.0386,-7.0353,-7.0319,-7.0289,-7.0182,-7.0111,-7.0039,-7.0004,-6.9929,-6.9891,-6.9967,-7.0043,-6.9965,-6.9695,-7.0186,-7.0942,-7.0804,-7.0605,-7.0733,-7.097,-7.1849,-7.2606,-7.2881,-7.3023,-7.3029,-7.3143,-7.3362,-7.3513,-7.374,-7.3257,-7.273,-7.2751,-7.3359,-7.293,-7.2829,-7.1835,-7.1156,-7.1451,-7.1708,-7.1651,-7.1798,-7.2149,-7.25,-7.2798,-7.2963,-5.7667,-5.8125,-5.8406,-5.8557,-5.8574,-5.8837,-5.9289,-5.9739,-5.9992,-6.0326,-6.0757,-6.0945,-6.1402,-6.1803,-6.1616,-6.1795,-6.2141,-6.1734,-6.1685,-6.2093,-6.282,-6.3265,-6.3833,-6.4476,-6.5262,-6.5013,-6.4843,-6.5031,-6.5243,-6.5075,-6.5375,-6.5348,-6.5164,-6.5012,-6.5324,-6.5803,-6.6192,-6.6309,-6.6422,-6.6361,-6.6377,-6.6281,-6.6185,-6.6102,-6.6058,-6.5958,-6.5923,-6.5897,-6.6397,-6.7128,-6.7922,-6.8564,-6.914,-7.0123,-7.0018,-6.925,-7.0067,-7.0094,-6.9697,-6.9459,-6.9697,-6.9635,-6.9807,-6.9731,-6.924,-7.0113,-7.0381,-7.0419,-7.0386,-7.0386,-7.0319,-7.0286,-7.0251,-7.022,-7.0149,-7.0039,-6.9966,-6.9929,-6.9891,-6.9891,-6.9853,-6.9853,-6.9657,-6.9419,-7.0139,-7.0818,-7.0517,-7.0275,-7.0276,-7.0346,-7.1041,-7.1562,-7.1746,-7.1488,-7.1426,-7.1998,-7.2671,-7.2828,-7.2932,-7.2641,-7.2266,-7.3091,-7.3391,-7.2782,-7.2089,-7.1479,-7.1087,-7.0973,-7.1066,-7.1174,-7.1524,-7.1948,-7.2355,-7.2761,-7.2908,-5.8133,-5.8566,-5.8905,-5.9065,-5.909,-5.9321,-5.9677,-6.0159,-6.0321,-6.0666,-6.1095,-6.1363,-6.1911,-6.2393,-6.225,-6.2391,-6.2774,-6.2503,-6.2327,-6.289,-6.3764,-6.4138,-6.4392,-6.496,-6.5798,-6.5107,-6.5036,-6.5434,-6.5892,-6.5961,-6.6374,-6.6592,-6.6562,-6.6329,-6.5775,-6.6139,-6.6489,-6.6361,-6.6312,-6.6438,-6.6573,-6.6322,-6.635,-6.6283,-6.6183,-6.6213,-6.6269,-6.641,-6.6756,-6.7525,-6.8229,-6.8625,-6.9124,-6.9481,-6.9577,-6.9433,-6.9442,-6.9919,-6.9743,-7.0018,-7.0522,-7.0304,-7.0304,-7.0342,-7.0419,-7.0386,-7.0353,-7.0419,-7.0386,-7.0319,-7.0289,-7.0217,-7.0182,-7.0076,-7.0041,-6.9929,-6.9929,-6.9929,-6.9891,-6.9891,-6.9777,-6.9582,-6.934,-6.9091,-6.9215,-6.9656,-6.9246,-6.9162,-6.9272,-6.9436,-6.9684,-7.0182,-7.0496,-7.0054,-6.9613,-7.0739,-7.1677,-7.1663,-7.1864,-7.2261,-7.2347,-7.2969,-7.2882,-7.1988,-7.1392,-7.1213,-7.0951,-7.0643,-7.068,-7.0807,-7.1377,-7.2115,-7.2503,-7.2853,-7.2908,-5.8661,-5.8984,-5.9178,-5.9244,-5.929,-5.9601,-5.9944,-6.0321,-6.052,-6.0902,-6.1446,-6.2113,-6.2585,-6.277,-6.2678,-6.3075,-6.3575,-6.3224,-6.3163,-6.392,-6.4684,-6.5211,-6.5624,-6.6075,-6.6596,-6.6719,-6.6696,-6.6688,-6.6674,-6.7241,-6.7631,-6.786,-6.7953,-6.7687,-6.6523,-6.632,-6.6264,-6.6144,-6.6185,-6.6548,-6.6807,-6.6399,-6.6391,-6.6627,-6.6409,-6.6423,-6.6705,-6.6999,-6.746,-6.8333,-6.8894,-6.9289,-6.9634,-6.9568,-6.951,-6.9314,-6.9314,-6.9367,-6.9305,-7.0037,-7.0381,-7.0457,-7.0419,-7.0419,-7.0386,-7.0353,-7.0358,-7.0353,-7.0324,-7.0255,-7.022,-7.0147,-7.0076,-7.0003,-6.9929,-6.9929,-6.9929,-6.9777,-6.9738,-6.9738,-6.9504,-6.9219,-6.901,-6.8788,-6.8501,-6.8358,-6.8004,-6.8047,-6.8394,-6.8562,-6.8787,-6.9007,-6.932,-6.91,-6.8934,-6.9953,-7.0643,-7.0613,-7.0835,-7.1413,-7.1663,-7.1849,-7.1575,-7.1042,-7.0865,-7.0729,-7.0494,-7.0202,-7.0386,-7.0587,-7.1691,-7.2336,-7.2743,-7.2963,-7.2963,-5.9927,-6.0263,-5.9807,-5.9706,-5.9847,-5.9906,-6.0159,-6.052,-6.0902,-6.1496,-6.2051,-6.2069,-6.264,-6.3145,-6.3181,-6.3408,-6.4033,-6.4051,-6.4107,-6.4333,-6.5172,-6.5394,-6.5883,-6.683,-6.7343,-6.7258,-6.7565,-6.7898,-6.75,-6.8268,-6.8559,-6.873,-6.8894,-6.8219,-6.7464,-6.7116,-6.6922,-6.6239,-6.6157,-6.636,-6.6998,-6.6473,-6.6371,-6.709,-6.6859,-6.6821,-6.7244,-6.7614,-6.8268,-6.9064,-6.9624,-6.976,-6.999,-6.9884,-6.9344,-6.9284,-6.9291,-6.9496,-6.9807,-7.0342,-7.0381,-7.0419,-7.0386,-7.0386,-7.0429,-7.0358,-7.0358,-7.0324,-7.0255,-7.022,-7.0185,-7.0076,-7.0003,-6.9929,-6.9891,-6.9891,-6.9815,-6.9582,-6.9501,-6.9579,-6.946,-6.8945,-6.8623,-6.8442,-6.8222,-6.8259,-6.8041,-6.7794,-6.8031,-6.7978,-6.8108,-6.8108,-6.8218,-6.8091,-6.8309,-6.9184,-6.9716,-6.9757,-7.02,-7.0807,-7.0897,-7.0967,-7.132,-7.136,-7.0826,-7.0293,-7.0256,-7.0256,-7.0128,-7.0533,-7.1471,-7.2225,-7.2593,-7.2798,-7.2908,-6.09,-6.1439,-6.0714,-6.0746,-6.1029,-6.0425,-6.0321,-6.0773,-6.1169,-6.1701,-6.2119,-6.2224,-6.2925,-6.3741,-6.392,-6.4169,-6.4996,-6.4731,-6.502,-6.5094,-6.5647,-6.6175,-6.6823,-6.746,-6.7889,-6.7945,-6.8429,-6.8865,-6.8416,-6.9123,-6.9655,-6.9843,-6.9731,-6.9343,-6.8704,-6.8199,-6.7539,-6.6913,-6.6676,-6.6954,-6.7229,-6.7102,-6.6962,-6.7552,-6.7602,-6.7333,-6.7806,-6.8317,-6.8828,-6.9596,-7.0028,-7.0124,-7.0286,-6.9719,-6.913,-6.9107,-6.9266,-6.9616,-7.0119,-7.0315,-7.0353,-7.0358,-7.0353,-7.0391,-7.0362,-7.0255,-7.0217,-7.0182,-7.0149,-7.0149,-7.0114,-7.0003,-6.9929,-6.9891,-6.9738,-6.9738,-6.9657,-6.9453,-6.9321,-6.9364,-6.9272,-6.8762,-6.8393,-6.8129,-6.7973,-6.8062,-6.8151,-6.7973,-6.7704,-6.7704,-6.7741,-6.7724,-6.7724,-6.7814,-6.7924,-6.8235,-6.8676,-6.8862,-6.9467,-7.0202,-7.0515,-7.0624,-7.112,-7.1561,-7.09,-7.0397,-7.036,-7.0307,-7.0109,-7.0384,-7.1098,-7.1802,-7.2369,-7.2667,-7.2853,-6.1733,-6.249,-6.1857,-6.2108,-6.2655,-6.1218,-6.0776,-6.1138,-6.1368,-6.1575,-6.1769,-6.3337,-6.3884,-6.4286,-6.4881,-6.555,-6.6126,-6.5683,-6.6017,-6.6382,-6.6517,-6.7112,-6.7646,-6.8125,-6.8502,-6.8976,-6.9449,-6.9694,-6.937,-6.9997,-7.0675,-7.1125,-7.099,-7.0524,-6.9864,-6.9319,-6.8464,-6.7741,-6.7425,-6.7779,-6.8142,-6.7693,-6.8039,-6.8436,-6.8306,-6.8279,-6.8569,-6.8896,-6.9404,-7.0026,-7.057,-7.0616,-7.0126,-6.9054,-6.8915,-6.8999,-6.9196,-6.9742,-7.0133,-7.0286,-7.0289,-7.0255,-7.0217,-7.0289,-7.0255,-7.0185,-7.0111,-7.0076,-7.0077,-7.0003,-6.9966,-6.9929,-6.9891,-6.9699,-6.9501,-6.9457,-6.9444,-6.9266,-6.9162,-6.9099,-6.8985,-6.874,-6.8689,-6.8439,-6.8218,-6.8288,-6.8357,-6.7936,-6.7757,-6.7863,-6.781,-6.7687,-6.7741,-6.7741,-6.7867,-6.8136,-6.8194,-6.8652,-6.8987,-6.9593,-6.989,-7.0257,-7.0789,-7.1008,-7.0671,-7.0383,-7.0003,-6.9887,-6.9975,-7.0375,-7.0776,-7.1598,-7.2242,-7.2593,-7.2779,-6.3523,-6.3733,-6.2974,-6.29,-6.3222,-6.299,-6.2839,-6.2839,-6.2548,-6.291,-6.4181,-6.3392,-6.3962,-6.5022,-6.5278,-6.5631,-6.594,-6.6237,-6.6492,-6.6784,-6.6917,-6.7411,-6.8047,-6.8664,-6.902,-6.9614,-7.0146,-7.0537,-7.03,-7.0788,-7.1087,-7.1378,-7.1415,-7.1102,-7.0887,-7.0672,-6.954,-6.866,-6.8351,-6.8641,-6.8847,-6.841,-6.8948,-6.9075,-6.903,-6.904,-6.927,-6.9672,-7.0141,-7.0486,-7.0678,-7.08,-7.1312,-6.9934,-6.9145,-6.9093,-6.9556,-7.0095,-7.0217,-7.022,-7.022,-7.0149,-7.0149,-7.0114,-7.0114,-7.0077,-7.0041,-7.0004,-7.0004,-6.9967,-6.9929,-6.9854,-6.9738,-6.9542,-6.9411,-6.9428,-6.9402,-6.9304,-6.9223,-6.9446,-6.9359,-6.9252,-6.9137,-6.8935,-6.8769,-6.8767,-6.8509,-6.8104,-6.781,-6.7863,-6.7915,-6.7847,-6.7899,-6.7915,-6.8121,-6.8383,-6.8282,-6.843,-6.8823,-6.9178,-6.9636,-7.0058,-7.0494,-7.0485,-7.0264,-6.9804,-6.9351,-6.9335,-6.9554,-6.9836,-7.0258,-7.1212,-7.2005,-7.2208,-7.2465,-6.4576,-6.4808,-6.4075,-6.4062,-6.4599,-6.4787,-6.4804,-6.4537,-6.3643,-6.3909,-6.4623,-6.4117,-6.4387,-6.5267,-6.5767,-6.603,-6.6159,-6.6525,-6.6772,-6.6834,-6.7203,-6.7924,-6.8632,-6.9394,-6.9972,-7.0513,-7.094,-7.1315,-7.1086,-7.1197,-7.1494,-7.1415,-7.1373,-7.1291,-7.1192,-7.1015,-7.0637,-6.9856,-6.9423,-6.9425,-6.9309,-6.9163,-6.9498,-6.9816,-6.9702,-6.9596,-6.9826,-7.0302,-7.0233,-7.0654,-7.0769,-7.1236,-7.1669,-7.0681,-6.9546,-6.9489,-6.9683,-7.003,-7.0111,-7.0149,-7.0114,-7.0077,-7.0041,-7.0004,-7.0004,-6.9967,-6.9967,-6.9967,-6.9929,-6.9891,-6.9854,-6.9739,-6.9582,-6.934,-6.9385,-6.9461,-6.9432,-6.9332,-6.9591,-6.9939,-6.9969,-6.9905,-6.9742,-6.9504,-6.9412,-6.9516,-6.9126,-6.8498,-6.8151,-6.7863,-6.8055,-6.8092,-6.8107,-6.8171,-6.8371,-6.8517,-6.8468,-6.8543,-6.874,-6.9149,-6.9434,-6.9644,-6.9889,-6.9873,-6.978,-6.9461,-6.9327,-6.8995,-6.9076,-6.9396,-6.9651,-7.02,-7.0845,-7.1176,-7.1507,-6.5026,-6.5851,-6.5148,-6.5373,-6.6316,-6.6273,-6.629,-6.6267,-6.4842,-6.4247,-6.4494,-6.4973,-6.5283,-6.5784,-6.64,-6.6789,-6.6993,-6.7247,-6.7464,-6.7039,-6.7846,-6.8632,-6.9447,-7.0206,-7.0653,-7.1351,-7.1704,-7.1598,-7.163,-7.1568,-7.1475,-7.1415,-7.1394,-7.1313,-7.1201,-7.1224,-7.0922,-7.0632,-7.0169,-7.0028,-6.986,-6.9844,-6.9942,-7.0412,-7.0103,-6.9743,-7.0133,-7.0063,-6.9655,-7.0495,-7.1107,-7.1636,-7.1761,-7.1655,-7.0671,-6.9915,-6.9995,-6.9961,-7.0039,-7.0003,-6.9966,-6.9967,-6.9891,-6.9929,-6.9929,-6.9929,-6.9929,-6.9929,-6.9891,-6.9891,-6.9854,-6.9622,-6.9382,-6.9166,-6.9042,-6.9171,-6.9221,-6.9258,-6.9499,-6.9774,-6.9831,-6.9761,-6.9761,-6.9449,-6.9284,-6.979,-6.9399,-6.8624,-6.8314,-6.7899,-6.7952,-6.8144,-6.8222,-6.8284,-6.8468,-6.8613,-6.867,-6.8717,-6.8866,-6.9024,-6.9341,-6.9332,-6.9222,-6.9798,-7.0411,-6.9804,-6.946,-6.9183,-6.8926,-6.8901,-6.9104,-6.9245,-6.9577,-6.9982,-7.0533,-6.593,-6.6205,-6.605,-6.6217,-6.6439,-6.6493,-6.6493,-6.647,-6.6151,-6.594,-6.5932,-6.5645,-6.5862,-6.6566,-6.7296,-6.7727,-6.7838,-6.818,-6.8666,-6.8632,-6.8943,-6.9403,-7.0123,-7.0564,-7.1087,-7.1482,-7.1679,-7.1645,-7.1586,-7.1494,-7.1415,-7.1269,-7.1291,-7.1247,-7.113,-7.1154,-7.113,-7.0966,-7.0774,-7.0555,-7.0475,-7.0479,-7.0613,-7.0661,-7.0341,-7.0286,-7.0483,-7.0413,-7.0648,-7.1336,-7.1527,-7.199,-7.2494,-7.2465,-7.186,-7.095,-7.0267,-7.0155,-6.9967,-6.9929,-6.9891,-6.9929,-6.9891,-6.9891,-6.9891,-6.9891,-6.9891,-6.9891,-6.9891,-6.9891,-6.9738,-6.9423,-6.9171,-6.8937,-6.8762,-6.8888,-6.9041,-6.9191,-6.9376,-6.9449,-6.9522,-6.9559,-6.9596,-6.9522,-6.9284,-6.8934,-6.8419,-6.7941,-6.7957,-6.7757,-6.7757,-6.7952,-6.8235,-6.8383,-6.8613,-6.8707,-6.8763,-6.8866,-6.9005,-6.909,-6.9183,-6.9641,-7.0051,-7.078,-7.1203,-7.0234,-6.9491,-6.9207,-6.9005,-6.8716,-6.855,-6.8583,-6.8439,-6.8659,-6.9339,-6.6225,-6.6322,-6.6373,-6.6422,-6.6508,-6.6508,-6.6508,-6.6577,-6.6606,-6.6888,-6.7165,-6.6869,-6.7071,-6.778,-6.8424,-6.863,-6.8733,-6.9099,-6.9179,-6.9333,-6.9859,-7.0113,-7.0551,-7.0949,-7.131,-7.1654,-7.1637,-7.1598,-7.1513,-7.1455,-7.1376,-7.1247,-7.1247,-7.1201,-7.1081,-7.1081,-7.1081,-7.0952,-7.0952,-7.0925,-7.0843,-7.0758,-7.0699,-7.0669,-7.0578,-7.0636,-7.0986,-7.103,-7.1494,-7.2109,-7.2532,-7.2843,-7.319,-7.3193,-7.2472,-7.1447,-7.0726,-7.0308,-7.0005,-6.9891,-6.9891,-6.9853,-6.9891,-6.9853,-6.9815,-6.9815,-6.9738,-6.9738,-6.9582,-6.9582,-6.934,-6.9085,-6.8734,-6.848,-6.8642,-6.8889,-6.8951,-6.9026,-6.9119,-6.9119,-6.9265,-6.9486,-6.9596,-6.9889,-6.9614,-6.8972,-6.8311,-6.7871,-6.7797,-6.7687,-6.7687,-6.7757,-6.8084,-6.8394,-6.867,-6.8763,-6.8809,-6.894,-6.9022,-6.9191,-6.9297,-7.0164,-7.0942,-7.0973,-7.0766,-7.0046,-6.9453,-6.9127,-6.8654,-6.824,-6.8062,-6.7973,-6.7757,-6.7687,-6.8311,-6.6264,-6.6322,-6.6373,-6.6516,-6.6664,-6.6703,-6.6834,-6.6995,-6.7048,-6.7594,-6.8351,-6.8433,-6.8863,-6.9135,-6.9527,-6.953,-6.9687,-7.0036,-6.9916,-7.0097,-7.0531,-7.0809,-7.1087,-7.1399,-7.1602,-7.1651,-7.163,-7.1547,-7.1494,-7.1455,-7.1334,-7.1224,-7.1178,-7.1154,-7.1056,-7.1005,-7.0979,-7.0925,-7.0898,-7.0843,-7.0787,-7.0729,-7.0708,-7.0609,-7.0592,-7.0877,-7.1412,-7.1765,-7.2113,-7.2881,-7.3533,-7.3726,-7.3535,-7.3342,-7.2389,-7.1439,-7.0646,-7.023,-6.9889,-6.9738,-6.9738,-6.9777,-6.9777,-6.9738,-6.9659,-6.962,-6.9542,-6.9385,-6.9261,-6.9171,-6.8997,-6.8734,-6.8405,-6.8235,-6.8498,-6.8693,-6.8713,-6.8769,-6.8715,-6.8715,-6.8898,-6.9155,-6.9376,-6.9706,-6.9486,-6.8935,-6.8605,-6.8238,-6.7944,-6.776,-6.7687,-6.7704,-6.7915,-6.8284,-6.8528,-6.8633,-6.8586,-6.8517,-6.8617,-6.8967,-6.9391,-7.0079,-7.0379,-7.0223,-6.9889,-6.9612,-6.9223,-6.884,-6.8351,-6.7867,-6.7831,-6.781,-6.7757,-6.7687,-6.7687,-6.6284,-6.6376,-6.6461,-6.6897,-6.748,-6.7612,-6.8034,-6.865,-6.8756,-6.9283,-6.9805,-7.0067,-6.9994,-6.9367,-7.0153,-7.0429,-7.0503,-7.0881,-7.1318,-7.1558,-7.133,-7.1448,-7.1533,-7.1626,-7.1732,-7.1699,-7.1603,-7.1532,-7.1475,-7.1415,-7.1291,-7.1224,-7.1201,-7.113,-7.103,-7.0979,-7.0952,-7.0898,-7.0843,-7.0815,-7.0758,-7.0699,-7.0678,-7.0585,-7.0483,-7.0959,-7.1353,-7.1631,-7.2432,-7.3459,-7.422,-7.4288,-7.3821,-7.301,-7.2014,-7.1137,-7.039,-6.9872,-6.9532,-6.9419,-6.9419,-6.9419,-6.9336,-6.9166,-6.9122,-6.9116,-6.8997,-6.8765,-6.8676,-6.8825,-6.8679,-6.8442,-6.8148,-6.8047,-6.8173,-6.8104,-6.8071,-6.8054,-6.8054,-6.8054,-6.8091,-6.8201,-6.8238,-6.8421,-6.8421,-6.8091,-6.8091,-6.7797,-6.7797,-6.7724,-6.7687,-6.7704,-6.781,-6.7757,-6.7915,-6.8235,-6.8247,-6.8185,-6.8222,-6.865,-6.9183,-6.9798,-6.9985,-6.9723,-6.9602,-6.9459,-6.9059,-6.8609,-6.8194,-6.7851,-6.7777,-6.7741,-6.7687,-6.7687,-6.7687]}]]